[[{"header":{"parameterUnit":"m.s-1","parameterCategory":1,"la1":30.6,"la2":29.2853,"lo1":-89.7004,"lo2":-87.6739,"dy":0.0162,"dx":0.0183,"nx":112,"ny":82,"refTime":"2023-07-31T12:00:00:Z","depth":0,"parameterNumber":2,"parameterNumberName":"U-component_of_WINDS"},"data":[0.0,0.0,0.0,0.0,0.0,0.0,0.0,0.0,0.0,0.0,0.0,0.0,0.0,0.0,0.0,0.0,0.0,0.0,0.0,0.0,0.0,0.0,0.0,0.0,0.0,0.0,0.0,0.0,0.0,0.0,0.0,0.0,0.0,0.0,0.0,0.0,0.0,0.0,0.0,0.0,0.0,0.0,0.0,0.0,0.0,0.0,0.0,0.0,0.0,0.0,0.0,0.0,0.0,0.0,0.0,0.0,0.0,0.0,0.0,0.0,0.0,0.0,0.0,0.0,0.0,0.0,0.0,0.0,0.0,0.0,0.0,0.0,0.0,0.0,0.0,0.0,0.0,0.0,0.0,0.0,0.0,0.0,0.0,0.0,0.0,0.0,0.0,0.0,0.0,0.0,-2.9249,-3.1263,-3.1394,-3.0725,-2.925,-2.701,-2.4307,-2.1244,0.0,0.0,0.0,0.0,0.0,0.0,0.0,0.0,0.0,0.0,0.0,0.0,0.0,0.0,0.0,0.0,0.0,0.0,0.0,0.0,0.0,0.0,0.0,0.0,0.0,0.0,0.0,0.0,0.0,0.0,0.0,0.0,0.0,0.0,0.0,0.0,0.0,0.0,0.0,0.0,0.0,0.0,0.0,0.0,0.0,0.0,0.0,0.0,0.0,0.0,0.0,0.0,0.0,0.0,0.0,0.0,0.0,0.0,0.0,0.0,0.0,0.0,0.0,0.0,0.0,0.0,0.0,0.0,0.0,0.0,0.0,0.0,0.0,0.0,0.0,0.0,0.0,0.0,0.0,0.0,0.0,0.0,0.0,0.0,0.0,0.0,0.0,0.0,0.0,0.0,0.0,0.0,0.0,0.0,0.0,0.0,0.0,0.0,0.0,0.0,0.0,0.0,0.0,0.0,-2.9474,-3.2403,-3.2227,-3.142,-3.0278,-2.8356,-2.5668,-2.1882,0.0,0.0,0.0,0.0,0.0,0.0,0.0,0.0,0.0,0.0,0.0,0.0,0.0,0.0,0.0,0.0,0.0,0.0,0.0,0.0,0.0,0.0,0.0,0.0,0.0,0.0,0.0,0.0,0.0,0.0,0.0,0.0,0.0,0.0,0.0,0.0,0.0,0.0,0.0,0.0,0.0,0.0,0.0,0.0,0.0,0.0,0.0,0.0,0.0,0.0,0.0,0.0,0.0,0.0,0.0,0.0,0.0,0.0,0.0,0.0,0.0,0.0,0.0,0.0,0.0,0.0,0.0,0.0,0.0,0.0,0.0,0.0,0.0,0.0,0.0,0.0,0.0,0.0,0.0,0.0,0.0,0.0,0.0,0.0,0.0,0.0,0.0,0.0,0.0,0.0,0.0,0.0,0.0,0.0,0.0,0.0,0.0,0.0,0.0,0.0,0.0,0.0,0.0,-2.9263,-3.0739,-3.3438,-3.2479,-3.138,-3.0569,-2.8665,-2.6022,-2.2508,-1.9388,0.0,0.0,0.0,0.0,0.0,0.0,0.0,0.0,0.0,0.0,0.0,0.0,0.0,0.0,0.0,0.0,0.0,0.0,0.0,0.0,0.0,0.0,0.0,0.0,0.0,0.0,0.0,0.0,0.0,0.0,0.0,0.0,0.0,0.0,0.0,0.0,0.0,0.0,0.0,0.0,0.0,0.0,0.0,0.0,0.0,0.0,0.0,0.0,0.0,0.0,0.0,0.0,0.0,0.0,0.0,0.0,0.0,0.0,0.0,0.0,0.0,0.0,0.0,0.0,0.0,0.0,0.0,0.0,0.0,0.0,0.0,0.0,0.0,0.0,0.0,0.0,0.0,0.0,0.0,0.0,0.0,0.0,0.0,0.0,0.0,0.0,0.0,0.0,0.0,0.0,0.0,0.0,0.0,0.0,0.0,0.0,0.0,0.0,0.0,0.0,0.0,0.0,-3.021,-3.1637,-3.3748,-3.2394,-3.1128,-3.0469,-2.8644,-2.6179,-2.3097,-2.0601,0.0,0.0,0.0,0.0,0.0,0.0,0.0,0.0,0.0,0.0,0.0,0.0,0.0,0.0,0.0,0.0,0.0,0.0,0.0,0.0,0.0,0.0,0.0,0.0,0.0,0.0,0.0,0.0,0.0,0.0,0.0,0.0,0.0,0.0,0.0,0.0,0.0,0.0,0.0,0.0,0.0,0.0,0.0,0.0,0.0,0.0,0.0,0.0,0.0,0.0,0.0,0.0,0.0,0.0,0.0,0.0,0.0,0.0,0.0,0.0,0.0,0.0,0.0,0.0,0.0,0.0,0.0,0.0,0.0,0.0,0.0,0.0,0.0,0.0,0.0,0.0,0.0,0.0,0.0,0.0,0.0,0.0,0.0,0.0,0.0,0.0,0.0,0.0,0.0,0.0,0.0,0.0,0.0,0.0,0.0,0.0,0.0,0.0,0.0,0.0,0.0,0.0,-2.9958,-3.1227,-3.2832,-3.2001,-3.0965,-3.0005,-2.868,-2.6582,-2.362,-2.13,0.0,0.0,0.0,0.0,0.0,0.0,0.0,0.0,0.0,0.0,0.0,0.0,0.0,0.0,0.0,0.0,0.0,0.0,0.0,0.0,0.0,0.0,0.0,0.0,0.0,0.0,0.0,0.0,0.0,0.0,0.0,0.0,0.0,0.0,0.0,0.0,0.0,0.0,0.0,0.0,0.0,0.0,0.0,0.0,0.0,0.0,0.0,0.0,0.0,0.0,0.0,0.0,0.0,0.0,0.0,0.0,0.0,0.0,0.0,0.0,0.0,0.0,0.0,0.0,0.0,0.0,0.0,0.0,0.0,0.0,0.0,0.0,0.0,0.0,0.0,0.0,0.0,0.0,0.0,0.0,0.0,0.0,0.0,0.0,0.0,0.0,0.0,0.0,0.0,0.0,0.0,0.0,0.0,0.0,0.0,0.0,0.0,0.0,0.0,0.0,0.0,0.0,-2.9845,-3.1083,-3.2726,-3.1645,-3.0549,-2.9943,-2.8096,-2.6017,-2.3747,0.0,0.0,0.0,0.0,0.0,0.0,0.0,0.0,0.0,0.0,0.0,0.0,0.0,0.0,0.0,0.0,0.0,0.0,0.0,0.0,0.0,0.0,0.0,0.0,0.0,0.0,0.0,0.0,0.0,0.0,0.0,0.0,0.0,0.0,0.0,0.0,0.0,0.0,0.0,0.0,0.0,0.0,0.0,0.0,0.0,0.0,0.0,0.0,0.0,0.0,0.0,0.0,0.0,0.0,0.0,0.0,0.0,0.0,0.0,0.0,0.0,0.0,0.0,0.0,0.0,0.0,0.0,0.0,0.0,0.0,0.0,0.0,0.0,0.0,0.0,0.0,0.0,0.0,0.0,0.0,0.0,0.0,0.0,0.0,0.0,0.0,0.0,0.0,0.0,0.0,0.0,0.0,0.0,0.0,0.0,0.0,0.0,0.0,0.0,0.0,0.0,0.0,-2.8973,-2.9835,-3.0973,-3.2668,-3.1409,-3.0359,-3.0054,-2.7913,-2.5806,-2.4075,0.0,0.0,0.0,0.0,0.0,0.0,0.0,0.0,0.0,0.0,0.0,0.0,0.0,0.0,0.0,0.0,0.0,0.0,0.0,0.0,0.0,0.0,0.0,0.0,0.0,0.0,0.0,0.0,0.0,0.0,0.0,0.0,0.0,0.0,0.0,0.0,0.0,0.0,0.0,0.0,0.0,0.0,0.0,0.0,0.0,0.0,0.0,0.0,0.0,0.0,0.0,0.0,0.0,0.0,0.0,0.0,0.0,0.0,0.0,0.0,0.0,0.0,0.0,0.0,0.0,0.0,0.0,0.0,0.0,0.0,0.0,0.0,0.0,0.0,0.0,0.0,0.0,0.0,0.0,0.0,0.0,0.0,0.0,0.0,0.0,0.0,0.0,0.0,0.0,0.0,0.0,0.0,0.0,0.0,0.0,0.0,0.0,0.0,0.0,0.0,0.0,0.0,-2.9429,-3.0,-3.0845,-3.2513,-3.1402,-3.0478,-3.0385,-2.8199,-2.6162,0.0,0.0,0.0,0.0,0.0,0.0,0.0,0.0,0.0,0.0,0.0,0.0,0.0,0.0,0.0,0.0,0.0,0.0,0.0,0.0,0.0,0.0,0.0,0.0,0.0,0.0,0.0,0.0,0.0,0.0,0.0,0.0,0.0,0.0,0.0,0.0,0.0,0.0,0.0,0.0,0.0,0.0,0.0,0.0,0.0,0.0,0.0,0.0,0.0,0.0,0.0,0.0,0.0,0.0,0.0,0.0,0.0,0.0,0.0,0.0,0.0,0.0,0.0,0.0,0.0,0.0,0.0,0.0,0.0,0.0,0.0,0.0,0.0,0.0,0.0,0.0,0.0,0.0,0.0,0.0,0.0,0.0,0.0,0.0,0.0,0.0,0.0,0.0,0.0,0.0,0.0,0.0,0.0,0.0,0.0,0.0,0.0,0.0,0.0,0.0,0.0,0.0,0.0,-2.9277,-3.0221,-3.1237,-3.2432,-3.1223,-3.0332,-3.0275,-2.8136,-2.6113,-2.444,0.0,0.0,0.0,0.0,0.0,0.0,0.0,0.0,0.0,0.0,0.0,0.0,0.0,0.0,0.0,0.0,0.0,0.0,0.0,0.0,0.0,0.0,0.0,0.0,0.0,0.0,0.0,0.0,0.0,0.0,0.0,0.0,0.0,0.0,0.0,0.0,0.0,0.0,0.0,0.0,0.0,0.0,0.0,0.0,0.0,0.0,0.0,0.0,0.0,0.0,0.0,0.0,0.0,0.0,0.0,0.0,0.0,0.0,0.0,0.0,0.0,0.0,0.0,0.0,0.0,0.0,0.0,0.0,0.0,0.0,0.0,0.0,0.0,0.0,0.0,0.0,0.0,0.0,0.0,0.0,0.0,0.0,0.0,0.0,0.0,0.0,0.0,0.0,0.0,0.0,0.0,0.0,0.0,0.0,0.0,0.0,0.0,0.0,0.0,0.0,0.0,0.0,-2.9461,-3.0552,-3.1645,-3.2632,-3.1491,-3.0624,-3.0609,-2.829,-2.6176,-2.454,0.0,0.0,0.0,0.0,0.0,0.0,0.0,0.0,0.0,0.0,0.0,0.0,0.0,0.0,0.0,0.0,0.0,0.0,0.0,0.0,0.0,0.0,0.0,0.0,0.0,0.0,0.0,0.0,0.0,0.0,0.0,0.0,0.0,0.0,0.0,0.0,0.0,0.0,0.0,0.0,0.0,0.0,0.0,0.0,0.0,0.0,0.0,0.0,0.0,0.0,0.0,0.0,0.0,0.0,0.0,0.0,0.0,0.0,0.0,0.0,0.0,0.0,0.0,0.0,0.0,0.0,0.0,0.0,0.0,0.0,0.0,0.0,0.0,0.0,0.0,0.0,0.0,0.0,0.0,0.0,0.0,0.0,0.0,0.0,0.0,0.0,0.0,0.0,0.0,0.0,0.0,0.0,0.0,0.0,0.0,0.0,0.0,0.0,0.0,0.0,0.0,0.0,-2.9866,-3.1027,-3.2059,-3.2949,-3.1913,-3.1137,-3.1163,-2.8632,-2.6426,-2.4858,0.0,0.0,0.0,0.0,0.0,0.0,0.0,0.0,0.0,0.0,0.0,0.0,0.0,0.0,0.0,0.0,0.0,0.0,0.0,0.0,0.0,0.0,0.0,0.0,0.0,0.0,0.0,0.0,0.0,0.0,0.0,0.0,0.0,0.0,0.0,0.0,0.0,0.0,0.0,0.0,0.0,0.0,0.0,0.0,0.0,0.0,0.0,0.0,0.0,0.0,0.0,0.0,0.0,0.0,0.0,0.0,0.0,0.0,0.0,0.0,-3.623,0.0,0.0,0.0,0.0,0.0,0.0,0.0,0.0,0.0,0.0,0.0,0.0,0.0,0.0,0.0,0.0,0.0,0.0,0.0,0.0,0.0,0.0,0.0,0.0,0.0,0.0,0.0,0.0,0.0,0.0,0.0,0.0,0.0,0.0,0.0,0.0,0.0,0.0,0.0,0.0,0.0,-3.0231,-3.1342,-3.2276,-3.2652,-3.1573,-3.0829,-3.0882,-2.8882,-2.6966,-2.5351,-2.3923,0.0,0.0,0.0,0.0,0.0,0.0,0.0,0.0,0.0,0.0,0.0,0.0,0.0,0.0,0.0,0.0,0.0,0.0,0.0,0.0,0.0,0.0,0.0,0.0,0.0,0.0,0.0,0.0,0.0,0.0,0.0,0.0,0.0,0.0,0.0,0.0,0.0,0.0,0.0,0.0,0.0,0.0,0.0,0.0,0.0,0.0,0.0,0.0,0.0,0.0,0.0,0.0,0.0,0.0,0.0,0.0,0.0,0.0,0.0,0.0,-3.7189,0.0,0.0,0.0,0.0,0.0,0.0,0.0,0.0,0.0,0.0,0.0,0.0,0.0,0.0,0.0,0.0,0.0,0.0,0.0,0.0,0.0,0.0,0.0,0.0,0.0,0.0,0.0,0.0,0.0,0.0,0.0,0.0,0.0,0.0,0.0,0.0,0.0,0.0,0.0,0.0,-3.0105,-3.115,-3.1891,-3.1896,-3.1059,-3.0482,-3.023,-2.8671,-2.7009,-2.55,-2.4194,0.0,0.0,0.0,0.0,0.0,0.0,0.0,0.0,0.0,0.0,0.0,0.0,0.0,0.0,0.0,0.0,0.0,0.0,0.0,0.0,0.0,0.0,0.0,0.0,0.0,0.0,0.0,0.0,0.0,0.0,0.0,0.0,0.0,0.0,0.0,0.0,0.0,0.0,0.0,0.0,0.0,0.0,0.0,0.0,0.0,0.0,0.0,0.0,0.0,0.0,0.0,0.0,0.0,-4.2121,-4.2198,-4.2137,-4.206,-4.1952,-4.1818,-4.1019,-3.9865,-3.8432,-3.761,0.0,0.0,0.0,0.0,0.0,0.0,0.0,0.0,0.0,0.0,0.0,0.0,0.0,0.0,0.0,0.0,0.0,0.0,0.0,0.0,0.0,0.0,0.0,0.0,-3.3262,-3.2795,0.0,0.0,0.0,0.0,0.0,0.0,0.0,0.0,0.0,0.0,0.0,0.0,-2.9884,-3.08,-3.1325,-3.1001,-3.0542,-3.0053,-2.9549,-2.8258,-2.6886,-2.5606,-2.4361,-2.2796,0.0,0.0,0.0,0.0,0.0,0.0,0.0,0.0,0.0,0.0,0.0,0.0,0.0,0.0,0.0,0.0,0.0,0.0,0.0,0.0,0.0,0.0,0.0,0.0,0.0,0.0,0.0,0.0,0.0,0.0,0.0,0.0,-3.1108,-3.1883,0.0,0.0,0.0,0.0,0.0,0.0,0.0,0.0,0.0,0.0,0.0,0.0,0.0,-4.1622,-4.1633,-4.2416,-4.272,-4.2679,-4.4016,-4.4539,-4.432,-4.4966,-4.515,-4.4887,-4.4683,0.0,-4.0059,-3.9656,0.0,0.0,0.0,0.0,0.0,0.0,0.0,0.0,0.0,0.0,0.0,0.0,0.0,0.0,0.0,0.0,0.0,0.0,0.0,0.0,0.0,0.0,-3.2857,-3.2802,-3.2802,-3.2702,0.0,-3.1678,-3.104,-3.0946,-2.9783,0.0,0.0,0.0,0.0,0.0,0.0,0.0,-3.0086,-3.0642,-3.0833,-3.0433,-3.0101,-2.9663,-2.9114,-2.7949,-2.6864,-2.6037,-2.4924,-2.3568,-2.2018,-2.0863,0.0,0.0,0.0,0.0,0.0,0.0,0.0,0.0,0.0,0.0,0.0,0.0,0.0,0.0,0.0,0.0,0.0,0.0,0.0,0.0,0.0,0.0,0.0,0.0,0.0,0.0,0.0,0.0,0.0,-3.2737,-3.3654,-3.4299,-3.5128,-3.5595,0.0,0.0,0.0,0.0,0.0,0.0,0.0,0.0,0.0,-4.1959,-4.2305,-4.2659,-4.3018,-4.3299,-4.3614,-4.3929,-4.4568,-4.5,-4.5279,-4.557,-4.5601,-4.5388,-4.5251,-4.4237,-4.2687,-4.1649,-4.1049,-4.0627,0.0,0.0,0.0,0.0,-3.823,-3.7929,-3.7452,-3.7095,0.0,-3.5941,0.0,0.0,0.0,0.0,0.0,0.0,0.0,0.0,0.0,0.0,-3.4922,-3.4922,-3.461,-3.433,-3.4218,-3.3255,-3.2303,0.0,-3.1332,-3.0626,-3.017,0.0,0.0,0.0,0.0,-2.9497,-2.9793,-2.9862,-2.978,-2.9423,-2.9104,-2.8713,-2.8248,-2.7417,-2.663,-2.6002,-2.4859,-2.3811,-2.2858,-2.139,-2.0106,0.0,0.0,0.0,0.0,0.0,0.0,0.0,0.0,0.0,0.0,0.0,0.0,0.0,0.0,0.0,0.0,0.0,0.0,0.0,0.0,0.0,0.0,0.0,0.0,0.0,0.0,0.0,0.0,-3.5278,-3.6198,-3.6602,-3.7599,-3.8196,0.0,0.0,0.0,0.0,0.0,0.0,-4.1266,-4.2071,-4.2726,-4.3256,-4.339,-4.3646,-4.3961,-4.3865,-4.4029,-4.4483,-4.4765,-4.5169,-4.5603,-4.5963,-4.6045,-4.5807,-4.5642,-4.543,-4.5062,-4.3451,-4.2554,-4.2033,-4.0682,-3.9978,-3.9721,-3.9422,-3.9134,-3.8939,-3.8824,-3.8572,-3.8249,-3.768,-3.7162,-3.6645,-3.5967,0.0,0.0,0.0,0.0,-3.585,-3.6339,-3.647,-3.6417,-3.6381,-3.5844,-3.5324,-3.5221,-3.4182,-3.3178,0.0,-3.2449,-3.1984,-3.1356,0.0,0.0,0.0,0.0,-2.9571,-2.9305,-2.9106,-2.8826,-2.8542,-2.8268,-2.7925,-2.7473,-2.693,-2.6351,-2.5825,-2.4778,-2.3914,-2.3206,-2.1809,-2.0625,-1.9793,0.0,0.0,0.0,0.0,0.0,0.0,0.0,0.0,0.0,0.0,0.0,0.0,0.0,0.0,0.0,0.0,0.0,0.0,0.0,0.0,0.0,0.0,0.0,0.0,0.0,0.0,0.0,0.0,0.0,-3.8376,-3.9825,0.0,0.0,0.0,0.0,-4.1614,-4.1651,-4.2044,-4.2847,-4.3725,-4.4102,-4.3931,-4.4692,-4.4684,-4.3804,-4.36,-4.355,-4.3571,-4.4931,-4.549,-4.5385,-4.6884,-4.7446,-4.7194,-4.699,-4.6809,-4.6547,-4.4883,-4.4064,-4.3769,-4.3284,-4.3005,-4.2806,-4.2449,-4.2189,-4.2047,-4.1795,-4.145,-4.0922,-3.9424,-3.7773,-3.6397,-3.6307,-3.6222,0.0,0.0,-3.6189,-3.6136,-3.6061,-3.6023,-3.5969,-3.586,-3.5262,-3.475,-3.475,-3.4069,-3.3387,0.0,-3.2225,-3.155,-3.147,0.0,-3.086,-3.0164,-2.9893,-2.9529,-2.8826,-2.8573,-2.8332,-2.8057,-2.794,-2.759,-2.7063,-2.6616,-2.6068,-2.5453,-2.4811,-2.4002,-2.2865,-2.2329,-2.1289,-1.965,-1.9099,0.0,0.0,0.0,0.0,0.0,0.0,0.0,0.0,0.0,0.0,0.0,0.0,0.0,0.0,0.0,0.0,0.0,0.0,0.0,0.0,0.0,0.0,0.0,0.0,0.0,0.0,0.0,0.0,-4.0774,-4.1337,0.0,-4.1461,-4.1688,-4.2053,-4.2548,-4.3108,-4.3703,-4.4395,-4.4699,-4.4804,-4.4661,-4.4303,-4.3944,-4.3618,-4.3428,-4.3542,-4.4035,-4.4451,-4.5095,-4.5947,-4.6501,-4.687,-4.7116,-4.7025,-4.6842,-4.6489,-4.5799,-4.5098,-4.4317,-4.3519,-4.3029,-4.2809,-4.2479,-4.223,-4.2013,-4.1666,-4.1425,-4.1049,-3.9853,-3.8649,-3.7605,-3.6987,-3.718,-3.7399,-3.6821,-3.7014,-3.7279,-3.7238,-3.7222,-3.7238,-3.7182,-3.6175,-3.5275,-3.5181,-3.4169,-3.3177,-3.2977,-3.2724,-3.2357,-3.1781,-3.1549,-3.1161,-3.0344,-2.9743,-2.9289,-2.8878,-2.8347,-2.789,-2.7524,-2.7372,-2.7063,-2.6486,-2.6096,-2.5701,-2.516,-2.4637,-2.4026,-2.3334,-2.2464,-2.1565,-2.0652,-1.9715,-1.9054,0.0,0.0,0.0,0.0,0.0,0.0,0.0,0.0,0.0,0.0,0.0,0.0,0.0,0.0,0.0,0.0,0.0,0.0,0.0,0.0,0.0,0.0,0.0,0.0,0.0,-4.08,-4.1688,-4.2831,-4.3141,-4.3315,-4.3483,-4.3434,-4.3599,-4.406,-4.4395,-4.4724,-4.5097,-4.5097,-4.4887,-4.4531,-4.4083,-4.3738,-4.3393,-4.3251,-4.3378,-4.383,-4.3987,-4.4538,-4.5402,-4.5893,-4.6283,-4.656,-4.6781,-4.6637,-4.6332,-4.6154,-4.5608,-4.4852,-4.4096,-4.3683,-4.3422,-4.3119,-4.2863,-4.2585,-4.2154,-4.1551,-4.0934,-4.017,-3.9185,-3.8197,-3.7544,-3.7737,-3.7953,-3.7431,-3.7508,-3.7817,-3.7743,-3.7685,-3.7621,-3.734,-3.6273,-3.53,-3.4967,-3.3842,-3.2812,-3.2773,-3.2812,-3.2656,-3.2082,-3.1844,-3.1413,-3.0548,-2.9787,-2.9182,-2.877,-2.803,-2.7386,-2.7078,-2.6907,-2.6578,-2.6056,-2.5729,-2.5328,-2.4878,-2.4421,-2.391,-2.339,-2.2501,-2.1752,-2.114,-1.9966,-1.9407,-1.9499,0.0,0.0,0.0,0.0,0.0,0.0,0.0,0.0,0.0,0.0,0.0,0.0,0.0,0.0,0.0,0.0,0.0,0.0,0.0,0.0,0.0,0.0,0.0,-4.0081,-4.2199,-4.3907,-4.4467,-4.5218,-4.5918,-4.6531,-4.649,-4.6405,-4.6268,-4.5463,-4.5004,-4.5004,-4.4881,-4.4391,-4.3552,-4.4198,-4.4108,-4.3214,-4.3123,-4.3012,-4.29,-4.3599,-4.3836,-4.3668,-4.5226,-4.5793,-4.5622,-4.6265,-4.6411,-4.6151,-4.5905,-4.5649,-4.5354,-4.523,-4.514,-4.4923,-4.4463,-4.4196,-4.3931,-4.3323,-4.2043,-4.0707,-4.0393,-3.9307,-3.8164,-3.7934,-3.7876,-3.7876,-3.786,-3.7759,-3.7642,-3.7417,-3.7298,-3.6961,-3.6201,-3.5424,-3.4706,-3.402,-3.3113,-3.2398,-3.2398,-3.2382,-3.2382,-3.2382,-3.2135,-3.1697,-3.0794,-3.0038,0.0,-2.8396,-2.7527,-2.6951,-2.6779,-2.6472,-2.619,-2.5893,-2.5453,-2.4991,-2.4523,-2.4099,-2.3582,-2.2909,-2.2543,-2.1933,-2.0946,-1.9867,-1.9565,-2.0129,0.0,0.0,0.0,0.0,0.0,0.0,0.0,0.0,0.0,0.0,0.0,0.0,0.0,0.0,0.0,0.0,0.0,0.0,0.0,0.0,0.0,-3.9531,-4.115,-4.1833,-4.2829,-4.395,-4.5209,-4.5361,-4.5642,-4.6434,-4.5857,-4.5404,-4.5352,-4.5063,-4.4847,-4.4779,-4.4709,-4.4509,-4.4181,-4.3743,-4.3341,-4.2975,-4.2936,-4.2822,-4.267,-4.2821,-4.3135,-4.359,-4.3911,-4.4254,-4.4706,-4.5364,-4.551,-4.5303,-4.5645,-4.5337,-4.463,-4.4934,-4.4852,-4.4631,-4.4253,-4.3531,-4.2598,-4.2419,-4.1173,-3.9602,-3.9543,-3.883,-3.7934,-3.7817,-3.7759,-3.77,-3.7433,-3.7373,-3.7314,-3.7165,-3.7105,-3.6888,-3.6141,-3.5264,-3.445,-3.3769,-3.2793,-3.2094,-3.1894,-3.1823,-3.1766,-3.1766,-3.1667,-3.1327,-3.0386,-2.9692,0.0,-2.7983,-2.7263,-2.6674,-2.6233,-2.6056,-2.577,-2.5286,-2.5061,-2.4721,-2.4216,-2.3819,-2.3343,-2.2909,-2.2359,-2.178,-2.1255,-2.1273,-2.1252,0.0,0.0,0.0,0.0,0.0,0.0,0.0,0.0,0.0,0.0,0.0,0.0,0.0,0.0,0.0,0.0,0.0,0.0,0.0,0.0,0.0,0.0,-3.9749,-4.1399,-4.2373,-4.334,-4.4315,-4.5421,-4.5339,-4.5514,-4.6301,-4.578,-4.5399,-4.5399,-4.4891,-4.4636,-4.4583,-4.4181,-4.3926,-4.3778,-4.3248,-4.2899,-4.2786,-4.2727,-4.2667,-4.2548,-4.2544,-4.2678,-4.2965,-4.322,-4.3456,-4.3756,-4.4505,-4.4589,-4.4335,-4.4672,-4.4335,0.0,0.0,0.0,0.0,0.0,-4.2452,-4.1622,-4.1579,-4.0502,-3.9178,-3.9135,-3.8552,-3.7817,-3.7642,-3.7583,-3.7449,-3.7254,-3.7134,-3.7089,-3.6923,-3.6862,-3.6628,-3.553,-3.4812,-3.4081,-3.3073,-3.2311,-3.1739,-3.161,-3.1437,0.0,-3.0776,-3.0847,-3.0671,-3.0015,-2.9122,-2.828,-2.7628,-2.6874,-2.6286,-2.5948,-2.5674,-2.5397,-2.5005,-2.4677,0.0,0.0,0.0,-2.3467,-2.314,-2.2631,0.0,0.0,0.0,-2.2018,-2.1898,0.0,0.0,0.0,-2.329,-2.3929,0.0,0.0,0.0,0.0,0.0,0.0,0.0,0.0,0.0,0.0,0.0,0.0,0.0,0.0,0.0,0.0,-3.9429,-4.0864,-4.2094,-4.3523,-4.4674,-4.5314,-4.5263,-4.5449,-4.6112,-4.5936,-4.5737,-4.5718,-4.4784,-4.418,-4.4126,0.0,0.0,0.0,0.0,-4.2436,-4.23,-4.23,-4.2332,-4.232,-4.232,-4.2274,-4.2121,-4.2832,-4.3022,-4.2837,-4.3613,-4.3717,-4.3402,-4.3489,-4.3111,-4.2655,-4.3405,-4.311,-4.2196,-4.1683,-4.1238,-4.0869,-4.0727,0.0,0.0,-3.8921,-3.8328,-3.7642,-3.7524,-3.7329,-3.7178,-3.7118,-3.7029,-3.6938,-3.6723,-3.66,-3.6152,-3.4559,-3.4088,-3.3691,-3.2255,-3.1682,-3.148,-3.1422,-3.1175,-3.0646,-2.9682,-2.9827,-2.9912,-2.9493,-2.8419,-2.7501,-2.7169,-2.6396,-2.5839,-2.5784,0.0,0.0,-2.4986,-2.4548,-2.419,-2.4025,-2.3914,-2.3759,-2.3471,-2.3127,-2.2674,-2.2204,-2.219,-2.2329,-2.2477,-2.2881,-2.3362,-2.3875,-2.3827,-2.4556,0.0,0.0,0.0,0.0,0.0,0.0,0.0,0.0,0.0,0.0,0.0,0.0,0.0,0.0,0.0,-3.9039,-4.031,-4.1304,-4.1336,-4.2574,-4.3943,-4.5239,-4.5203,-4.5266,-4.5901,-4.5297,-4.4821,-4.4693,-4.376,-4.2903,-4.225,-4.1901,-4.1427,-4.0796,-4.0796,-4.0703,-4.0572,-4.0572,-4.0874,-4.1381,0.0,0.0,-4.2103,-4.2214,-4.2157,-4.2044,-4.2765,-4.287,-4.2653,-4.3262,-4.2849,-4.1818,-4.2129,-4.2131,-4.1887,-4.1425,-4.0778,-4.0058,-3.9861,-3.9027,-3.8126,-3.8025,-3.7753,-3.7524,-3.7329,-3.7254,0.0,-3.6892,-3.6785,-3.6662,-3.6399,-3.5922,-3.5263,-3.4287,-3.3516,-3.2792,-3.179,-3.1437,-3.1219,-3.0866,-3.0324,-2.974,-2.936,-2.958,-2.9333,-2.7952,-2.7481,-2.6958,-2.6242,-2.5909,-2.5619,-2.523,-2.551,-2.5504,-2.4945,-2.5271,-2.5249,-2.4684,-2.4054,-2.3562,-2.327,-2.3271,-2.3083,-2.2648,-2.2956,-2.3191,-2.346,-2.3547,-2.4039,-2.4891,-2.5032,-2.5394,0.0,0.0,0.0,0.0,0.0,0.0,0.0,0.0,0.0,0.0,0.0,-3.7225,-3.7169,0.0,-3.9536,-3.9328,-4.0194,-4.096,-4.107,-4.1606,-4.251,-4.393,-4.4286,-4.446,-4.4636,-4.4199,-4.3689,-4.3215,-4.2575,-4.1884,-4.1071,-4.0942,-4.065,-4.0217,-4.0217,-4.0141,-3.9991,-3.9991,-4.0167,-4.0503,-4.0913,-4.1225,-4.1452,-4.1853,-4.1902,-4.171,-4.207,-4.2065,-4.1835,-4.1916,-4.1604,-4.1016,-4.0843,-4.0799,-4.0729,-4.0222,-3.9713,-3.929,-3.8983,-3.8412,-3.7876,-3.7759,-3.7599,-3.7464,-3.7254,-3.7134,-3.7029,-3.6785,-3.6585,-3.6322,-3.586,-3.54,-3.4836,-3.3667,-3.299,-3.2435,-3.1586,-3.1161,-3.0778,-3.022,-2.9724,-2.913,-2.8239,-2.8182,-2.8011,-2.7215,-2.6735,-2.63,-2.5661,-2.5453,-2.523,-2.4948,-2.4945,-2.4945,-2.4896,-2.5174,-2.5114,-2.4657,-2.4213,-2.3857,-2.37,-2.3684,-2.3451,-2.3089,-2.3176,-2.3466,-2.3733,-2.3984,-2.4476,-2.5175,-2.5508,-2.5864,0.0,0.0,0.0,0.0,0.0,0.0,0.0,-3.5638,-3.6402,-3.7274,-3.8161,-3.8722,-3.8656,-3.9302,-3.9788,-3.9592,-3.998,-4.0463,-4.0848,-4.0863,-4.1188,-4.2236,-4.2934,-4.3225,-4.2988,-4.283,-4.2449,-4.1705,-4.1469,-4.1015,-4.0203,-4.0094,-3.9966,-3.9675,-3.9675,-3.962,-3.945,-3.945,-3.9539,-3.97,-4.0342,-4.0615,-4.0589,-4.1403,-4.1629,-4.1394,-4.149,-4.1408,-4.1146,-4.071,-4.0485,-4.0436,-3.9918,-3.9677,-3.9625,-3.9023,-3.8805,-3.875,-3.8278,-3.8049,-3.7876,-3.77,-3.7583,-3.7405,-3.721,-3.7044,-3.6877,-3.6723,-3.6368,-3.589,-3.5278,-3.4836,-3.4273,-3.3035,-3.2466,-3.2079,-3.1338,-3.0866,-3.0379,-2.9682,-2.9186,-2.8464,-2.7102,-2.6694,-2.6624,-2.6624,-2.612,-2.5619,-2.523,-2.5005,-2.4835,-2.4677,-2.4379,-2.4424,-2.5013,-2.4887,-2.4735,-2.4638,-2.4422,-2.4272,-2.4177,-2.397,-2.3666,-2.3298,-2.3224,-2.3446,-2.3886,-2.429,-2.477,-2.5327,-2.571,-2.6146,-2.9715,-3.1019,-3.2537,-3.3722,-3.4734,-3.5648,0.0,-3.6943,-3.7294,-3.8171,-3.9048,-3.9622,-3.9565,-4.0148,-4.0632,-4.0559,-4.045,-4.0345,-4.0231,-4.0583,-4.0873,-4.0765,-4.1252,-4.1525,-4.1368,-4.1202,-4.101,-4.0833,-4.0655,-4.0185,-3.9373,-3.9284,-3.8906,-3.8186,-3.8133,-3.808,-3.7972,-3.7936,-3.8275,-3.8933,-3.9022,-3.9299,-3.9775,-4.0571,-4.08,-4.0639,-4.1066,-4.1255,-4.1146,-4.071,-4.0485,-4.0436,-3.9918,-3.9677,-3.9625,-3.9023,-3.8805,-3.8694,-3.8148,-3.7934,-3.7876,-3.7583,-3.7389,-3.721,-3.706,-3.6862,-3.6723,-3.6554,-3.5907,-3.5248,-3.5048,-3.4046,-3.29,-3.2467,-3.1886,-3.1308,-3.0776,-3.0642,-3.0259,-2.9194,-2.8418,-2.765,-2.6762,-2.6106,-2.5661,-2.5661,-2.5354,-2.5061,-2.5005,-2.465,-2.4305,-2.4171,-2.4424,-2.4844,-2.5454,-2.4939,-2.4731,-2.518,-2.4743,-2.436,-2.42,-2.3824,-2.353,-2.3298,-2.315,-2.346,-2.441,-2.4465,-2.4945,-2.5819,-2.5874,-2.599,-3.0982,-3.2027,-3.3053,-3.4634,-3.5398,-3.5868,-3.6312,-3.7202,-3.8054,-3.8414,-3.9608,-4.0538,-4.0468,-4.0688,-4.082,-4.0718,-4.0574,-4.0389,-4.0177,-4.0241,-4.0226,-3.9984,-4.0074,-4.0378,-4.1052,-4.1027,-4.0726,-4.0117,-3.9875,-3.9408,-3.8594,-3.8455,-3.8258,-3.7917,-3.7899,-3.7864,-3.781,-3.781,-3.7936,-3.8168,-3.8615,-3.8895,-3.9039,-3.978,-4.0235,-4.0516,-4.0986,-4.1209,-4.1146,-4.071,-4.0485,-4.0436,-3.9918,-3.9677,-3.9625,-3.9023,-3.8805,-3.8694,-3.8091,-3.7876,-3.7876,-3.7599,-3.7329,-3.7194,-3.706,-3.6582,-3.6074,-3.5815,-3.5156,-3.4364,-3.3879,-3.3126,-3.2378,-3.1857,-3.1309,-3.0807,-3.0628,-3.0326,-2.9768,-2.8502,-2.7931,-2.7251,-2.5992,-2.5451,-2.5188,-2.5075,-2.5018,-2.4892,-2.4505,-2.4332,-2.4028,-2.3569,-2.4007,-2.4343,-2.4455,-2.4474,-2.4608,-2.4802,-2.4478,-2.4189,-2.3897,-2.3604,-2.3298,-2.315,-2.3075,-2.3493,-2.4486,-2.4486,-2.4978,-2.5895,-2.5895,-2.599,-3.1661,-3.2517,-3.3243,-3.485,-3.5534,-3.5885,-3.6183,-3.7241,-3.8219,-3.8441,-3.9505,-4.044,-4.0604,-4.0595,-4.0604,-4.0729,-4.0649,-4.0496,-4.0321,-4.012,-3.9916,-3.9693,-3.9526,-3.9712,-4.0523,-4.0528,-4.0175,-3.9443,-3.9225,-3.8852,-3.8252,-3.8138,-3.8054,-3.8054,-3.8054,-3.8038,-3.8003,-3.7951,-3.7916,-3.7774,-3.8331,-3.8489,-3.8356,-3.8982,-3.9576,-4.02,-4.0672,-4.0913,-4.0885,-4.0625,-4.0485,-4.0436,-3.9918,-3.9677,-3.9625,-3.9023,-3.8805,-3.8694,-3.8091,-3.7876,-3.7876,-3.7599,-3.7345,-3.7118,-3.6841,-3.624,-3.5535,-3.5033,-3.4333,-3.359,-3.2884,-3.2392,-3.1901,-3.1279,-3.0866,-3.0568,-3.0462,-3.0068,-2.9332,-2.8001,-2.7513,-2.6934,-2.5379,-2.5005,-2.4892,-2.462,-2.4677,-2.462,-2.4171,-2.3936,-2.3628,-2.3078,-2.3331,-2.3477,-2.3484,-2.3867,-2.4117,-2.4163,-2.412,-2.397,-2.3519,-2.3298,-2.315,-2.2927,-2.2852,-2.3275,-2.4122,-2.4252,-2.474,-2.5532,-2.5746,-2.5822,-3.114,-3.2193,-3.3233,-3.4177,-3.5126,-3.604,-3.6941,-3.7203,-3.7488,-3.8318,-3.855,-3.8823,-3.9591,-3.974,-3.9996,-4.0762,-4.0773,-4.0642,-4.0504,-4.0321,-4.012,-3.9895,-3.9762,-3.9618,-3.9373,-3.9119,-3.8936,-3.8829,-3.8701,-3.8603,-3.8585,-3.8523,-3.8478,-3.8478,-3.8415,-3.8336,-3.8307,-3.8153,-3.8068,-3.7984,-3.7828,-3.7703,-3.7648,-3.8129,-3.8684,-3.935,-3.9905,-4.012,-4.0172,-4.0371,-4.0485,-4.0436,-3.9918,-3.9677,-3.9625,-3.9023,-3.8805,-3.8694,-3.8091,-3.7876,-3.7876,-3.7599,-3.7301,-3.6874,-3.6219,-3.5807,-3.5337,-3.4482,-3.3632,-3.2955,-3.2601,-3.1945,-3.1249,-3.0881,-3.0687,-3.0522,-3.0172,-2.9865,-2.9175,-2.7795,-2.7276,-2.6667,-2.5279,-2.4892,-2.4677,-2.4171,-2.4112,-2.4112,-2.4112,-2.3497,-2.3078,-2.2909,-2.2506,-2.2488,-2.2955,-2.2999,-2.3097,-2.3385,-2.3758,-2.3751,-2.3298,-2.315,-2.2927,-2.2703,-2.2553,-2.2647,-2.3136,-2.3605,-2.4062,-2.4519,-2.5249,-2.5644,-3.1395,-3.1929,-3.2571,-3.408,-3.4734,-3.522,-3.6091,-3.6742,-3.7274,-3.7578,-3.8102,-3.858,-3.8844,-3.9374,-3.9838,-4.0069,-4.0499,-4.0796,-4.0642,-4.0496,-4.0336,-4.0177,-4.006,-3.9897,-3.9717,-3.9376,-3.9129,-3.8989,-3.8931,-3.8873,-3.8873,-3.8785,-3.8743,-3.8713,-3.8102,-3.7766,-3.7648,-3.7598,-3.7453,-3.7275,-3.7558,-3.7667,-3.7612,-3.8167,-3.8523,-3.8667,-3.9163,-3.9364,-3.9338,-3.9066,-3.8965,-3.8935,-3.8403,-3.8221,-3.8171,-3.7607,-3.7396,-3.7474,-3.7769,-3.7876,-3.7801,-3.7449,-3.6852,-3.6282,-3.5913,-3.4963,-3.3885,-3.3495,-3.2846,-3.2116,-3.178,-3.1456,-3.1073,-3.0762,-3.0462,-3.0172,-2.9851,-2.9602,-2.9052,-2.7525,-2.7037,-2.6476,-2.5094,-2.4563,-2.4171,-2.37,-2.3641,-2.3582,-2.3437,-2.315,-2.2848,-2.2494,-2.2309,-2.2277,-2.248,-2.2643,-2.2868,-2.3185,-2.3397,-2.3372,-2.3075,-2.2927,-2.2703,-2.2478,-2.2402,-2.2637,-2.3115,-2.3275,-2.3583,-2.403,-2.4591,-2.4898,-3.1128,-3.1629,-3.2139,-3.3328,-3.3876,-3.4268,-3.4788,-3.5373,-3.5807,-3.583,-3.6533,-3.7234,-3.7542,-3.8319,-3.9091,-3.9658,-4.0156,-4.0535,-4.0731,-4.0687,-4.0554,-4.0422,-4.0321,-4.0177,-4.002,-3.9769,-3.9513,-3.9298,-3.9219,-3.9192,-3.9192,-3.9129,-3.9045,-3.896,-3.8118,-3.7608,-3.747,-3.7118,-3.6936,-3.691,-3.7248,-3.747,-3.7594,-3.798,-3.8058,-3.788,-3.845,-3.8632,-3.8581,-3.8339,-3.8259,-3.8167,-3.7663,-3.7484,-3.7435,-3.6882,-3.6692,-3.6803,-3.7319,-3.739,-3.71,-3.6916,-3.6244,-3.5549,-3.5109,-3.4121,-3.3154,-3.2752,-3.2201,-3.164,-3.1292,-3.1073,-3.0821,-3.0568,-3.0219,-2.9865,-2.9665,-2.9352,-2.874,-2.7283,-2.6856,-2.6236,-2.482,-2.4157,-2.37,-2.333,-2.3271,-2.315,-2.3017,-2.2787,-2.2543,-2.2247,-2.2061,-2.1867,-2.1835,-2.2271,-2.2594,-2.2644,-2.3006,-2.3075,-2.2927,-2.2628,-2.2402,-2.2327,-2.2252,-2.2324,-2.2629,-2.2797,-2.3029,-2.3324,-2.4037,-2.4426,-3.0451,-3.1307,-3.1942,-3.1999,-3.2613,-3.325,-3.3284,-3.3291,-3.3329,-3.3385,-3.4059,-3.4895,-3.5779,-3.665,-3.7784,-3.9451,-3.9724,-3.9984,-4.0797,-4.0849,-4.0765,-4.0629,-4.0564,-4.0438,-4.0232,-4.0233,-4.0061,-3.9651,-3.9556,-3.9526,-3.9526,-3.9477,-3.9401,-3.9324,-3.8425,-3.7891,-3.7748,-3.6731,-3.6454,-3.687,-3.6837,-3.7086,-3.7559,-3.7559,-3.7376,-3.7143,-3.7765,-3.7936,-3.7773,-3.8136,-3.8203,-3.8048,-3.7545,-3.7367,-3.7318,-3.6783,-3.6577,-3.6623,-3.6748,-3.635,-3.5863,-3.6064,-3.5524,-3.4665,-3.3913,-3.3413,-3.2959,-3.2163,-3.1739,-3.1437,-3.1132,-3.0821,-3.0507,-3.0326,-2.9898,-2.9602,-2.954,-2.9135,-2.8384,-2.706,-2.6634,-2.5955,-2.4367,-2.37,-2.3343,-2.3138,-2.2969,-2.2848,-2.2848,-2.2494,-2.2197,-2.2185,-2.1726,-2.1336,-2.1221,-2.1888,-2.2183,-2.1838,-2.2539,-2.2927,-2.2703,-2.2327,-2.2101,-2.2101,-2.1883,-2.1807,-2.1807,-2.2242,-2.2459,-2.248,-2.3625,-2.4147,-3.0524,-3.0934,-3.1242,-3.1857,-3.2175,-3.25,-3.3148,-3.3303,-3.3317,-3.3392,-3.3571,-3.3997,-3.4863,-3.5742,-3.6875,-3.8555,-3.9353,-4.0062,-4.0855,-4.0967,-4.0926,-4.084,-4.0757,-4.0681,-4.0582,-4.0485,-4.0372,-4.0267,-4.0003,-3.9857,-3.987,-3.9848,-3.9781,-3.958,-3.8225,-3.7376,-3.7138,-3.5964,-3.5744,-3.6376,-3.6131,-3.6389,-3.7066,-3.6826,-3.6915,-3.7317,-3.7298,-3.7166,-3.6956,-3.6861,-3.6715,-3.6495,-3.6089,-3.592,-3.5813,-3.5251,-3.5054,-3.5052,-3.5198,-3.5518,-3.5728,-3.5341,-3.4748,-3.4042,-3.349,-3.2848,-3.2194,-3.1784,-3.1495,-3.1278,-3.0821,-3.0642,-3.0447,-2.9898,-2.9665,-2.9477,-2.9099,-2.8474,-2.774,-2.6837,-2.5628,-2.4465,-2.3692,-2.333,-2.3138,-2.2969,-2.2604,-2.2371,-2.2371,-2.2247,-2.2061,-2.1663,-2.1411,-2.1158,-2.0967,-2.1543,-2.1838,-2.1559,-2.232,-2.2628,-2.2252,-2.2176,-2.2035,-2.1883,-2.1807,-2.1807,-2.1807,-2.1921,-2.1983,-2.1994,-2.2652,-2.3109,-2.996,-3.0517,-3.0908,-3.1367,-3.1466,-3.1607,-3.2088,-3.2206,-3.2214,-3.2243,-3.2552,-3.3086,-3.3932,-3.4803,-3.6069,-3.8115,-3.8893,-3.9647,-4.0877,-4.1038,-4.1159,-4.1468,-4.1474,-4.1432,-4.1361,-4.1292,-4.1081,-4.066,-4.0317,-4.012,-4.0119,-4.0138,-4.0039,-3.987,-3.83,-3.6944,-3.5899,-3.5126,-3.5061,-3.5707,-3.5506,-3.5745,-3.6367,-3.6155,-3.6201,-3.6417,0.0,-3.5969,-3.5732,-3.5844,-3.5734,-3.5531,-3.5487,-3.5412,-3.5245,-3.4739,-3.4546,-3.4464,-3.4314,-3.4505,-3.4727,-3.4516,-3.4004,-3.3388,-3.2926,-3.2383,-3.1925,-3.161,-3.1336,-3.1117,-3.0702,-3.0522,-3.028,-2.9727,-2.9477,-2.9289,-2.878,-2.8112,-2.7247,-2.6108,-2.4786,-2.37,-2.333,-2.315,-2.2909,-2.2616,-2.2371,-2.2123,-2.1862,-2.1862,-2.1726,-2.1336,-2.1158,-2.0967,-2.0711,-2.1284,-2.1629,-2.1431,-2.2039,-2.2327,-2.2101,-2.1949,-2.1807,-2.1655,-2.1578,-2.1512,-2.1512,-2.1512,-2.1512,-2.1512,-2.205,-2.2408,-2.9071,-2.9879,-3.0487,-3.0609,-3.0629,-3.0654,-3.0771,-3.0798,-3.0796,-3.0797,-3.1386,-3.2196,-3.3115,-3.3907,-3.5293,-3.7942,-3.8438,-3.9095,-4.0843,-4.1093,-4.14,-4.2213,-4.2203,-4.2163,-4.2233,-4.211,-4.1704,-4.0884,-4.0549,-4.0367,-4.0341,-4.0341,-4.0174,-3.9814,-3.8366,-3.6634,-3.4645,-3.445,-3.455,-3.4989,-3.4908,-3.5133,-3.5597,-3.5521,-3.5382,-3.5221,-3.5084,0.0,-3.4539,-3.5009,-3.5025,-3.4797,-3.5169,-3.52,-3.4961,-3.4554,-3.4315,-3.4121,-3.3625,-3.332,-3.3308,-3.367,-3.3365,-3.2773,-3.2318,-3.2038,-3.1868,-3.1552,-3.1219,-3.0955,-3.0642,-3.028,-2.9927,-2.9602,-2.9219,-2.8848,-2.8542,-2.7759,-2.6703,-2.5053,-2.3974,-2.3271,-2.3078,-2.2909,-2.2678,-2.2247,-2.2123,-2.1925,-2.1463,-2.14,-2.1336,-2.1158,-2.0967,-2.0711,-2.0399,-2.1013,-2.1361,-2.1231,-2.1745,-2.2025,-2.2025,-2.1655,-2.1436,-2.1436,-2.1282,-2.1205,-2.1205,-2.1205,-2.1205,-2.1215,-2.1607,-2.1819,-2.8182,-2.8454,-2.882,-2.955,-2.9737,-2.9904,-3.0648,-3.0792,-3.0799,-3.0798,-3.0877,-3.1406,-3.2941,-3.3327,-3.4517,-3.778,-3.8366,-3.9033,-4.076,-4.1066,-4.1411,-4.2283,-4.1754,-4.1582,-4.2303,-4.1655,-4.1142,-4.0979,-4.0867,-4.0726,-4.0559,-4.0545,-3.9819,-3.8242,-3.7812,-3.6692,-3.4772,-3.4626,-3.4525,-3.4444,-3.4201,-3.4458,-3.5107,-3.4879,-3.5024,-3.5442,-3.517,0.0,-3.4598,-3.4568,-3.4384,-3.4065,-3.3972,-3.3769,-3.3439,-3.3032,-3.2804,-3.2698,-3.2144,-3.1868,-3.1926,-3.277,-3.2811,-3.2413,-3.215,-3.1796,-3.1552,-3.1234,-3.0955,-3.0642,-3.028,-2.9927,-2.9602,-2.9289,-2.8573,-2.789,-2.7728,-2.6507,-2.5066,-2.3717,-2.3261,-2.3078,-2.28,-2.2494,-2.2309,-2.2197,-2.1788,-2.1463,-2.1285,-2.1221,-2.1158,-2.0967,-2.0495,-2.0237,-2.0172,-2.0741,-2.1009,-2.0857,-2.1438,-2.1807,-2.1578,-2.1359,-2.1282,-2.1282,-2.1205,-2.1205,-2.1205,-2.1205,-2.1205,-2.1205,-2.1286,-2.1527,-2.7843,-2.8022,-2.8264,-2.8713,-2.9158,-2.9609,-3.0039,-3.0468,-3.0795,-3.0757,-3.072,-3.1209,-3.2862,-3.316,-3.411,-3.7082,-3.7987,-3.8753,-4.0088,-4.0721,-4.1364,-4.2236,-4.2004,-4.1933,-4.2358,-4.1997,-4.153,-4.11,-4.1017,-4.0918,-4.0711,-4.0217,-3.9311,-3.7943,-3.734,-3.6365,-3.4964,-3.4791,-3.4607,-3.4386,-3.4197,-3.4227,-3.4403,-3.4189,-3.4202,-3.438,-3.4074,0.0,-3.3565,-3.3735,-3.3647,-3.3412,-3.3584,-3.3448,-3.3108,-3.2741,-3.2533,-3.2321,-3.179,-3.1453,-3.1318,-3.1587,-3.1774,-3.182,-3.1576,-3.1468,-3.1437,-3.1058,-3.0762,-3.0447,-2.9974,-2.9501,-2.9002,-2.8491,-2.7512,-2.6614,-2.6286,-2.5279,-2.4234,-2.3299,-2.2957,-2.2787,-2.2494,-2.2309,-2.2157,-2.2039,-2.1806,-2.164,-2.1652,-2.1327,-2.0927,-2.0529,-2.0226,-2.0042,-1.9857,-2.0466,-2.0797,-2.0563,-2.1215,-2.1578,-2.1359,-2.1128,-2.1051,-2.1051,-2.0974,-2.0886,-2.0886,-2.0886,-2.0886,-2.0886,-2.0886,-2.1005,-2.7528,-2.7621,-2.7802,-2.7872,-2.8437,-2.9045,-2.9402,-3.0018,-3.0547,-3.0667,-3.0678,-3.1173,-3.2764,-3.3051,-3.3886,-3.6446,-3.7595,-3.8485,-3.9451,-4.0362,-4.1291,-4.2167,-4.2173,-4.2181,-4.2379,-4.2225,-4.1836,-4.1142,-4.0932,-4.0744,-4.0568,-3.9789,-3.8859,-3.7797,-3.6983,-3.6099,-3.5164,-3.4964,-3.4752,-3.4561,-3.4409,-3.4221,-3.3947,-3.3753,-3.3577,-3.3404,-3.2924,0.0,0.0,-3.2529,-3.2524,-3.249,-3.2882,-3.2887,-3.2706,-3.239,-3.2116,-3.1863,-3.137,-3.1007,-3.0667,-3.027,-3.0572,-3.1075,-3.0782,-3.0839,-3.0904,-3.0456,-3.0235,-2.9923,-2.9393,-2.8797,-2.821,-2.7387,-2.6427,-2.5458,-2.4836,-2.4221,-2.3653,-2.3105,-2.2787,-2.2494,-2.2185,-2.2061,-2.1989,-2.1912,-2.1861,-2.1844,-2.1989,-2.1437,-2.0782,-2.0324,-2.003,-1.9791,-1.9539,-2.018,-2.0492,-2.0288,-2.1002,-2.1282,-2.1128,-2.0906,-2.0741,-2.0741,-2.0576,-2.0411,-2.0411,-2.0411,-2.0411,-2.0411,-2.0411,-2.0411,-2.6778,-2.6581,-2.6768,-2.6903,-2.7036,-2.7542,-2.9054,-2.9513,-2.9805,-3.0477,-3.0607,-3.1081,-3.2636,-3.2928,-3.375,-3.6304,-3.7448,-3.8363,-3.9371,-4.0272,-4.115,-4.2108,-4.1563,-4.1454,-4.2314,-4.169,-4.1197,-4.111,-4.0365,-3.9887,-3.9801,-3.9607,-3.8728,-3.7046,-3.6852,-3.6291,-3.5296,-3.5145,-3.4983,-3.4768,-3.4561,-3.4363,-3.4173,-3.3972,-3.378,-3.3522,-3.2444,-3.187,0.0,-3.068,-3.0574,-3.0974,-3.0846,-3.0976,-3.1177,-3.0974,-3.0683,-3.0359,-3.0008,-2.9603,-2.9234,-2.8903,-2.9392,-3.0084,-2.9831,-2.9535,-2.9289,-2.8968,-2.867,-2.8325,-2.8048,-2.7726,-2.7116,-2.5901,-2.5321,-2.4823,-2.394,-2.3454,-2.308,-2.2812,-2.2494,-2.2185,-2.1937,-2.1549,-2.1406,-2.1847,-2.1608,-2.1442,-2.1563,-2.1527,-2.1263,-2.072,-1.9902,-1.9341,-1.9142,-1.9764,-2.0083,-1.9959,-2.0572,-2.0984,-2.0906,-2.0586,-2.0342,-2.0342,-2.0108,-1.9942,-1.9942,-1.9942,-1.9942,-1.9942,-1.9942,-1.9942,-2.7865,-2.7146,-2.6554,-2.6655,-2.7147,-2.7789,-2.8405,-2.9389,-3.0222,-3.0496,-3.0936,-3.1598,-3.2704,-3.3307,-3.4112,-3.5609,-3.7051,-3.8147,-3.8535,-3.9837,-4.0889,-4.1313,-4.1111,-4.1104,-4.1526,-4.1245,-4.0836,-4.034,-3.9512,-3.8795,-3.8272,-3.8135,-3.7725,-3.6978,-3.6397,-3.5849,-3.5374,-3.5258,-3.5127,-3.4908,-3.4221,-3.3789,-3.3571,-3.2852,-3.2433,-3.2253,-3.1628,-3.1258,0.0,-3.0411,-3.0197,-3.0245,-2.9954,-2.9858,-2.9816,-2.9493,-2.9218,-2.8952,-2.8521,-2.8407,-2.8383,-2.7938,-2.8217,-2.8716,-2.8914,-2.8966,-2.8931,-2.8595,-2.8254,-2.7879,-2.7586,-2.6836,-2.588,-2.4879,-2.438,-2.4017,-2.3428,-2.309,-2.28,-2.2432,-2.2185,-2.1925,-2.1549,-2.1348,-2.1369,-2.1778,-2.1629,-2.1629,-2.219,-2.1667,-2.1197,-2.098,-2.0336,-1.9893,-1.9754,-2.0124,-2.027,-2.0058,-2.0483,-2.0664,-2.0508,-2.0264,-2.002,-2.002,-1.9942,-1.9863,-1.9863,-1.9863,-1.9863,-1.9863,-1.9863,-1.9863,-2.8717,-2.7973,-2.7179,-2.6996,-2.7498,-2.8089,-2.831,-2.9298,-3.0306,-3.0733,-3.1287,-3.1999,-3.3025,-3.3681,-3.4342,-3.517,-3.6799,-3.7978,-3.8007,-3.9532,-4.0707,-4.0757,-4.0807,-4.0869,-4.0952,-4.0772,-4.0198,-3.9117,-3.8472,-3.7793,-3.6964,-3.6806,-3.6701,-3.6653,-3.5969,-3.5581,-3.5432,-3.5115,-3.4846,-3.4658,-3.3658,-3.3088,-3.2882,-3.2065,-3.1597,-3.1427,-3.0909,-3.0586,0.0,-2.9852,-2.9603,-2.9525,-2.923,-2.9213,-2.9289,-2.8958,-2.8605,-2.8211,-2.7826,-2.7758,-2.7766,-2.7395,-2.7468,-2.7765,-2.7838,-2.8021,-2.8196,-2.7849,-2.7357,-2.6926,-2.6693,-2.5851,-2.4846,-2.4275,-2.3747,-2.3378,-2.3138,-2.2787,-2.2494,-2.2259,-2.1937,-2.1612,-2.1296,-2.1031,-2.1057,-2.1426,-2.1403,-2.1582,-2.2168,-2.1659,-2.1246,-2.1172,-2.0726,-2.0285,-1.9959,-2.0206,-2.0232,-2.0017,-2.0255,-2.0333,-2.0186,-1.9951,-1.9794,-1.9794,-1.9706,-1.9627,-1.9627,-1.9548,-1.9557,-1.9557,-1.9557,-1.9557,-2.8874,-2.8779,-2.8689,-2.7965,-2.7843,-2.8135,-2.8994,-2.9207,-2.966,-3.1249,-3.1602,-3.2084,-3.37,-3.3995,-3.4282,-3.5159,-3.6757,-3.7932,-3.7993,-3.9499,-4.0631,-4.0681,-4.0694,-4.0754,-4.0898,-4.0244,-3.9096,-3.7366,-3.7285,0.0,-3.605,-3.5949,-3.5885,-3.5807,-3.5735,-3.5639,-3.5495,-3.4576,-3.4029,-3.3903,-3.2893,-3.2335,-3.2202,-3.2002,-3.1808,-3.1537,-3.0485,-2.986,0.0,-2.8548,-2.8359,-2.869,-2.8548,-2.9093,-2.9877,-2.9729,-2.9135,-2.8366,-2.8152,-2.7798,-2.7375,-2.717,-2.735,-2.7428,-2.6361,-2.6389,-2.6741,-2.6247,-2.5578,-2.5032,-2.5018,-2.4576,-2.4125,-2.4112,-2.3569,-2.3078,-2.3078,-2.2604,-2.2197,-2.2197,-2.1675,-2.1233,-2.1221,-2.056,-2.0271,-2.0762,-2.0919,-2.1047,-2.1136,-2.1518,-2.1645,-2.1282,-2.0876,-2.0291,-1.9687,-1.9762,-1.9837,-1.963,-1.9792,-1.9942,-1.9863,-1.9715,-1.9566,-1.9566,-1.924,-1.9002,-1.9002,-1.8772,-1.87,-1.87,-1.87,-1.87,-2.9538,-2.9209,-2.8845,-2.8606,-2.8636,-2.8783,-2.901,-2.9514,-3.0275,-3.1367,-3.2037,-3.2737,-3.3785,-3.4458,-3.492,-3.5187,-3.669,-3.7868,-3.7932,-3.9435,-4.0554,-4.0612,-4.0192,-3.9909,-4.0005,-3.8766,-3.7748,-3.7244,-3.6715,-3.6021,-3.5155,-3.5093,-3.5045,-3.4982,-3.4909,-3.4563,-3.3935,-3.3547,-3.3275,-3.3149,-3.2118,-3.1553,-3.1356,-3.06,-3.0174,-2.9998,-2.9517,0.0,0.0,-2.8488,-2.8279,-2.8176,-2.7923,-2.7915,-2.8014,-2.769,-2.7217,-2.6714,-2.6367,-2.6422,-2.6545,-2.5885,-2.5727,-2.5756,-2.5385,-2.5828,-2.6312,-2.555,-2.5174,-2.4892,-2.4505,-2.4229,-2.3995,-2.3509,-2.3258,-2.3017,-2.2543,-2.2309,-2.2061,-2.1612,-2.136,-2.1031,-2.056,-2.0226,-2.0205,-2.0436,-2.0561,-2.074,-2.1062,-2.1055,-2.0954,-2.0809,-2.0411,-2.0149,-2.0272,-2.0053,-1.9898,-1.982,-1.9631,-1.946,-1.946,-1.9161,-1.9011,-1.9011,-1.8851,-1.8772,-1.8772,-1.87,-1.87,-1.87,-1.87,-1.87,-3.003,-2.963,-2.937,-2.9388,-2.9455,-2.9602,-2.9915,-3.0401,-3.1111,-3.2259,-3.29,-3.3498,-3.4305,-3.4863,-3.5305,-3.5649,-3.6903,-3.7948,-3.8287,-3.9596,-4.0423,-4.0179,-3.9754,-3.927,-3.8675,-3.7702,-3.6856,-3.6267,-3.5743,-3.509,-3.4253,-3.4218,-3.4049,-3.3676,-3.39,-3.3771,-3.3208,-3.2733,-3.2466,-3.2384,-3.1369,-3.0814,-3.0648,-2.9926,-2.9362,-2.8903,0.0,0.0,0.0,-2.7583,-2.7522,-2.7515,-2.718,-2.7134,-2.7175,-2.6742,-2.6142,-2.5562,-2.5239,-2.5298,-2.5441,-2.4704,-2.4432,-2.4432,-2.4488,-2.5052,-2.5516,-2.5106,-2.4835,-2.4563,-2.4099,-2.3865,-2.3569,-2.3017,-2.2836,-2.2665,-2.2185,-2.1937,-2.1675,-2.1285,-2.0967,-2.0635,-2.0172,-1.9911,-1.9756,-1.9864,-1.9893,-2.0053,-2.0356,-2.0351,-2.0304,-2.0313,-1.9942,-1.9784,-2.0089,-1.9854,-1.9696,-1.9696,-1.9311,-1.9073,-1.9073,-1.8851,-1.87,-1.87,-1.8531,-1.8451,-1.8451,-1.829,-1.821,-1.821,-1.821,-1.821,0.0,-3.0165,-3.0289,-3.0348,-3.0371,-3.059,-3.1473,-3.1678,0.0,-3.367,-3.3995,-3.4247,-3.5073,-3.5209,-3.5477,-3.6375,-3.728,-3.8188,-3.8977,-3.9865,-4.0154,-3.9474,-3.9348,-3.8706,-3.7152,-3.6948,-3.627,-3.4711,-3.454,-3.4167,-3.3354,-3.33,-3.2904,-3.2034,-3.2732,-3.3082,-3.3022,-3.2096,-3.1615,-3.1602,-3.0669,-3.0138,-2.9992,-2.9799,-2.9156,0.0,0.0,0.0,0.0,-2.6128,-2.629,-2.6692,-2.6347,-2.6671,-2.7228,-2.664,-2.5801,-2.4964,-2.4738,-2.4492,-2.4199,-2.3712,-2.351,-2.3444,-2.375,-2.4121,-2.4503,-2.4774,-2.4439,-2.4002,-2.378,-2.3424,-2.2957,-2.2641,-2.2359,-2.2123,-2.1925,-2.1486,-2.1158,-2.1094,-2.056,-2.0096,-2.0031,-1.9518,-1.9075,-1.9065,-1.9127,-1.9143,-1.917,-1.9525,-1.9802,-1.9778,-1.9413,-1.9195,-1.9222,-1.9222,-1.9222,-1.9222,-1.8851,-1.862,-1.862,-1.862,-1.862,-1.862,-1.821,-1.7959,-1.7959,-1.7554,-1.7392,-1.7392,-1.7392,-1.7392,-3.1826,0.0,-3.1958,-3.2007,-3.2038,-3.2123,0.0,-3.2435,-3.2737,-3.3781,-3.401,-3.4259,-3.5117,-3.5285,-3.5573,-3.6435,-3.7313,-3.8207,-3.9065,-3.94,-3.9538,-3.9417,-3.8247,-3.732,-3.7024,-3.5843,-3.4955,-3.4554,-3.4002,-3.3306,-3.2458,-3.2416,-3.2012,-3.1127,-3.1292,-3.1364,-3.13,-3.1006,-3.082,-3.0786,-3.0445,-2.9855,-2.9098,-2.8963,-2.8308,0.0,0.0,0.0,-2.6447,-2.6227,-2.6074,-2.5932,-2.5655,-2.6219,-2.708,-2.5982,-2.5421,-2.5227,-2.5048,-2.4672,-2.4158,-2.3317,-2.2888,-2.271,-2.2944,-2.3252,-2.362,-2.3752,-2.3533,-2.3251,-2.3263,-2.3005,-2.2653,-2.2359,-2.2049,-2.1726,-2.1411,-2.1158,-2.0828,-2.0431,-2.0226,-1.9977,-1.9386,-1.9198,-1.8942,-1.8539,-1.8636,-1.8672,-1.8627,-1.8569,-1.861,-1.896,-1.862,-1.8424,-1.8567,-1.8763,-1.8851,-1.8851,-1.8442,-1.8121,-1.8121,-1.7878,-1.7725,-1.7725,-1.7644,-1.7554,-1.7554,-1.7473,-1.731,-1.7139,-1.7139,-1.7057,-3.3429,-3.2976,-3.2495,-3.2547,-3.2578,-3.2721,-3.3137,-3.3264,-3.3544,-3.4416,-3.4604,-3.4753,-3.5205,-3.5641,-3.6178,-3.706,-3.792,-3.8661,-3.9189,-3.9296,-3.9037,-3.8298,-3.7372,-3.6542,-3.5871,-3.501,-3.4173,-3.3417,-3.2986,-3.2387,-3.1558,-3.1116,-3.0699,-3.0254,-2.9851,-2.9991,-3.0684,-3.0241,-2.9967,-2.9902,-2.9398,-2.8855,-2.8297,-2.812,-2.7493,0.0,0.0,0.0,-2.5413,-2.5165,-2.5093,-2.5123,-2.4777,-2.508,-2.5641,-2.5279,-2.4919,-2.4622,-2.4862,-2.4492,-2.3681,-2.2863,-2.2409,-2.2194,-2.2145,-2.2129,-2.2255,-2.2801,-2.2652,-2.228,-2.218,-2.1962,-2.1608,-2.1448,-2.126,-2.1058,-2.0858,-2.0646,-2.0431,-2.0053,-1.9791,-1.9518,-1.9131,-1.8808,-1.8472,-1.8202,-1.8056,-1.7989,-1.7967,-1.7833,-1.7759,-1.8015,-1.7905,-1.7865,-1.7845,-1.8026,-1.8129,-1.8201,-1.7959,-1.7716,-1.7716,-1.7473,-1.7139,-1.6976,-1.6976,-1.6894,-1.6828,-1.6828,-1.6738,-1.6656,-1.6656,-1.6574,-3.4788,-3.3847,-3.2876,-3.2874,-3.2925,-3.3182,-3.3922,-3.4162,-3.4419,-3.5159,-3.5308,-3.5324,-3.5335,-3.6021,-3.6903,-3.7766,-3.8642,-3.9246,-3.9296,-3.9065,-3.8383,-3.6967,-3.6563,-3.5886,-3.4536,-3.4216,-3.3507,-3.2093,-3.1754,-3.1309,-3.0637,-2.9776,-2.9326,-2.9392,-2.869,-2.8957,-3.0311,-2.9525,-2.9101,-2.9013,-2.821,-2.7716,-2.7504,-2.7319,-2.6703,-2.5812,0.0,0.0,-2.417,-2.3837,-2.3934,-2.4275,-2.3885,-2.3699,-2.3728,-2.4398,-2.4251,-2.3787,-2.4445,-2.4063,-2.3216,-2.2517,-2.2132,-2.1902,-2.1471,-2.1068,-2.0869,-2.1759,-2.1677,-2.1269,-2.1063,-2.0734,-2.0451,-2.0315,-2.0236,-2.0188,-2.0253,-2.0084,-1.989,-1.9781,-1.933,-1.8998,-1.8942,-1.8405,-1.794,-1.7872,-1.7451,-1.7158,-1.7286,-1.7126,-1.6998,-1.709,-1.7183,-1.7191,-1.7083,-1.7136,-1.7326,-1.7456,-1.7383,-1.7229,-1.7229,-1.7066,-1.673,-1.6402,-1.6312,-1.6245,-1.6087,-1.6087,-1.6004,-1.6004,-1.5869,-1.5846,-3.4788,-3.4679,-3.4567,-3.4603,-3.4658,-3.4767,-3.4971,-3.5057,-3.5139,-3.5266,-3.535,-3.5398,-3.546,-3.6133,-3.6974,-3.7839,-3.8723,-3.9296,-3.9296,-3.8027,-3.7035,-3.6832,-3.554,-3.4612,-3.4408,-3.3122,-3.2182,-3.1937,-3.0598,-2.9771,-2.9698,-2.8868,-2.8427,-2.8507,-2.8379,-2.8393,-2.8583,-2.8447,-2.834,-2.826,-2.801,-2.7448,-2.6677,-2.6466,-2.5878,-2.4964,0.0,-2.445,-2.417,-2.3837,-2.3607,-2.3466,-2.3101,-2.2716,-2.2435,-2.2894,-2.327,-2.3569,-2.3979,-2.3754,-2.3231,-2.2709,-2.2217,-2.1746,-2.1229,-2.0686,-2.0258,-2.0219,-2.0307,-2.0453,-2.0625,-2.0274,-1.9842,-1.9805,-1.94,-1.9061,-1.9493,-1.9222,-1.8944,-1.9201,-1.8854,-1.8519,-1.8202,-1.792,-1.7579,-1.7116,-1.6978,-1.6788,-1.6351,-1.6157,-1.6091,-1.6232,-1.6112,-1.6178,-1.6316,-1.6333,-1.6332,-1.6312,-1.6656,-1.6656,-1.6335,-1.6252,-1.6252,-1.617,-1.617,-1.617,-1.6087,-1.5914,-1.565,-1.5477,-1.5049,-1.4763,-3.4768,-3.4809,-3.4849,-3.4946,-3.502,-3.5111,-3.5147,-3.5231,-3.5293,-3.53,-3.5364,-3.5427,-3.5482,-3.654,-3.77,-3.8565,-3.8642,-3.843,-3.7969,-3.7219,-3.6386,-3.5496,-3.4718,-3.3921,-3.3089,-3.229,-3.1468,-3.0557,-2.9811,-2.9221,-2.8765,-2.7955,-2.75,-2.7549,-2.712,-2.6875,-2.685,-2.6841,-2.7041,-2.7381,-2.6818,-2.6294,-2.5847,-2.5647,-2.5286,-2.4791,0.0,-2.4375,-2.417,-2.3795,-2.3513,-2.3265,-2.2893,-2.2487,-2.2111,-2.2231,-2.2766,-2.342,-2.3299,-2.3182,-2.2994,-2.2555,-2.2091,-2.1602,-2.1068,-2.0573,-2.0131,-1.972,-1.9592,-1.957,-1.9538,-1.9165,-1.8851,-1.8767,-1.853,-1.8365,-1.8486,-1.8354,-1.8238,-1.8283,-1.8111,-1.7858,-1.7687,-1.7451,-1.7166,-1.676,-1.6491,-1.6219,-1.6,-1.5584,-1.5287,-1.5299,-1.5275,-1.53,-1.5304,-1.5599,-1.5794,-1.6072,-1.6162,-1.6064,-1.5741,-1.5582,-1.5499,-1.5325,-1.5325,-1.5245,-1.5153,-1.4981,-1.4813,-1.456,-1.4344,-1.42,-3.4768,-3.4788,-3.4829,-3.4908,-3.502,-3.5092,-3.5092,-3.5212,-3.5289,-3.53,-3.5379,-3.5435,-3.5502,-3.6708,-3.8003,-3.8854,-3.8257,-3.7469,-3.6796,-3.6372,-3.5636,-3.4347,-3.3846,-3.3145,-3.1926,-3.1428,-3.0656,-2.9361,-2.8958,-2.848,-2.7822,-2.7023,-2.6607,-2.6599,-2.6005,-2.5693,-2.5703,-2.5696,-2.5974,-2.6512,-2.5762,-2.5376,-2.5283,-2.5103,-2.4947,-2.4802,-2.4578,-2.4393,-2.4171,-2.3777,-2.3491,-2.3265,-2.285,-2.2409,-2.1949,-2.1906,-2.2399,-2.3086,-2.2705,-2.27,-2.2754,-2.231,-2.1841,-2.1361,-2.0809,-2.0372,-1.9978,-1.9473,-1.9105,-1.8786,-1.8572,-1.8193,-1.7912,-1.7829,-1.7745,-1.7642,-1.7643,-1.7492,-1.7378,-1.7432,-1.7295,-1.7149,-1.7116,-1.6913,-1.6621,-1.6473,-1.6,-1.5655,-1.5513,-1.5158,-1.4721,-1.4497,-1.4595,-1.4567,-1.4411,-1.4729,-1.5167,-1.5509,-1.5493,-1.5401,-1.5228,-1.5075,-1.488,-1.4545,-1.4545,-1.4392,-1.4093,-1.4012,-1.3888,-1.3666,-1.3519,-1.3491,-3.4768,-3.4788,-3.4829,-3.4964,-3.5057,-3.5092,-3.5092,-3.5209,-3.53,-3.53,-3.5402,-3.5483,-3.5502,-3.6254,-3.7165,-3.795,-3.7353,-3.6776,-3.6719,-3.5353,-3.4327,-3.4212,-3.2825,-3.1854,-3.181,-3.0335,-2.9332,-2.9216,-2.7767,-2.69,-2.6885,-2.612,-2.5682,-2.5687,-2.5697,-2.5705,-2.57,-2.5703,-2.5703,-2.5678,-2.555,-2.5441,-2.5312,-2.5152,-2.5019,-2.487,-2.461,-2.4392,-2.4173,-2.3819,-2.3535,-2.3265,-2.2944,-2.2281,-2.1575,-2.1722,-2.2025,-2.2301,-2.2535,-2.2657,-2.2663,-2.217,-2.1568,-2.0934,-2.0435,-1.9965,-1.9565,-1.9146,-1.8732,-1.8422,-1.8193,-1.7767,-1.7345,-1.7378,-1.6938,-1.6607,-1.6995,-1.6598,-1.6363,-1.6796,-1.6571,-1.6398,-1.6358,-1.6249,-1.607,-1.5867,-1.5655,-1.5284,-1.4784,-1.4641,-1.4497,-1.4201,-1.395,-1.3873,-1.3802,-1.3903,-1.3952,-1.3808,-1.4426,-1.4734,-1.4734,-1.4734,-1.4518,-1.4069,-1.4069,-1.3837,-1.3378,-1.3134,-1.2962,-1.2936,-1.2531,-1.2344,-3.4768,-3.4848,-3.4868,-3.4983,-3.5057,-3.511,-3.5143,-3.5223,-3.5315,-3.5364,-3.5449,-3.5656,-3.6215,-3.617,-3.6305,-3.707,-3.6464,-3.5696,-3.5149,-3.4534,-3.3761,-3.2718,-3.2026,-3.1219,-3.0167,-2.9506,-2.8709,-2.7652,-2.6998,-2.6455,-2.6002,-2.5696,-2.5564,-2.5604,-2.5089,-2.4852,-2.4883,-2.4354,-2.4076,-2.4066,-2.5026,-2.5446,-2.5354,-2.5215,-2.5068,-2.4893,-2.4704,-2.4461,-2.4173,-2.3878,-2.3598,-2.3223,-2.2554,-2.1969,-2.1481,-2.1244,-2.131,-2.1561,-2.1774,-2.1927,-2.1981,-2.1918,-2.1471,-2.0885,-2.0385,-1.9875,-1.9356,-1.8881,-1.8356,-1.7931,-1.7865,-1.7601,-1.7222,-1.6828,-1.6545,-1.63,-1.6046,-1.5772,-1.5602,-1.5737,-1.5577,-1.5377,-1.5292,-1.5451,-1.5429,-1.5022,-1.4931,-1.4856,-1.4497,-1.4145,-1.3855,-1.3702,-1.3339,-1.31,-1.3106,-1.3083,-1.2993,-1.2949,-1.3474,-1.3676,-1.3588,-1.3439,-1.3319,-1.3126,-1.312,-1.2982,-1.2622,-1.2369,-1.2196,-1.1942,-1.1696,-1.1501,-3.481,-3.4868,-3.4927,-3.5039,-3.511,-3.5162,-3.5226,-3.527,-3.533,-3.5412,-3.5476,-3.5714,-3.6305,-3.5952,-3.5714,-3.6181,-3.5537,-3.474,-3.4155,-3.358,-3.2814,-3.1665,-3.1071,-3.0286,-2.9079,-2.8548,-2.7796,-2.6636,-2.6332,-2.5976,-2.5462,-2.5197,-2.5089,-2.5156,-2.4335,-2.393,-2.399,-2.3392,-2.3105,-2.3113,-2.4226,-2.4709,-2.4614,-2.4485,-2.4484,-2.4536,-2.4369,-2.4286,-2.4229,-2.3959,-2.3576,-2.3102,-2.2292,-2.1794,-2.1433,-2.0958,-2.0903,-2.1122,-2.1297,-2.1451,-2.1549,-2.1647,-2.1264,-2.0686,-2.0131,-1.9617,-1.9105,-1.8572,-1.803,-1.759,-1.7423,-1.7211,-1.6885,-1.6488,-1.6259,-1.5961,-1.5478,-1.5177,-1.4909,-1.4784,-1.4701,-1.4612,-1.4418,-1.4579,-1.4604,-1.4308,-1.4253,-1.4157,-1.4129,-1.371,-1.3346,-1.3119,-1.2673,-1.2385,-1.2434,-1.2303,-1.2158,-1.2129,-1.2363,-1.2518,-1.2698,-1.2565,-1.2447,-1.2195,-1.2195,-1.1986,-1.1637,-1.1548,-1.1368,-1.1111,-1.0887,-1.0812,-3.487,-3.4889,-3.4945,-3.5147,-3.5196,-3.5226,-3.5285,-3.5315,-3.533,-3.5474,-3.5547,-3.5589,-3.5604,-3.5547,-3.5457,-3.5311,-3.4557,-3.3995,-3.3983,-3.2492,-3.1384,-3.1384,-2.9912,-2.8886,-2.888,-2.7433,-2.6481,-2.6481,-2.574,-2.5302,-2.5284,-2.4529,-2.413,-2.4187,-2.3406,-2.303,-2.3093,-2.3074,-2.3085,-2.3082,-2.3071,-2.3014,-2.2905,-2.2819,-2.3149,-2.3771,-2.3503,-2.3774,-2.4353,-2.4039,-2.3491,-2.2825,-2.2226,-2.1794,-2.1432,-2.0909,-2.086,-2.1127,-2.1268,-2.1339,-2.14,-2.1411,-2.0921,-2.0271,-1.9617,-1.9105,-1.8691,-1.8247,-1.781,-1.7412,-1.6931,-1.6591,-1.6374,-1.6374,-1.5894,-1.5352,-1.5235,-1.4815,-1.441,-1.407,-1.4074,-1.4021,-1.3823,-1.3672,-1.3696,-1.4053,-1.3638,-1.3346,-1.3455,-1.3346,-1.2973,-1.2378,-1.2077,-1.1929,-1.1706,-1.1484,-1.1335,-1.1111,-1.0887,-1.1206,-1.2221,-1.2246,-1.1952,-1.1283,-1.1278,-1.0994,-1.0513,-1.0513,-1.0513,-1.0513,-1.0293,-1.0218,-3.4964,-3.4982,-3.5072,-3.5176,-3.5245,-3.5293,-3.535,-3.5412,-3.5474,-3.556,-3.5584,-3.5604,-3.5604,-3.5541,-3.5249,-3.4515,-3.4133,-3.3497,-3.2273,-3.1632,-3.0817,-2.9639,-2.9068,-2.8308,-2.7129,-2.6605,-2.6117,-2.5494,-2.5306,-2.4979,-2.4418,-2.4206,-2.3843,-2.3306,-2.2501,-2.2129,-2.2181,-2.1589,-2.1261,-2.1269,-2.1279,-2.1873,-2.2978,-2.2856,-2.2863,-2.2939,-2.2729,-2.2978,-2.3558,-2.3601,-2.3324,-2.285,-2.2292,-2.1836,-2.1432,-2.0909,-2.0547,-2.0409,-2.0866,-2.0784,-2.0573,-2.1002,-2.0736,-2.0131,-1.9577,-1.9052,-1.8518,-1.7975,-1.7423,-1.692,-1.6602,-1.6124,-1.571,-1.571,-1.5468,-1.5177,-1.4765,-1.435,-1.3941,-1.37,-1.3369,-1.3145,-1.2959,-1.2996,-1.3018,-1.2953,-1.3071,-1.2984,-1.2712,-1.2452,-1.2224,-1.1929,-1.1558,-1.1335,-1.126,-1.0962,-1.0738,-1.0663,-1.0513,-1.0581,-1.1047,-1.1047,-1.0936,-1.0703,-1.0627,-1.0441,-1.0293,-0.9997,-0.9846,-0.9846,-0.9695,-0.9544,-3.5089,-3.5157,-3.5187,-3.5251,-3.5315,-3.5412,-3.5463,-3.5509,-3.5554,-3.5589,-3.5319,-3.5083,-3.5039,-3.4725,-3.4213,-3.3544,-3.3067,-3.2416,-3.1328,-3.0557,-2.9708,-2.869,-2.8026,-2.7233,-2.6216,-2.5863,-2.5489,-2.4953,-2.4759,-2.4431,-2.3962,-2.3343,-2.2812,-2.2366,-2.1565,-2.1175,-2.1234,-2.0744,-2.0504,-2.0505,-2.0505,-2.1026,-2.1993,-2.1862,-2.1927,-2.2143,-2.2187,-2.2342,-2.2589,-2.2916,-2.2794,-2.2416,-2.2173,-2.1866,-2.1432,-2.0827,-2.0339,-2.005,-2.0396,-2.0344,-2.015,-2.038,-2.0291,-1.9914,-1.9303,-1.8667,-1.8139,-1.7579,-1.7032,-1.6534,-1.6202,-1.572,-1.5294,-1.5294,-1.5118,-1.4765,-1.4291,-1.3941,-1.358,-1.3216,-1.292,-1.2621,-1.2313,-1.2296,-1.2285,-1.2218,-1.2441,-1.2407,-1.2117,-1.1855,-1.1632,-1.1484,-1.1111,-1.0846,-1.0745,-1.0376,-1.0109,-1.0008,-0.9871,-0.9771,-0.992,-1.0093,-1.0067,-0.9992,-0.9922,-0.9846,-0.9846,-0.9539,-0.9387,-0.9387,-0.9089,-0.8941,-3.517,-3.5254,-3.534,-3.5391,-3.5451,-3.5489,-3.5492,-3.5481,-3.5469,-3.5485,-3.4789,-3.4168,-3.4089,-3.3371,-3.2709,-3.2502,-3.1684,-3.1013,-3.0791,-2.9382,-2.8313,-2.8163,-2.685,-2.593,-2.5855,-2.5205,-2.476,-2.4685,-2.4117,-2.3714,-2.3564,-2.2189,-2.1387,-2.1386,-2.066,-2.032,-2.0395,-2.0469,-2.0509,-2.0501,-2.0508,-2.0495,-2.05,-2.0366,-2.0658,-2.1292,-2.1776,-2.1798,-2.1534,-2.2008,-2.1967,-2.1635,-2.1902,-2.1766,-2.1303,-2.0714,-2.027,-1.9954,-1.9895,-1.9921,-1.9924,-1.9753,-1.9671,-1.953,-1.8804,-1.8193,-1.759,-1.7134,-1.6694,-1.6259,-1.5788,-1.542,-1.5118,-1.5059,-1.4765,-1.4291,-1.389,-1.358,-1.3277,-1.2683,-1.256,-1.2367,-1.1872,-1.1622,-1.1544,-1.1667,-1.1744,-1.1716,-1.163,-1.1279,-1.0977,-1.1001,-1.0611,-1.0285,-1.0136,-0.9763,-0.9448,-0.9227,-0.9052,-0.8947,-0.8875,-0.9335,-0.9468,-0.9246,-0.9246,-0.9246,-0.9246,-0.9008,-0.8927,-0.8846,-0.8551,-0.8327,-3.4416,-3.4963,-3.5534,-3.5546,-3.5577,-3.5396,-3.4731,-3.4573,-3.4581,-3.4577,-3.3886,-3.3261,-3.3199,-3.2891,-3.2378,-3.1621,-3.1183,-3.0471,-2.9083,-2.8465,-2.7699,-2.6413,-2.5966,-2.5501,-2.4811,-2.469,-2.4382,-2.3746,-2.3672,-2.3088,-2.182,-2.1483,-2.1062,-2.0487,-2.0315,-2.0282,-2.0402,-2.0473,-2.0503,0.0,-2.0506,-2.0505,-2.0508,-2.0415,-2.0327,-2.0264,-2.089,-2.0979,-2.0712,-2.1274,-2.1253,-2.0871,-2.1181,-2.0988,-2.0559,-2.0508,-2.0185,-1.9743,-1.9749,-1.9432,-1.9046,-1.942,-1.9218,-1.8804,-1.8643,-1.8193,-1.7601,-1.6976,-1.6457,-1.5884,-1.541,-1.5001,-1.4529,-1.4181,-1.4001,-1.3881,-1.3631,-1.3155,-1.2744,-1.2629,-1.2189,-1.1747,-1.1685,-1.1247,-1.0967,-1.0942,-1.0827,-1.0796,-1.0918,-1.0414,-1.0159,-1.0356,-0.9907,-0.9553,-0.9504,-0.915,-0.8776,-0.8574,-0.8406,-0.8222,-0.8155,-0.8802,-0.9079,-0.9079,-0.878,-0.8556,-0.8556,-0.8403,-0.825,-0.8089,-0.7936,-0.7863,-3.4202,-3.4709,-3.5174,-3.5591,-3.5667,-3.5414,-3.4543,-3.4028,-3.3608,-3.3153,-3.2694,-3.2346,-3.225,-3.1441,-3.0589,-2.9954,-2.9363,-2.8652,-2.766,-2.7078,-2.6443,-2.5595,-2.517,-2.4783,-2.4358,-2.4058,-2.3735,-2.3326,-2.2682,-2.1969,-2.1186,-2.0816,-2.0486,-2.0155,-1.9777,-1.9634,-1.9735,-1.9798,-1.9858,-1.9887,-2.0303,-2.0487,-2.045,-2.0385,-2.0215,-2.0009,-2.0239,-2.0173,-1.9957,-2.0499,-2.0474,-2.0095,-2.0449,-2.0439,-2.0286,-2.0067,-1.9844,-1.9662,-1.931,-1.8974,-1.869,-1.8513,-1.8284,-1.8004,-1.7851,-1.7384,-1.6852,-1.6451,-1.5989,-1.5459,-1.5001,-1.4529,-1.4061,-1.3761,-1.364,-1.358,-1.3155,-1.2797,-1.2498,-1.2189,-1.1809,-1.1498,-1.1185,-1.0744,-1.0399,-1.0356,-1.0257,-1.0173,-1.0296,-0.9932,-0.9693,-0.9745,-0.9428,-0.9093,-0.8843,-0.8492,-0.8172,-0.7991,-0.7808,-0.7655,-0.7455,-0.7807,-0.8152,-0.8398,-0.8277,-0.8174,-0.8093,-0.7944,-0.7714,-0.7484,-0.7403,-0.7249,-3.3832,-3.4295,-3.4695,-3.5413,-3.5533,-3.5263,-3.4381,-3.3479,-3.2546,-3.1476,-3.1249,-3.12,-3.1057,-2.966,-2.8433,-2.8181,-2.7419,-2.6765,-2.6458,-2.5727,-2.5186,-2.504,-2.4438,-2.4019,-2.3948,-2.3401,-2.2956,-2.275,-2.1566,-2.0858,-2.0847,-2.0212,-1.9869,-1.9849,-1.9219,-1.8843,-1.8776,-1.885,-1.8915,-1.8994,-1.9866,-2.0252,-2.0196,-2.0274,-2.0235,-2.0079,-1.9828,-1.9609,-1.9445,-1.9776,-1.9674,-1.9338,-1.9672,-1.985,-1.9868,-1.9515,-1.9428,-1.9381,-1.8779,-1.8519,-1.8321,-1.7568,-1.7269,-1.7145,-1.6854,-1.6393,-1.5911,-1.5812,-1.5418,-1.4906,-1.451,-1.4061,-1.37,-1.339,-1.3329,-1.3216,-1.2683,-1.2498,-1.2243,-1.1685,-1.1498,-1.1247,-1.0618,-1.0174,-0.9866,-0.9832,-0.9735,-0.9697,-0.9616,-0.9402,-0.9253,-0.9141,-0.8906,-0.8595,-0.8198,-0.7856,-0.7516,-0.7339,-0.7225,-0.7048,-0.6848,-0.6814,-0.706,-0.753,-0.7727,-0.7761,-0.7629,-0.748,-0.7253,-0.7026,-0.6788,-0.6633,-3.2294,-3.3443,-3.4613,-3.4724,-3.4707,-3.4415,-3.348,-3.256,-3.1414,-2.9775,-2.9409,-2.9321,-2.9184,-2.819,-2.7353,-2.714,-2.6837,-2.634,-2.5439,-2.5107,-2.4675,-2.4009,-2.3807,-2.3542,-2.2968,-2.2865,-2.2283,-2.0961,-2.0781,-2.0459,-1.9828,-1.9757,-1.948,-1.8892,-1.883,-1.8512,-1.7881,-1.7939,-1.8009,-1.8072,-1.9016,-1.9427,-1.9377,-2.007,-2.0275,-2.0079,-1.9877,-1.965,-1.9398,-1.9228,-1.8912,-1.8572,-1.8841,-1.8692,-1.8398,-1.9046,-1.9019,-1.8576,-1.8522,-1.8055,-1.7481,-1.7352,-1.6886,-1.6349,-1.6255,-1.5777,-1.5311,-1.5134,-1.4704,-1.422,-1.41,-1.3821,-1.339,-1.2858,-1.2744,-1.2683,-1.2621,-1.212,-1.1685,-1.1622,-1.1122,-1.0618,-1.018,-0.9786,-0.9536,-0.9385,-0.9139,-0.8974,-0.9012,-0.866,-0.8403,-0.8399,-0.7979,-0.7659,-0.7635,-0.7245,-0.6907,-0.6548,-0.6506,-0.6386,-0.6055,-0.6222,-0.6324,-0.6338,-0.6651,-0.6878,-0.7015,-0.6791,-0.6641,-0.6416,-0.6173,-0.5941,-3.1912,-3.2976,-3.391,-3.3887,-3.3848,-3.358,-3.2635,-3.2038,-3.1191,-2.9409,-2.8536,-2.8075,-2.7972,-2.7083,-2.6281,-2.6041,-2.5454,-2.4823,-2.424,-2.405,-2.3879,-2.3522,-2.3075,-2.2747,-2.2551,-2.1783,-2.1025,-2.044,-2.0083,-1.9789,-1.9485,-1.9596,-1.9345,-1.8666,-1.8259,-1.7725,-1.6982,-1.7034,-1.7374,-1.7958,-1.8374,-1.8784,-1.9217,-1.9521,-1.9832,-2.0087,-1.988,-1.9676,-1.9442,-1.9135,-1.877,-1.8406,-1.829,-1.8145,-1.8017,-1.8124,-1.7999,-1.7797,-1.7842,-1.7365,-1.6712,-1.661,-1.6116,-1.5533,-1.5394,-1.4938,-1.4419,-1.4287,-1.3875,-1.342,-1.3409,-1.3025,-1.2658,-1.2634,-1.2375,-1.212,-1.2065,-1.1809,-1.1498,-1.1122,-1.0618,-1.0174,-0.9786,-0.9524,-0.9268,-0.8894,-0.8705,-0.8549,-0.8388,-0.8113,-0.7887,-0.7849,-0.7513,-0.7265,-0.7068,-0.6811,-0.6548,-0.6284,-0.6083,-0.5822,-0.5624,-0.5624,-0.5569,-0.5584,-0.6169,-0.64,-0.6325,-0.6251,-0.6018,-0.5712,-0.5631,-0.5398,-3.1582,-3.2419,-3.3053,-3.3018,-3.3,-3.2804,-3.2066,-3.1468,-3.0612,-2.9008,-2.7804,-2.6873,-2.6365,-2.5736,-2.5227,-2.4955,-2.4257,-2.3642,-2.336,-2.3241,-2.3122,-2.2952,-2.2388,-2.1927,-2.1732,-2.0686,-2.001,-1.9956,-1.9497,-1.9282,-1.9368,-1.9485,-1.9143,-1.8268,-1.7735,-1.7015,-1.6084,-1.6141,-1.6572,-1.7348,-1.7554,-1.7986,-1.8586,-1.8955,-1.9374,-1.9822,-1.9827,-1.9701,-1.9467,-1.915,-1.8771,-1.8393,-1.7954,-1.778,-1.7722,-1.7374,-1.7166,-1.7044,-1.7098,-1.6696,-1.6162,-1.5831,-1.5407,-1.4902,-1.4548,-1.4008,-1.356,-1.347,-1.3067,-1.263,-1.2788,-1.2423,-1.2024,-1.23,-1.2058,-1.1685,-1.1498,-1.1435,-1.1185,-1.0618,-1.0174,-0.9786,-0.9518,-0.9268,-0.8958,-0.8582,-0.8447,-0.8252,-0.7922,-0.7727,-0.7531,-0.733,-0.7134,-0.6872,-0.6609,-0.6346,-0.6148,-0.6017,-0.5683,-0.5422,-0.5226,-0.5024,-0.495,-0.5003,-0.5542,-0.5757,-0.5786,-0.5705,-0.5473,-0.5165,-0.501,-0.4857,-3.086,-3.1496,-3.2168,-3.2164,-3.2165,-3.2123,-3.1942,-3.0582,-2.9033,-2.798,-2.6854,-2.5528,-2.3733,-2.3841,-2.4113,-2.3912,-2.366,-2.3435,-2.3151,-2.3003,-2.2658,-2.1969,-2.1847,-2.1307,-1.9973,-1.9843,-1.9587,-1.9022,-1.9002,-1.9104,-1.9282,-1.9368,-1.8758,-1.7321,-1.7372,-1.6677,-1.5174,-1.5303,-1.5419,-1.5548,-1.638,-1.6796,-1.6878,-1.8471,-1.9134,-1.909,-1.9649,-1.9731,-1.9472,-1.9143,-1.8807,-1.8445,-1.7971,-1.7489,-1.7046,-1.7102,-1.6773,-1.6343,-1.6278,-1.6106,-1.5805,-1.5222,-1.4861,-1.4488,-1.3831,-1.3172,-1.2674,-1.2735,-1.2333,-1.1899,-1.2163,-1.211,-1.1901,-1.1621,-1.1578,-1.1498,-1.1185,-1.0877,-1.0561,-1.0371,-0.9907,-0.9518,-0.9518,-0.8952,-0.8517,-0.8517,-0.8247,-0.7922,-0.7591,-0.7526,-0.7326,-0.6806,-0.6548,-0.6416,-0.621,-0.5881,-0.555,-0.5428,-0.5223,-0.4954,-0.4625,-0.4625,-0.454,-0.4352,-0.4362,-0.4696,-0.5321,-0.516,-0.4929,-0.4701,-0.4311,-0.4157,-3.0745,-3.1005,-3.1267,-3.1266,-3.1268,-3.1109,-3.0433,-2.9729,-2.8763,-2.7201,-2.6356,-2.5349,-2.3429,-2.3144,-2.2933,-2.2183,-2.19,-2.1678,-2.1457,-2.1361,-2.1201,-2.0925,-2.0483,-2.0032,-1.9612,-1.9207,-1.8921,-1.8788,-1.8878,-1.9002,-1.9153,-1.9277,-1.8656,-1.7182,-1.7259,-1.6649,-1.5191,-1.5246,-1.5322,-1.5407,-1.5713,-1.6152,-1.6728,-1.7287,-1.8063,-1.9001,-1.9077,-1.9307,-1.9536,-1.9162,-1.8771,-1.8393,-1.7932,-1.7408,-1.6882,-1.6521,-1.601,-1.5458,-1.5435,-1.5102,-1.4638,-1.4313,-1.4116,-1.3835,-1.3176,-1.277,-1.245,-1.2141,-1.1729,-1.136,-1.1515,-1.1431,-1.1348,-1.1343,-1.1348,-1.1192,-1.0877,-1.0561,-1.0301,-0.9849,-0.9652,-0.939,-0.8958,-0.8641,-0.8382,-0.7922,-0.7787,-0.7526,-0.7138,-0.6942,-0.6745,-0.6548,-0.6148,-0.5818,-0.569,-0.5422,-0.5153,-0.4894,-0.4694,-0.4495,-0.4228,-0.4026,-0.3995,-0.3996,-0.3914,-0.4166,-0.4696,-0.4543,-0.4309,-0.4153,-0.3841,-0.3528,-3.0658,-3.0691,-3.074,-3.0768,-3.0775,-3.0565,-2.964,-2.9129,-2.8371,-2.6768,-2.5734,-2.4613,-2.293,-2.2227,-2.1712,-2.1159,-2.0872,-2.0673,-2.0459,-2.0381,-2.0223,-1.9966,-1.951,-1.9166,-1.9078,-1.8662,-1.8448,-1.8622,0.0,0.0,-1.9018,-1.9182,-1.8617,-1.7176,-1.6747,-1.6096,-1.5203,-1.5275,-1.5338,-1.5402,-1.5398,-1.5703,-1.6263,-1.6495,-1.7331,-1.8603,-1.8665,-1.9035,-1.9569,-1.9193,-1.8807,-1.8373,-1.7893,-1.7368,-1.6825,-1.6231,-1.558,-1.4978,-1.4727,-1.4323,-1.384,-1.3529,-1.3301,-1.3019,-1.2388,-1.2155,-1.1972,-1.1483,-1.1173,-1.1031,-1.0967,-1.0942,-1.0907,-1.1024,-1.0982,-1.0807,-1.0498,-1.0244,-0.9983,-0.9582,-0.9332,-0.9017,-0.8576,-0.8317,-0.7987,-0.7591,-0.7326,-0.7134,-0.6749,-0.642,-0.6218,-0.6086,-0.5686,-0.5352,-0.516,-0.4957,-0.4691,-0.4359,-0.4164,-0.3897,-0.3694,-0.3515,-0.3399,-0.3491,-0.3358,-0.3518,-0.3839,-0.3919,-0.3763,-0.345,-0.3292,-0.2902,0.0,0.0,0.0,-3.0686,-3.0735,-3.0558,-2.9656,-2.8747,-2.7796,-2.6689,-2.4934,-2.3261,-2.212,-2.1035,-2.0445,-2.0865,-2.0714,-2.0449,-2.0244,-2.0174,-1.9838,-1.9049,-1.8965,-1.8762,-1.8237,-1.8201,-1.827,-1.8485,-1.8622,-1.877,-1.8895,-1.9048,-1.8548,-1.7236,-1.5779,-1.5059,-1.519,-1.527,-1.5334,-1.5396,-1.5398,-1.539,-1.5426,-1.621,-1.6999,-1.7798,-1.8398,-1.8998,-1.9532,-1.9225,-1.886,-1.8445,-1.791,-1.7368,-1.6825,-1.6203,-1.5551,-1.4876,-1.4214,-1.3861,-1.3532,-1.28,-1.2424,-1.2148,-1.1577,-1.1359,-1.1196,-1.0824,-1.0796,-1.082,-1.0581,-1.0554,-1.061,-1.058,-1.0588,-1.0498,-1.011,-0.9862,-0.9734,-0.9524,-0.8952,-0.8517,-0.8452,-0.7917,-0.7521,-0.7456,-0.7003,-0.6609,-0.6416,-0.6086,-0.576,-0.5428,-0.5223,-0.4954,-0.4625,-0.4364,-0.4164,-0.3825,-0.3563,-0.3364,-0.3027,-0.2971,-0.2981,-0.2842,-0.2767,-0.2682,-0.2747,-0.3214,-0.3214,-0.2747,-0.2589,-0.2277,-3.0386,0.0,0.0,0.0,0.0,0.0,-2.8818,-2.8295,-2.7624,-2.5967,-2.4591,-2.3335,-2.2252,-2.1129,-2.0153,-1.9505,-1.9142,-1.887,-1.8648,-1.8575,-1.8444,-1.8155,-1.8223,-1.8222,-1.8082,-1.8201,-1.8328,0.0,-1.8545,-1.8715,-1.8896,-1.8076,-1.7514,-1.7281,-1.5788,-1.5066,-1.5203,-1.5275,-1.5338,-1.5402,-1.5398,-1.539,-1.5406,-1.563,-1.6134,-1.6897,-1.7546,-1.814,-1.867,-1.8937,-1.8789,-1.8365,-1.7839,-1.7248,-1.6586,-1.595,-1.527,-1.4533,-1.3868,-1.3295,-1.2722,-1.205,-1.173,-1.1552,-1.101,-1.0965,-1.1054,-1.068,-1.0648,-1.0732,-1.0568,-1.0564,-1.061,-1.058,-1.0588,-1.0434,-0.9989,-0.9536,-0.9151,-0.9022,-0.8705,-0.8317,-0.7852,-0.7591,-0.733,-0.6811,-0.6548,-0.635,-0.5881,-0.569,-0.5362,-0.503,-0.4697,-0.4361,-0.4025,-0.383,-0.3563,-0.3224,-0.3159,-0.2984,-0.2627,-0.2559,-0.2409,-0.2318,-0.2226,-0.2186,-0.2278,-0.2511,-0.2588,-0.2589,-0.2199,-0.2043,-3.0142,-3.0163,-3.0196,-3.0325,0.0,0.0,-2.8311,-2.7782,-2.7137,-2.5639,-2.4258,-2.3121,-2.2401,-2.105,-1.9813,-1.9104,-1.8753,-1.8469,-1.8138,-1.8031,-1.7966,-1.7878,-1.7961,-1.8005,-1.8087,-1.8201,-1.8307,-1.8426,-1.8565,-1.8752,-1.9019,-1.7746,-1.7083,-1.7262,-1.5788,-1.5066,-1.5189,-1.5275,-1.5322,-1.5407,-1.54,-1.539,-1.5405,-1.5373,-1.5777,-1.6538,-1.7178,-1.7751,-1.8297,-1.8781,-1.8771,-1.8345,-1.7732,-1.715,-1.6523,-1.5781,-1.509,-1.4342,-1.3635,-1.2953,-1.2246,-1.1542,-1.1131,-1.0845,-1.024,-1.0355,-1.062,-1.0206,-1.0278,-1.0407,-1.0295,-1.0265,-1.0243,-1.0265,-1.016,-1.0039,-0.9767,-0.9215,-0.8765,-0.8705,-0.8382,-0.7987,-0.7591,-0.7265,-0.6872,-0.6482,-0.6156,-0.5888,-0.5554,-0.516,-0.4831,-0.4631,-0.4233,-0.383,-0.3558,-0.3293,-0.3025,-0.269,-0.2583,-0.2411,-0.2169,-0.2181,-0.2164,-0.2042,-0.194,-0.165,-0.1257,-0.1885,-0.1962,-0.1648,-0.1256,-0.11,-2.9836,-2.9815,-2.9861,-3.0003,-2.9474,0.0,-2.802,-2.7294,-2.6514,-2.5588,-2.401,-2.2745,-2.2566,-2.096,-1.955,-1.9298,-1.9204,-1.895,-1.831,-1.818,-1.8113,-1.8027,-1.8027,-1.807,-1.8194,-1.8222,-1.8307,-1.8505,-1.8641,-1.8878,-1.9184,-1.7808,-1.7089,-1.7221,-1.5788,-1.5073,-1.5195,-1.526,-1.5326,-1.5392,-1.5401,-1.5391,-1.5401,-1.5324,-1.5737,-1.6522,-1.7136,-1.7697,-1.8231,-1.8752,-1.8734,-1.8287,-1.7625,-1.7052,-1.647,-1.5652,-1.4937,-1.4246,-1.3454,-1.2696,-1.2018,-1.1234,-1.0649,-1.0137,-0.9533,-0.9692,-1.0018,-0.975,-0.9839,-0.9999,-0.9947,-0.9817,-0.9688,-0.9724,-0.9583,-0.9402,-0.9427,-0.8871,-0.8452,-0.8382,-0.7857,-0.7461,-0.7391,-0.6806,-0.6354,-0.6288,-0.5756,-0.5362,-0.5296,-0.4697,-0.4233,-0.4167,-0.3696,-0.3295,-0.3092,-0.2822,-0.249,-0.2164,-0.2007,-0.1828,-0.1697,-0.1849,-0.1897,-0.1826,-0.171,-0.11,-0.0,-0.1257,-0.1335,-0.0314,-0.0,0.0157,-2.9338,-2.9339,-2.9361,-2.9495,-2.9068,0.0,-2.7738,-2.7091,-2.6403,-2.557,-2.4058,-2.2843,-2.2753,-2.1201,-1.9855,-1.9645,-1.9981,-1.9858,-1.8619,-1.8371,-1.8304,-1.8184,-1.8163,-1.8205,-1.8266,-1.8385,-1.8467,-1.8584,-1.8789,-1.9034,-1.9277,-1.7881,-1.7174,-1.7355,-1.5885,-1.5114,-1.519,-1.5268,-1.5326,-1.5401,-1.5406,-1.541,-1.5401,-1.534,-1.5709,-1.6439,-1.7063,-1.7622,-1.8153,-1.8568,-1.8513,-1.809,-1.7539,-1.6885,-1.6188,-1.5448,-1.4658,-1.3888,-1.3195,-1.2413,-1.1653,-1.1094,-1.0544,-1.0037,-0.9834,-0.9874,-0.9989,-1.0105,-1.0061,-0.9947,-0.9725,-0.9703,-0.9639,-0.9361,-0.9388,-0.9291,-0.8895,-0.843,-0.7987,-0.7531,-0.733,-0.7134,-0.6679,-0.6412,-0.6083,-0.569,-0.5495,-0.5163,-0.4567,-0.4231,-0.3894,-0.3493,-0.309,-0.2755,-0.2423,-0.222,-0.2037,-0.1875,-0.1818,-0.1787,-0.1714,-0.1734,-0.1453,-0.0858,-0.0549,-0.0236,-0.0,-0.0314,-0.0314,-0.0079,0.0707,0.1021,-2.8819,-2.8777,-2.8782,-2.892,-2.8172,0.0,0.0,-2.6403,-2.5619,-2.5362,-2.3985,-2.2852,-2.2851,-2.1366,-2.0084,-1.9926,-2.0436,-2.0574,-1.9808,-1.9776,-1.9812,-1.9653,-1.9278,-1.9049,-1.9089,-1.8831,-1.8715,-1.8843,-1.9052,-1.9216,-1.9398,-1.835,-1.7644,-1.7414,-1.629,-1.5555,-1.5246,-1.5284,-1.5335,-1.5394,-1.5408,-1.5408,-1.5409,-1.5747,-1.6068,-1.6418,-1.7463,-1.7963,-1.8067,-1.8483,-1.8338,-1.7815,-1.7304,-1.6664,-1.595,-1.5136,-1.4374,-1.3635,-1.2896,-1.2126,-1.1356,-1.0802,-1.0235,-0.9729,-0.9672,-0.9698,-0.9827,-1.0058,-0.9999,-0.9777,-0.9614,-0.9429,-0.9221,-0.9033,-0.8887,-0.8685,-0.8309,-0.8016,-0.7591,-0.7068,-0.6741,-0.6482,-0.6218,-0.5954,-0.5624,-0.516,-0.4964,-0.4631,-0.4095,-0.3761,-0.3426,-0.3023,-0.2621,-0.2354,-0.2221,-0.184,-0.1658,-0.168,-0.1365,-0.1106,-0.1134,-0.092,-0.062,-0.0,0.0393,0.0707,0.0864,0.0864,0.0864,0.0864,0.1415,0.165,-2.8246,-2.8166,-2.8085,-2.8083,-2.7115,-2.6198,0.0,0.0,0.0,-2.5023,-2.3843,-2.2777,-2.2847,-2.147,-2.0281,-2.0167,-2.0724,-2.1181,-2.1205,-2.1522,0.0,-2.1251,-2.0635,-2.024,-2.024,-1.9578,-1.9217,-1.9385,-1.9371,-1.9405,-1.9532,-1.8845,-1.82,-1.77,-1.6943,-1.6324,-1.5787,-1.5784,-1.5835,-1.5909,-1.5898,-1.5891,-1.5891,-1.6471,-1.6758,-1.6831,-1.7968,-1.8352,-1.8216,-1.8449,-1.8153,-1.7482,-1.7019,-1.6427,-1.5709,-1.4862,-1.4084,-1.3365,-1.2615,-1.1847,-1.1132,-1.0467,-0.9946,-0.9529,-0.9417,-0.957,-0.9791,-0.9864,-0.9777,-0.9562,-0.9458,-0.9113,-0.8758,-0.8654,-0.8354,-0.8091,-0.7843,-0.7506,-0.7149,-0.6666,-0.6152,-0.5826,-0.5826,-0.5491,-0.5093,-0.4764,-0.4431,-0.4097,-0.3758,-0.3291,-0.2956,-0.2621,-0.2287,-0.2018,-0.2018,-0.1511,-0.1188,-0.1271,-0.0735,-0.0378,-0.0305,0.0078,0.0393,0.0786,0.1178,0.1493,0.1729,0.1807,0.1807,0.1729,0.1965,0.1965,-2.756,-2.747,-2.7265,-2.6685,-2.6073,-2.5483,-2.5041,0.0,-2.4273,-2.4605,0.0,-2.257,-2.2696,0.0,0.0,-2.0291,-2.0942,-2.1671,-2.223,-2.297,-2.2975,-2.178,-2.1497,-2.1425,-2.1496,-2.0831,-2.0404,-2.0436,-1.9834,-1.9532,-1.9673,-1.8976,-1.8602,-1.864,-1.7922,-1.753,-1.7523,-1.7579,-1.7645,-1.7705,-1.7694,-1.7671,-1.7615,-1.7646,-1.7939,-1.8422,-1.835,-1.8545,-1.8853,-1.8494,-1.7941,-1.728,-1.6761,-1.6154,-1.5463,-1.461,-1.3789,-1.2985,-1.2354,-1.1627,-1.084,-1.0312,-0.9924,-0.9666,-0.9442,-0.9657,-0.9894,-0.971,-0.9614,-0.951,-0.9008,-0.8857,-0.8652,-0.8152,-0.7976,-0.7829,-0.7359,-0.6969,-0.654,-0.6056,-0.5693,-0.5428,-0.5428,-0.5027,-0.4628,-0.4367,-0.4097,-0.3692,-0.3293,-0.282,-0.2418,-0.2287,-0.1817,-0.148,-0.148,-0.0675,-0.0138,-0.0072,-0.0,0.0149,0.0469,0.0941,0.1257,0.1572,0.165,0.1729,0.1887,0.2041,0.2041,0.1887,0.1887,0.1887,-2.6519,-2.629,-2.6024,-2.5364,-2.477,-2.4309,-2.4233,-2.3891,-2.3674,-2.4063,0.0,0.0,0.0,0.0,0.0,0.0,-2.1072,-2.1701,-2.194,-2.2667,-2.3233,-2.342,0.0,0.0,-2.2047,0.0,0.0,0.0,-2.0554,-2.0214,-1.9837,-1.9568,-1.9237,-1.8868,-1.8601,-1.8261,-1.7864,-1.7888,-1.7927,-1.8006,-1.7963,-1.7933,-1.7902,-1.8274,-1.8532,-1.8716,-1.8883,-1.8941,-1.8895,-1.8298,-1.7704,-1.7044,-1.6327,-1.5694,-1.5106,-1.4264,-1.3441,-1.2649,-1.1993,-1.1255,-1.0447,-0.9597,-0.9241,-0.9196,-0.9082,-0.9283,-0.9539,-0.9518,-0.9309,-0.9061,-0.8857,-0.854,-0.8168,-0.7788,-0.7544,-0.7276,-0.6795,-0.645,-0.6073,-0.5661,-0.5226,-0.4894,-0.4764,-0.4564,-0.4231,-0.3763,-0.356,-0.3226,-0.269,-0.2421,-0.2151,-0.1749,-0.1547,-0.1211,-0.0606,-0.0205,0.021,0.0727,0.0974,0.1153,0.1256,0.1572,0.1807,0.1808,0.1808,0.1964,0.2277,0.2353,0.2433,0.2592,0.2512,0.2514,-2.5344,-2.4996,-2.4746,-2.4028,-2.3566,-2.3274,-2.3311,-2.3137,-2.3076,-2.3462,-2.3197,0.0,0.0,0.0,-2.1204,-2.0741,0.0,-2.1403,-2.1608,-2.2127,-2.3004,-2.4352,0.0,0.0,0.0,0.0,0.0,-2.1846,-2.158,-2.11,-2.0359,-2.0363,-2.0041,-1.9298,-1.9345,-1.9134,-1.8625,-1.8607,-1.8641,-1.8671,-1.8638,-1.8598,-1.8605,-1.9032,-1.9153,-1.9004,-1.923,-1.913,-1.8771,-1.8094,-1.7436,-1.6777,-1.5905,-1.5211,-1.4627,-1.3815,-1.3054,-1.2354,-1.1542,-1.0715,-0.9873,-0.8958,-0.868,-0.8733,-0.8655,-0.8824,-0.9048,-0.9125,-0.8888,-0.8646,-0.8593,-0.8168,-0.7741,-0.7413,-0.7054,-0.6677,-0.6184,-0.5888,-0.5561,-0.5202,-0.4734,-0.4361,-0.403,-0.3966,-0.383,-0.3293,-0.3027,-0.2757,-0.2288,-0.2087,-0.1817,-0.1412,-0.1144,-0.074,-0.0067,0.0206,0.0633,0.131,0.1672,0.1874,0.1729,0.1965,0.2044,0.2043,0.2043,0.2277,0.2668,0.2668,0.2824,0.3217,0.2982,0.2973,0.0,0.0,0.0,-2.267,0.0,0.0,0.0,0.0,-2.2432,-2.2848,-2.2607,-2.2455,-2.2898,-2.19,-2.1089,-2.1332,-2.0856,0.0,0.0,-2.1719,-2.2294,-2.3829,-2.4688,0.0,0.0,-2.4339,-2.3828,-2.3809,-2.3033,-2.2191,-2.1378,-2.1349,-2.1029,-2.0277,-2.0315,-2.0366,-2.043,-2.0421,-2.0427,-2.0426,-2.0421,-2.0387,-2.0307,-2.0142,-1.9944,-1.975,-1.9306,-1.8928,-1.8566,-1.7888,-1.7191,-1.6418,-1.5564,-1.4724,-1.3954,-1.3259,-1.2649,-1.1993,-1.1057,-0.9981,-0.8975,-0.8643,-0.8477,-0.8371,-0.8261,-0.8421,-0.857,-0.8484,-0.8429,-0.8321,-0.8008,-0.7735,-0.7413,-0.7041,-0.6549,-0.611,-0.5694,-0.5344,-0.4958,-0.4538,-0.4213,-0.3828,-0.3295,-0.3228,-0.3226,-0.3226,-0.2624,-0.2221,-0.2221,-0.1748,-0.1412,-0.1412,-0.0606,-0.0,-0.0,0.0808,0.1447,0.1672,0.1794,0.1841,0.1885,0.1887,0.2121,0.251,0.251,0.2668,0.3062,0.3062,0.3217,0.3448,0.3217,0.3024,0.0,0.0,-2.2355,-2.16,0.0,0.0,0.0,0.0,0.0,0.0,-2.2521,-2.2627,-2.256,-2.2422,-2.2079,-2.1325,-2.1114,-2.0985,0.0,-2.1305,-2.21,-2.3202,-2.4051,-2.4755,0.0,0.0,-2.466,-2.4134,-2.3837,-2.3288,-2.2431,-2.2388,-2.23,-2.2088,-2.1546,-2.1286,-2.1352,-2.0791,-2.0508,-2.051,-2.0451,-2.0405,-2.0334,-2.0133,-1.9899,-1.9638,-1.9219,-1.8789,-1.8351,-1.7693,-1.6928,-1.6154,-1.5227,-1.4365,-1.3542,-1.2963,-1.2306,-1.1542,-1.0321,-0.9359,-0.8602,-0.8267,-0.8063,-0.7916,-0.7872,-0.7895,-0.7903,-0.8108,-0.7923,-0.7668,-0.7635,-0.73,-0.6864,-0.6539,-0.6105,-0.5669,-0.5224,-0.4786,-0.4417,-0.4072,-0.3694,-0.3285,-0.2947,-0.269,-0.2557,-0.2557,-0.2356,-0.2087,-0.1748,-0.1614,-0.1278,-0.0539,-0.0202,0.0269,0.0875,0.1368,0.1603,0.1703,0.1967,0.2152,0.2171,0.2394,0.2637,0.2833,0.2835,0.3088,0.353,0.353,0.3763,0.407,0.3934,0.3661,-2.2183,-2.1776,0.0,-2.0654,-2.048,0.0,-2.0367,0.0,-2.0787,0.0,0.0,-2.2183,-2.2131,-2.2472,-2.257,-2.192,-2.1737,-2.1541,0.0,-2.1623,-2.2341,-2.3217,-2.3845,-2.4549,-2.5422,-2.546,-2.5223,-2.4734,-2.4701,-2.4316,0.0,0.0,-2.3291,-2.3041,-2.2497,-2.2213,-2.2259,-2.1406,-2.0951,-2.0912,-2.0573,-2.0357,-2.025,-2.006,-1.9809,-1.9518,-1.9077,-1.8607,-1.8128,-1.7429,-1.6674,-1.5849,-1.4941,-1.4044,-1.317,-1.2555,-1.1715,-1.0667,-0.9619,-0.8878,-0.8324,-0.7987,-0.7746,-0.7497,-0.7485,-0.7344,-0.7276,-0.7458,-0.7229,-0.7013,-0.7054,-0.6691,-0.6279,-0.6032,-0.5614,-0.5156,-0.4695,-0.4247,-0.3865,-0.3527,-0.3109,-0.2722,-0.2509,-0.2138,-0.1951,-0.2154,-0.2018,-0.1749,-0.1344,-0.1144,-0.074,-0.0067,0.0269,0.0808,0.1547,0.1778,0.1874,0.1963,0.2279,0.2455,0.2478,0.2769,0.301,0.3136,0.3136,0.3387,0.3897,0.3897,0.3971,0.4273,0.417,0.3974]},{"header":{"parameterUnit":"m.s-1","parameterCategory":1,"la1":30.6,"la2":29.2853,"lo1":-89.7004,"lo2":-87.6739,"dy":0.0162,"dx":0.0183,"nx":112,"ny":82,"refTime":"2023-07-31T12:00:00:Z","depth":0,"parameterNumber":3,"parameterNumberName":"V-component_of_WINDS"},"data":[0.0,0.0,0.0,0.0,0.0,0.0,0.0,0.0,0.0,0.0,0.0,0.0,0.0,0.0,0.0,0.0,0.0,0.0,0.0,0.0,0.0,0.0,0.0,0.0,0.0,0.0,0.0,0.0,0.0,0.0,0.0,0.0,0.0,0.0,0.0,0.0,0.0,0.0,0.0,0.0,0.0,0.0,0.0,0.0,0.0,0.0,0.0,0.0,0.0,0.0,0.0,0.0,0.0,0.0,0.0,0.0,0.0,0.0,0.0,0.0,0.0,0.0,0.0,0.0,0.0,0.0,0.0,0.0,0.0,0.0,0.0,0.0,0.0,0.0,0.0,0.0,0.0,0.0,0.0,0.0,0.0,0.0,0.0,0.0,0.0,0.0,0.0,0.0,0.0,0.0,-0.8942,-1.2079,-1.7045,-2.1018,-2.3059,-2.4642,-2.5615,-2.5771,0.0,0.0,0.0,0.0,0.0,0.0,0.0,0.0,0.0,0.0,0.0,0.0,0.0,0.0,0.0,0.0,0.0,0.0,0.0,0.0,0.0,0.0,0.0,0.0,0.0,0.0,0.0,0.0,0.0,0.0,0.0,0.0,0.0,0.0,0.0,0.0,0.0,0.0,0.0,0.0,0.0,0.0,0.0,0.0,0.0,0.0,0.0,0.0,0.0,0.0,0.0,0.0,0.0,0.0,0.0,0.0,0.0,0.0,0.0,0.0,0.0,0.0,0.0,0.0,0.0,0.0,0.0,0.0,0.0,0.0,0.0,0.0,0.0,0.0,0.0,0.0,0.0,0.0,0.0,0.0,0.0,0.0,0.0,0.0,0.0,0.0,0.0,0.0,0.0,0.0,0.0,0.0,0.0,0.0,0.0,0.0,0.0,0.0,0.0,0.0,0.0,0.0,0.0,0.0,-1.0149,-1.5542,-1.8983,-2.1594,-2.3233,-2.5309,-2.612,-2.5283,0.0,0.0,0.0,0.0,0.0,0.0,0.0,0.0,0.0,0.0,0.0,0.0,0.0,0.0,0.0,0.0,0.0,0.0,0.0,0.0,0.0,0.0,0.0,0.0,0.0,0.0,0.0,0.0,0.0,0.0,0.0,0.0,0.0,0.0,0.0,0.0,0.0,0.0,0.0,0.0,0.0,0.0,0.0,0.0,0.0,0.0,0.0,0.0,0.0,0.0,0.0,0.0,0.0,0.0,0.0,0.0,0.0,0.0,0.0,0.0,0.0,0.0,0.0,0.0,0.0,0.0,0.0,0.0,0.0,0.0,0.0,0.0,0.0,0.0,0.0,0.0,0.0,0.0,0.0,0.0,0.0,0.0,0.0,0.0,0.0,0.0,0.0,0.0,0.0,0.0,0.0,0.0,0.0,0.0,0.0,0.0,0.0,0.0,0.0,0.0,0.0,0.0,0.0,-0.9227,-1.2186,-1.6671,-1.9132,-2.1166,-2.314,-2.4809,-2.5461,-2.478,-2.4484,0.0,0.0,0.0,0.0,0.0,0.0,0.0,0.0,0.0,0.0,0.0,0.0,0.0,0.0,0.0,0.0,0.0,0.0,0.0,0.0,0.0,0.0,0.0,0.0,0.0,0.0,0.0,0.0,0.0,0.0,0.0,0.0,0.0,0.0,0.0,0.0,0.0,0.0,0.0,0.0,0.0,0.0,0.0,0.0,0.0,0.0,0.0,0.0,0.0,0.0,0.0,0.0,0.0,0.0,0.0,0.0,0.0,0.0,0.0,0.0,0.0,0.0,0.0,0.0,0.0,0.0,0.0,0.0,0.0,0.0,0.0,0.0,0.0,0.0,0.0,0.0,0.0,0.0,0.0,0.0,0.0,0.0,0.0,0.0,0.0,0.0,0.0,0.0,0.0,0.0,0.0,0.0,0.0,0.0,0.0,0.0,0.0,0.0,0.0,0.0,0.0,0.0,-1.122,-1.3838,-1.7011,-1.8891,-2.0701,-2.2753,-2.4142,-2.4734,-2.4233,-2.4015,0.0,0.0,0.0,0.0,0.0,0.0,0.0,0.0,0.0,0.0,0.0,0.0,0.0,0.0,0.0,0.0,0.0,0.0,0.0,0.0,0.0,0.0,0.0,0.0,0.0,0.0,0.0,0.0,0.0,0.0,0.0,0.0,0.0,0.0,0.0,0.0,0.0,0.0,0.0,0.0,0.0,0.0,0.0,0.0,0.0,0.0,0.0,0.0,0.0,0.0,0.0,0.0,0.0,0.0,0.0,0.0,0.0,0.0,0.0,0.0,0.0,0.0,0.0,0.0,0.0,0.0,0.0,0.0,0.0,0.0,0.0,0.0,0.0,0.0,0.0,0.0,0.0,0.0,0.0,0.0,0.0,0.0,0.0,0.0,0.0,0.0,0.0,0.0,0.0,0.0,0.0,0.0,0.0,0.0,0.0,0.0,0.0,0.0,0.0,0.0,0.0,0.0,-1.1876,-1.4231,-1.7,-1.8944,-2.0593,-2.2001,-2.3642,-2.4358,-2.3723,-2.345,0.0,0.0,0.0,0.0,0.0,0.0,0.0,0.0,0.0,0.0,0.0,0.0,0.0,0.0,0.0,0.0,0.0,0.0,0.0,0.0,0.0,0.0,0.0,0.0,0.0,0.0,0.0,0.0,0.0,0.0,0.0,0.0,0.0,0.0,0.0,0.0,0.0,0.0,0.0,0.0,0.0,0.0,0.0,0.0,0.0,0.0,0.0,0.0,0.0,0.0,0.0,0.0,0.0,0.0,0.0,0.0,0.0,0.0,0.0,0.0,0.0,0.0,0.0,0.0,0.0,0.0,0.0,0.0,0.0,0.0,0.0,0.0,0.0,0.0,0.0,0.0,0.0,0.0,0.0,0.0,0.0,0.0,0.0,0.0,0.0,0.0,0.0,0.0,0.0,0.0,0.0,0.0,0.0,0.0,0.0,0.0,0.0,0.0,0.0,0.0,0.0,0.0,-1.221,-1.4494,-1.7036,-1.8547,-2.0124,-2.1855,-2.2751,-2.3324,-2.354,0.0,0.0,0.0,0.0,0.0,0.0,0.0,0.0,0.0,0.0,0.0,0.0,0.0,0.0,0.0,0.0,0.0,0.0,0.0,0.0,0.0,0.0,0.0,0.0,0.0,0.0,0.0,0.0,0.0,0.0,0.0,0.0,0.0,0.0,0.0,0.0,0.0,0.0,0.0,0.0,0.0,0.0,0.0,0.0,0.0,0.0,0.0,0.0,0.0,0.0,0.0,0.0,0.0,0.0,0.0,0.0,0.0,0.0,0.0,0.0,0.0,0.0,0.0,0.0,0.0,0.0,0.0,0.0,0.0,0.0,0.0,0.0,0.0,0.0,0.0,0.0,0.0,0.0,0.0,0.0,0.0,0.0,0.0,0.0,0.0,0.0,0.0,0.0,0.0,0.0,0.0,0.0,0.0,0.0,0.0,0.0,0.0,0.0,0.0,0.0,0.0,0.0,-1.0905,-1.2741,-1.4774,-1.7188,-1.8409,-1.9809,-2.1735,-2.2104,-2.2531,-2.3148,0.0,0.0,0.0,0.0,0.0,0.0,0.0,0.0,0.0,0.0,0.0,0.0,0.0,0.0,0.0,0.0,0.0,0.0,0.0,0.0,0.0,0.0,0.0,0.0,0.0,0.0,0.0,0.0,0.0,0.0,0.0,0.0,0.0,0.0,0.0,0.0,0.0,0.0,0.0,0.0,0.0,0.0,0.0,0.0,0.0,0.0,0.0,0.0,0.0,0.0,0.0,0.0,0.0,0.0,0.0,0.0,0.0,0.0,0.0,0.0,0.0,0.0,0.0,0.0,0.0,0.0,0.0,0.0,0.0,0.0,0.0,0.0,0.0,0.0,0.0,0.0,0.0,0.0,0.0,0.0,0.0,0.0,0.0,0.0,0.0,0.0,0.0,0.0,0.0,0.0,0.0,0.0,0.0,0.0,0.0,0.0,0.0,0.0,0.0,0.0,0.0,0.0,-1.204,-1.3435,-1.5128,-1.7562,-1.8497,-1.9698,-2.1474,-2.1834,-2.2147,0.0,0.0,0.0,0.0,0.0,0.0,0.0,0.0,0.0,0.0,0.0,0.0,0.0,0.0,0.0,0.0,0.0,0.0,0.0,0.0,0.0,0.0,0.0,0.0,0.0,0.0,0.0,0.0,0.0,0.0,0.0,0.0,0.0,0.0,0.0,0.0,0.0,0.0,0.0,0.0,0.0,0.0,0.0,0.0,0.0,0.0,0.0,0.0,0.0,0.0,0.0,0.0,0.0,0.0,0.0,0.0,0.0,0.0,0.0,0.0,0.0,0.0,0.0,0.0,0.0,0.0,0.0,0.0,0.0,0.0,0.0,0.0,0.0,0.0,0.0,0.0,0.0,0.0,0.0,0.0,0.0,0.0,0.0,0.0,0.0,0.0,0.0,0.0,0.0,0.0,0.0,0.0,0.0,0.0,0.0,0.0,0.0,0.0,0.0,0.0,0.0,0.0,0.0,-1.2654,-1.4172,-1.5916,-1.7793,-1.8761,-1.9886,-2.1595,-2.1884,-2.2204,-2.2791,0.0,0.0,0.0,0.0,0.0,0.0,0.0,0.0,0.0,0.0,0.0,0.0,0.0,0.0,0.0,0.0,0.0,0.0,0.0,0.0,0.0,0.0,0.0,0.0,0.0,0.0,0.0,0.0,0.0,0.0,0.0,0.0,0.0,0.0,0.0,0.0,0.0,0.0,0.0,0.0,0.0,0.0,0.0,0.0,0.0,0.0,0.0,0.0,0.0,0.0,0.0,0.0,0.0,0.0,0.0,0.0,0.0,0.0,0.0,0.0,0.0,0.0,0.0,0.0,0.0,0.0,0.0,0.0,0.0,0.0,0.0,0.0,0.0,0.0,0.0,0.0,0.0,0.0,0.0,0.0,0.0,0.0,0.0,0.0,0.0,0.0,0.0,0.0,0.0,0.0,0.0,0.0,0.0,0.0,0.0,0.0,0.0,0.0,0.0,0.0,0.0,0.0,-1.3582,-1.5149,-1.6826,-1.8556,-1.9298,-2.0366,-2.1934,-2.2003,-2.216,-2.2684,0.0,0.0,0.0,0.0,0.0,0.0,0.0,0.0,0.0,0.0,0.0,0.0,0.0,0.0,0.0,0.0,0.0,0.0,0.0,0.0,0.0,0.0,0.0,0.0,0.0,0.0,0.0,0.0,0.0,0.0,0.0,0.0,0.0,0.0,0.0,0.0,0.0,0.0,0.0,0.0,0.0,0.0,0.0,0.0,0.0,0.0,0.0,0.0,0.0,0.0,0.0,0.0,0.0,0.0,0.0,0.0,0.0,0.0,0.0,0.0,0.0,0.0,0.0,0.0,0.0,0.0,0.0,0.0,0.0,0.0,0.0,0.0,0.0,0.0,0.0,0.0,0.0,0.0,0.0,0.0,0.0,0.0,0.0,0.0,0.0,0.0,0.0,0.0,0.0,0.0,0.0,0.0,0.0,0.0,0.0,0.0,0.0,0.0,0.0,0.0,0.0,0.0,-1.4729,-1.6238,-1.7862,-1.9603,-2.0136,-2.1002,-2.2434,-2.2169,-2.2076,-2.2481,0.0,0.0,0.0,0.0,0.0,0.0,0.0,0.0,0.0,0.0,0.0,0.0,0.0,0.0,0.0,0.0,0.0,0.0,0.0,0.0,0.0,0.0,0.0,0.0,0.0,0.0,0.0,0.0,0.0,0.0,0.0,0.0,0.0,0.0,0.0,0.0,0.0,0.0,0.0,0.0,0.0,0.0,0.0,0.0,0.0,0.0,0.0,0.0,0.0,0.0,0.0,0.0,0.0,0.0,0.0,0.0,0.0,0.0,0.0,0.0,-1.3636,0.0,0.0,0.0,0.0,0.0,0.0,0.0,0.0,0.0,0.0,0.0,0.0,0.0,0.0,0.0,0.0,0.0,0.0,0.0,0.0,0.0,0.0,0.0,0.0,0.0,0.0,0.0,0.0,0.0,0.0,0.0,0.0,0.0,0.0,0.0,0.0,0.0,0.0,0.0,0.0,0.0,-1.6074,-1.7463,-1.8823,-2.0206,-2.07,-2.1487,-2.2852,-2.2769,-2.2829,-2.3332,-2.3305,0.0,0.0,0.0,0.0,0.0,0.0,0.0,0.0,0.0,0.0,0.0,0.0,0.0,0.0,0.0,0.0,0.0,0.0,0.0,0.0,0.0,0.0,0.0,0.0,0.0,0.0,0.0,0.0,0.0,0.0,0.0,0.0,0.0,0.0,0.0,0.0,0.0,0.0,0.0,0.0,0.0,0.0,0.0,0.0,0.0,0.0,0.0,0.0,0.0,0.0,0.0,0.0,0.0,0.0,0.0,0.0,0.0,0.0,0.0,0.0,-1.4462,0.0,0.0,0.0,0.0,0.0,0.0,0.0,0.0,0.0,0.0,0.0,0.0,0.0,0.0,0.0,0.0,0.0,0.0,0.0,0.0,0.0,0.0,0.0,0.0,0.0,0.0,0.0,0.0,0.0,0.0,0.0,0.0,0.0,0.0,0.0,0.0,0.0,0.0,0.0,0.0,-1.7033,-1.8349,-1.9543,-2.0418,-2.1048,-2.1742,-2.278,-2.2908,-2.317,-2.3572,-2.3671,0.0,0.0,0.0,0.0,0.0,0.0,0.0,0.0,0.0,0.0,0.0,0.0,0.0,0.0,0.0,0.0,0.0,0.0,0.0,0.0,0.0,0.0,0.0,0.0,0.0,0.0,0.0,0.0,0.0,0.0,0.0,0.0,0.0,0.0,0.0,0.0,0.0,0.0,0.0,0.0,0.0,0.0,0.0,0.0,0.0,0.0,0.0,0.0,0.0,0.0,0.0,0.0,0.0,-1.3585,-1.3915,-1.4099,-1.4688,-1.5166,-1.5531,-1.5438,-1.5503,-1.5723,-1.5868,0.0,0.0,0.0,0.0,0.0,0.0,0.0,0.0,0.0,0.0,0.0,0.0,0.0,0.0,0.0,0.0,0.0,0.0,0.0,0.0,0.0,0.0,0.0,0.0,-1.9495,-1.8744,0.0,0.0,0.0,0.0,0.0,0.0,0.0,0.0,0.0,0.0,0.0,0.0,-1.7956,-1.9153,-2.0149,-2.0714,-2.1386,-2.2035,-2.2674,-2.2985,-2.3372,-2.3774,-2.3835,-2.3709,0.0,0.0,0.0,0.0,0.0,0.0,0.0,0.0,0.0,0.0,0.0,0.0,0.0,0.0,0.0,0.0,0.0,0.0,0.0,0.0,0.0,0.0,0.0,0.0,0.0,0.0,0.0,0.0,0.0,0.0,0.0,0.0,-0.7468,-0.8468,0.0,0.0,0.0,0.0,0.0,0.0,0.0,0.0,0.0,0.0,0.0,0.0,0.0,-1.2428,-1.2728,-1.3171,-1.3572,-1.3764,-1.4514,-1.5227,-1.5912,-1.6366,-1.6881,-1.7569,-1.7714,0.0,-1.6593,-1.7243,0.0,0.0,0.0,0.0,0.0,0.0,0.0,0.0,0.0,0.0,0.0,0.0,0.0,0.0,0.0,0.0,0.0,0.0,0.0,0.0,0.0,0.0,-2.0135,-2.0298,-2.0298,-2.0237,0.0,-1.8567,-1.7562,-1.7687,-1.7282,0.0,0.0,0.0,0.0,0.0,0.0,0.0,-1.9259,-2.009,-2.0895,-2.1508,-2.197,-2.2557,-2.3262,-2.3452,-2.3872,-2.46,-2.46,-2.462,-2.4669,-2.4536,0.0,0.0,0.0,0.0,0.0,0.0,0.0,0.0,0.0,0.0,0.0,0.0,0.0,0.0,0.0,0.0,0.0,0.0,0.0,0.0,0.0,0.0,0.0,0.0,0.0,0.0,0.0,0.0,0.0,-0.7183,-0.8157,-0.911,-0.9412,-0.9704,0.0,0.0,0.0,0.0,0.0,0.0,0.0,0.0,0.0,-1.2728,-1.2934,-1.3246,-1.3667,-1.4069,-1.4487,-1.5019,-1.5564,-1.6157,-1.6817,-1.7152,-1.7619,-1.8108,-1.8397,-1.855,-1.845,-1.8435,-1.8816,-1.9487,0.0,0.0,0.0,0.0,-2.1191,-2.1569,-2.1732,-2.2069,0.0,-2.2241,0.0,0.0,0.0,0.0,0.0,0.0,0.0,0.0,0.0,0.0,-2.2248,-2.2355,-2.2155,-2.1976,-2.2115,-2.1084,-1.999,0.0,-1.9295,-1.9137,-1.8944,0.0,0.0,0.0,0.0,-1.9802,-2.0096,-2.062,-2.1144,-2.1672,-2.2131,-2.2636,-2.3183,-2.3624,-2.4189,-2.4892,-2.4859,-2.4982,-2.5386,-2.4934,-2.4608,0.0,0.0,0.0,0.0,0.0,0.0,0.0,0.0,0.0,0.0,0.0,0.0,0.0,0.0,0.0,0.0,0.0,0.0,0.0,0.0,0.0,0.0,0.0,0.0,0.0,0.0,0.0,0.0,-0.7902,-0.869,-0.9722,-1.0075,-1.0413,0.0,0.0,0.0,0.0,0.0,0.0,-1.2322,-1.2562,-1.2961,-1.3431,-1.3785,-1.4076,-1.4496,-1.4783,-1.5268,-1.5862,-1.6404,-1.6888,-1.7505,-1.7874,-1.8254,-1.874,-1.9139,-1.9636,-2.0181,-1.9573,-1.9843,-2.0615,-2.0394,-2.07,-2.1231,-2.174,-2.2254,-2.2595,-2.2869,-2.3291,-2.3669,-2.3659,-2.3675,-2.3684,-2.3581,0.0,0.0,0.0,0.0,-2.3616,-2.3939,-2.4025,-2.4104,-2.4194,-2.3837,-2.3491,-2.3645,-2.3056,-2.2169,0.0,-2.1073,-2.107,-2.0852,0.0,0.0,0.0,0.0,-2.0899,-2.0903,-2.1146,-2.1526,-2.1901,-2.2285,-2.2714,-2.3258,-2.3826,-2.4465,-2.5048,-2.5214,-2.5422,-2.5887,-2.5423,-2.5243,-2.5333,0.0,0.0,0.0,0.0,0.0,0.0,0.0,0.0,0.0,0.0,0.0,0.0,0.0,0.0,0.0,0.0,0.0,0.0,0.0,0.0,0.0,0.0,0.0,0.0,0.0,0.0,0.0,0.0,0.0,-1.0193,-1.0671,0.0,0.0,0.0,0.0,-1.2723,-1.2734,-1.2854,-1.31,-1.3368,-1.38,-1.4274,-1.4521,-1.4735,-1.5083,-1.5547,-1.5743,-1.5858,-1.6911,-1.769,-1.8222,-1.8942,-1.9531,-2.0033,-2.0554,-2.0963,-2.1212,-2.081,-2.09,-2.1466,-2.2173,-2.2626,-2.3,-2.3651,-2.4113,-2.4398,-2.4866,-2.54,-2.5695,-2.4995,-2.453,-2.4205,-2.4375,-2.4432,0.0,0.0,-2.441,-2.4489,-2.4668,-2.4758,-2.4837,-2.4993,-2.4691,-2.4332,-2.4332,-2.4078,-2.3486,0.0,-2.2147,-2.2092,-2.2138,0.0,-2.2421,-2.1916,-2.212,-2.2151,-2.1722,-2.1925,-2.2235,-2.2519,-2.2726,-2.315,-2.3734,-2.4176,-2.4738,-2.5342,-2.5918,-2.6193,-2.6188,-2.6494,-2.6289,-2.5493,-2.5811,0.0,0.0,0.0,0.0,0.0,0.0,0.0,0.0,0.0,0.0,0.0,0.0,0.0,0.0,0.0,0.0,0.0,0.0,0.0,0.0,0.0,0.0,0.0,0.0,0.0,0.0,0.0,0.0,-1.083,-1.1367,0.0,-1.2281,-1.2547,-1.2757,-1.3008,-1.318,-1.357,-1.4104,-1.4308,-1.4558,-1.5052,-1.5255,-1.5454,-1.5553,-1.6021,-1.6497,-1.6793,-1.7398,-1.8105,-1.8914,-1.9261,-1.9895,-2.0609,-2.0814,-2.1224,-2.1802,-2.1845,-2.1996,-2.2338,-2.2654,-2.3121,-2.3486,-2.4156,-2.4628,-2.4995,-2.5533,-2.5885,-2.6151,-2.5881,-2.5581,-2.5245,-2.5183,-2.5315,-2.5584,-2.5425,-2.5558,-2.5861,-2.5954,-2.5943,-2.5954,-2.6035,-2.5566,-2.5045,-2.521,-2.4711,-2.4215,-2.3959,-2.3775,-2.3616,-2.341,-2.3559,-2.3588,-2.3179,-2.303,-2.2883,-2.2868,-2.2751,-2.2787,-2.3198,-2.3378,-2.3734,-2.4376,-2.4765,-2.5147,-2.5715,-2.619,-2.6567,-2.6842,-2.689,-2.6869,-2.6793,-2.6765,-2.6713,0.0,0.0,0.0,0.0,0.0,0.0,0.0,0.0,0.0,0.0,0.0,0.0,0.0,0.0,0.0,0.0,0.0,0.0,0.0,0.0,0.0,0.0,0.0,0.0,0.0,-0.9513,-1.0491,-1.1677,-1.2167,-1.2625,-1.3087,-1.3383,-1.3642,-1.3998,-1.4104,-1.4424,-1.498,-1.498,-1.5237,-1.5551,-1.5936,-1.6027,-1.6116,-1.6494,-1.6978,-1.7376,-1.7772,-1.8334,-1.9155,-1.9599,-2.0124,-2.0852,-2.1073,-2.1623,-2.2224,-2.2636,-2.2988,-2.3224,-2.3446,-2.3718,-2.4193,-2.4769,-2.5248,-2.5714,-2.6341,-2.6599,-2.6583,-2.6714,-2.6431,-2.6008,-2.5924,-2.6057,-2.6329,-2.6088,-2.6386,-2.6727,-2.6798,-2.688,-2.6835,-2.6758,-2.6233,-2.5647,-2.5639,-2.5156,-2.4838,-2.4921,-2.4838,-2.472,-2.4506,-2.4656,-2.4764,-2.4408,-2.4014,-2.3737,-2.3716,-2.3416,-2.339,-2.3747,-2.391,-2.4247,-2.4835,-2.5174,-2.555,-2.5988,-2.6418,-2.6907,-2.7386,-2.7418,-2.7469,-2.755,-2.7356,-2.7588,-2.8239,0.0,0.0,0.0,0.0,0.0,0.0,0.0,0.0,0.0,0.0,0.0,0.0,0.0,0.0,0.0,0.0,0.0,0.0,0.0,0.0,0.0,0.0,0.0,-0.8886,-1.0131,-1.1355,-1.2646,-1.3073,-1.3602,-1.4671,-1.4993,-1.519,-1.5481,-1.5543,-1.5496,-1.5496,-1.5673,-1.5829,-1.5852,-1.6305,-1.6601,-1.6588,-1.6878,-1.716,-1.7333,-1.7948,-1.8495,-1.8987,-1.9665,-2.0269,-2.0791,-2.1451,-2.2013,-2.2509,-2.3138,-2.3637,-2.4115,-2.443,-2.4637,-2.503,-2.58,-2.6294,-2.6658,-2.76,-2.7565,-2.7071,-2.7503,-2.7015,-2.6229,-2.6561,-2.6644,-2.6644,-2.6633,-2.6809,-2.6974,-2.7185,-2.7348,-2.7475,-2.7156,-2.6694,-2.6153,-2.5636,-2.5409,-2.5312,-2.5312,-2.53,-2.53,-2.53,-2.5676,-2.5783,-2.5498,-2.5094,0.0,-2.4253,-2.4034,-2.3949,-2.4112,-2.4363,-2.4637,-2.5005,-2.5453,-2.5879,-2.6297,-2.6765,-2.7248,-2.779,-2.8088,-2.8073,-2.7796,-2.7597,-2.8335,-2.9983,0.0,0.0,0.0,0.0,0.0,0.0,0.0,0.0,0.0,0.0,0.0,0.0,0.0,0.0,0.0,0.0,0.0,0.0,0.0,0.0,0.0,-0.7059,-0.8466,-0.9466,-1.0679,-1.1879,-1.2964,-1.376,-1.4501,-1.4975,-1.5232,-1.5413,-1.5505,-1.5626,-1.5771,-1.6077,-1.6273,-1.642,-1.6629,-1.6791,-1.6964,-1.7145,-1.7347,-1.7628,-1.7893,-1.8287,-1.8644,-1.9067,-1.955,-2.0168,-2.0728,-2.1395,-2.1951,-2.2464,-2.3132,-2.3476,-2.373,-2.4524,-2.5118,-2.5509,-2.6197,-2.6676,-2.7138,-2.7416,-2.7252,-2.6964,-2.705,-2.6812,-2.6561,-2.6727,-2.6809,-2.6891,-2.7196,-2.7278,-2.736,-2.7626,-2.7708,-2.7671,-2.7234,-2.6937,-2.6554,-2.6029,-2.5852,-2.5758,-2.5943,-2.6,-2.607,-2.607,-2.622,-2.617,-2.5952,-2.5472,0.0,-2.4758,-2.4333,-2.4229,-2.4677,-2.4835,-2.5104,-2.5619,-2.5839,-2.6165,-2.6659,-2.7041,-2.7452,-2.779,-2.8235,-2.8904,-2.9798,-3.024,-3.0778,0.0,0.0,0.0,0.0,0.0,0.0,0.0,0.0,0.0,0.0,0.0,0.0,0.0,0.0,0.0,0.0,0.0,0.0,0.0,0.0,0.0,0.0,-0.7277,-0.88,-1.0075,-1.1208,-1.2394,-1.3562,-1.4295,-1.4898,-1.538,-1.5763,-1.5965,-1.5965,-1.6228,-1.6357,-1.6558,-1.6739,-1.6861,-1.7134,-1.7254,-1.7441,-1.7613,-1.7807,-1.8001,-1.828,-1.8388,-1.8668,-1.9129,-1.9469,-2.0033,-2.0637,-2.1109,-2.1747,-2.2347,-2.2762,-2.3202,0.0,0.0,0.0,0.0,0.0,-2.6527,-2.703,-2.7131,-2.7062,-2.6926,-2.7023,-2.687,-2.6727,-2.6974,-2.7056,-2.7208,-2.7441,-2.7603,-2.7696,-2.795,-2.803,-2.7853,-2.7263,-2.7076,-2.6868,-2.619,-2.6049,-2.6164,-2.6289,-2.6496,0.0,-2.6518,-2.6346,-2.6311,-2.6322,-2.5652,-2.513,-2.5096,-2.4734,-2.462,-2.4948,-2.523,-2.5508,-2.5893,-2.6233,0.0,0.0,0.0,-2.8216,-2.8961,-2.936,0.0,0.0,0.0,-3.1887,-3.2465,0.0,0.0,0.0,-3.3572,-3.4174,0.0,0.0,0.0,0.0,0.0,0.0,0.0,0.0,0.0,0.0,0.0,0.0,0.0,0.0,0.0,0.0,-0.7397,-0.8872,-1.0398,-1.1662,-1.2916,-1.4179,-1.4598,-1.5097,-1.5878,-1.638,-1.676,-1.6753,-1.6967,-1.707,-1.6938,0.0,0.0,0.0,0.0,-1.7795,-1.8064,-1.8064,-1.8187,-1.8511,-1.8511,-1.8711,-1.9196,-1.952,-1.9947,-2.0432,-2.0802,-2.144,-2.2114,-2.2159,-2.2802,-2.3644,-2.4184,-2.439,-2.4608,-2.5543,-2.6145,-2.654,-2.6829,0.0,0.0,-2.7126,-2.7087,-2.6974,-2.7138,-2.7371,-2.751,-2.7592,-2.7777,-2.7962,-2.8179,-2.8211,-2.7992,-2.7366,-2.7236,-2.6919,-2.6119,-2.6233,-2.6414,-2.6483,-2.6744,-2.6876,-2.6726,-2.6388,-2.6232,-2.644,-2.5589,-2.509,-2.5335,-2.5158,-2.5061,-2.5118,0.0,0.0,-2.6101,-2.6673,-2.7103,-2.7275,-2.8248,-2.934,-3.0587,-3.097,-3.1351,-3.171,-3.1839,-3.2337,-3.3323,-3.3922,-3.4635,-3.5396,-3.4507,-3.507,0.0,0.0,0.0,0.0,0.0,0.0,0.0,0.0,0.0,0.0,0.0,0.0,0.0,0.0,0.0,-0.6096,-0.7471,-0.8874,-1.021,-1.1507,-1.2912,-1.4155,-1.4906,-1.5697,-1.648,-1.6599,-1.6758,-1.6933,-1.7127,-1.7117,-1.6856,-1.7249,-1.7372,-1.7107,-1.7107,-1.7278,-1.7536,-1.7536,-1.7772,-1.8316,0.0,0.0,-1.9188,-1.9461,-1.977,-2.0054,-2.0628,-2.1258,-2.1733,-2.2043,-2.2544,-2.33,-2.4569,-2.5065,-2.5168,-2.5885,-2.6104,-2.6139,-2.6509,-2.6697,-2.6696,-2.6873,-2.7053,-2.7138,-2.7371,-2.7441,0.0,-2.7926,-2.8099,-2.8259,-2.8566,-2.8319,-2.7924,-2.7519,-2.7262,-2.6912,-2.6439,-2.6496,-2.6782,-2.7188,-2.6946,-2.6778,-2.7022,-2.6751,-2.6296,-2.5725,-2.5515,-2.536,-2.5121,-2.5129,-2.5286,-2.5674,-2.6301,-2.6876,-2.7342,-2.7943,-2.8539,-2.9029,-2.9705,-3.0294,-3.074,-3.1593,-3.2212,-3.2496,-3.309,-3.3901,-3.4781,-3.491,-3.5639,-3.6902,-3.6593,-3.6605,0.0,0.0,0.0,0.0,0.0,0.0,0.0,0.0,0.0,0.0,0.0,-0.2114,-0.2681,0.0,-0.4942,-0.6141,-0.745,-0.88,-1.0145,-1.1343,-1.2592,-1.3957,-1.4818,-1.5635,-1.6357,-1.6525,-1.6661,-1.6697,-1.7094,-1.7135,-1.6802,-1.7063,-1.7255,-1.7175,-1.7175,-1.735,-1.7597,-1.7597,-1.7779,-1.8033,-1.8216,-1.8571,-1.9109,-1.9405,-1.9762,-2.0119,-2.0405,-2.0859,-2.1316,-2.2053,-2.2472,-2.2853,-2.4058,-2.4515,-2.4593,-2.5378,-2.5667,-2.5637,-2.6171,-2.6523,-2.6644,-2.6809,-2.7067,-2.7219,-2.7441,-2.7603,-2.7777,-2.8099,-2.8327,-2.8505,-2.8397,-2.8285,-2.7959,-2.7385,-2.7195,-2.6976,-2.6622,-2.685,-2.7111,-2.7091,-2.7,-2.681,-2.6564,-2.6396,-2.6121,-2.5714,-2.5482,-2.5287,-2.5327,-2.5453,-2.5674,-2.5948,-2.6517,-2.7104,-2.765,-2.858,-2.9535,-3.0448,-3.0852,-3.1374,-3.2029,-3.2598,-3.3029,-3.3283,-3.3721,-3.4304,-3.5185,-3.5558,-3.6287,-3.7323,-3.764,-3.7633,0.0,0.0,0.0,0.0,0.0,0.0,0.0,-0.2727,-0.2147,-0.228,-0.2167,-0.2284,-0.2957,-0.3871,-0.4973,-0.6094,-0.732,-0.8601,-0.9901,-1.0949,-1.2103,-1.3418,-1.4365,-1.5201,-1.5859,-1.6227,-1.6401,-1.6428,-1.686,-1.6989,-1.6653,-1.6813,-1.6965,-1.7148,-1.7148,-1.7227,-1.7564,-1.7564,-1.7604,-1.7676,-1.7962,-1.8402,-1.8927,-1.9307,-1.9745,-2.0189,-2.0348,-2.0645,-2.1078,-2.1989,-2.2441,-2.253,-2.3396,-2.3841,-2.3927,-2.4861,-2.52,-2.5285,-2.6063,-2.6396,-2.6644,-2.6891,-2.7056,-2.7301,-2.7534,-2.7788,-2.8042,-2.8179,-2.8414,-2.8548,-2.8187,-2.8084,-2.7878,-2.7232,-2.7122,-2.7037,-2.6883,-2.7188,-2.7353,-2.6843,-2.698,-2.6894,-2.6058,-2.5891,-2.5823,-2.5823,-2.5445,-2.5286,-2.5674,-2.5893,-2.6056,-2.6233,-2.6722,-2.7365,-2.8148,-2.9268,-3.041,-3.1536,-3.1827,-3.2357,-3.3277,-3.345,-3.3642,-3.3899,-3.3949,-3.4436,-3.5412,-3.6011,-3.6724,-3.7549,-3.8116,-3.8221,-1.1855,-0.9632,-0.7362,-0.625,-0.5036,-0.4062,0.0,-0.2826,-0.2281,-0.2335,-0.2388,-0.2597,-0.3114,-0.4043,-0.4989,-0.5971,-0.7132,-0.8208,-0.9288,-1.0401,-1.1431,-1.256,-1.3603,-1.4501,-1.5057,-1.5507,-1.5845,-1.6084,-1.6529,-1.6645,-1.6309,-1.6473,-1.6514,-1.6209,-1.6285,-1.636,-1.6511,-1.6593,-1.6841,-1.7334,-1.7374,-1.7806,-1.8547,-1.8919,-1.9351,-1.9821,-2.0587,-2.0907,-2.1078,-2.1989,-2.2441,-2.253,-2.3396,-2.3841,-2.3927,-2.4861,-2.52,-2.5369,-2.6218,-2.6561,-2.6644,-2.7056,-2.729,-2.7534,-2.78,-2.803,-2.8179,-2.8431,-2.8307,-2.8163,-2.8255,-2.7693,-2.7242,-2.7485,-2.7113,-2.6858,-2.7348,-2.7469,-2.7486,-2.7344,-2.7085,-2.6701,-2.6185,-2.5766,-2.5549,-2.5549,-2.5689,-2.5839,-2.5893,-2.6204,-2.6525,-2.6727,-2.7365,-2.8454,-3.0067,-3.0797,-3.1513,-3.2228,-3.2687,-3.3071,-3.3309,-3.3555,-3.3761,-3.3899,-3.4,-3.4781,-3.6189,-3.627,-3.6983,-3.8278,-3.8359,-3.8351,-0.962,-0.7985,-0.6425,-0.5563,-0.466,-0.3849,-0.3337,-0.2765,-0.2327,-0.2518,-0.2509,-0.2657,-0.3096,-0.3739,-0.4561,-0.5542,-0.6517,-0.7577,-0.8723,-0.9754,-1.0685,-1.156,-1.2348,-1.351,-1.484,-1.5136,-1.5328,-1.55,-1.6009,-1.6122,-1.5789,-1.6126,-1.624,-1.6095,-1.6087,-1.617,-1.6245,-1.6245,-1.6397,-1.6794,-1.6991,-1.7419,-1.7997,-1.8444,-1.9083,-1.9761,-2.0659,-2.0997,-2.1078,-2.1989,-2.2441,-2.253,-2.3396,-2.3841,-2.3927,-2.4861,-2.52,-2.5369,-2.6302,-2.6644,-2.6644,-2.7067,-2.7371,-2.7522,-2.78,-2.7817,-2.7806,-2.8108,-2.7964,-2.7704,-2.7558,-2.7429,-2.7289,-2.7088,-2.7097,-2.7255,-2.7456,-2.7789,-2.7759,-2.7166,-2.6972,-2.6663,-2.5992,-2.5786,-2.5743,-2.5853,-2.5907,-2.6002,-2.6394,-2.6553,-2.6803,-2.7233,-2.7861,-2.8883,-3.0335,-3.1044,-3.1782,-3.2765,-3.3081,-3.3293,-3.3503,-3.371,-3.3899,-3.4,-3.405,-3.4829,-3.6303,-3.6303,-3.7031,-3.8391,-3.8391,-3.8351,-0.7674,-0.6616,-0.5712,-0.5053,-0.4363,-0.3692,-0.3245,-0.2767,-0.2505,-0.2688,-0.2589,-0.2651,-0.3106,-0.3462,-0.3999,-0.5001,-0.5894,-0.6868,-0.7929,-0.8894,-0.9767,-1.0636,-1.1241,-1.2331,-1.4052,-1.4451,-1.4623,-1.4747,-1.5155,-1.5304,-1.5068,-1.5409,-1.5665,-1.5665,-1.5665,-1.5756,-1.5839,-1.5914,-1.5997,-1.6229,-1.6567,-1.6936,-1.7379,-1.8074,-1.8877,-1.9607,-2.0501,-2.0846,-2.0944,-2.1943,-2.2441,-2.253,-2.3396,-2.3841,-2.3927,-2.4861,-2.52,-2.5369,-2.6302,-2.6644,-2.6644,-2.7067,-2.7383,-2.7592,-2.7636,-2.7557,-2.7514,-2.7742,-2.7555,-2.7201,-2.7108,-2.718,-2.7246,-2.6952,-2.7188,-2.7523,-2.7669,-2.8039,-2.8079,-2.704,-2.7037,-2.6817,-2.5939,-2.5893,-2.6002,-2.6286,-2.6233,-2.6286,-2.6727,-2.6937,-2.7181,-2.7625,-2.8177,-2.8991,-3.0058,-3.0824,-3.1716,-3.2804,-3.3198,-3.345,-3.3745,-3.3899,-3.4,-3.4151,-3.4201,-3.4834,-3.6101,-3.6296,-3.7026,-3.8212,-3.8351,-3.8464,-0.6619,-0.5821,-0.5041,-0.4651,-0.4157,-0.3708,-0.3313,-0.301,-0.2868,-0.2763,-0.2527,-0.2545,-0.3029,-0.3128,-0.3587,-0.4554,-0.5277,-0.6074,-0.7051,-0.7929,-0.8894,-0.9854,-1.0376,-1.0987,-1.2037,-1.29,-1.3502,-1.375,-1.399,-1.4146,-1.4139,-1.4307,-1.4482,-1.4482,-1.465,-1.4908,-1.509,-1.5318,-1.5477,-1.5733,-1.6154,-1.6492,-1.6762,-1.778,-1.8659,-1.9299,-2.0114,-2.0553,-2.0579,-2.1919,-2.2441,-2.253,-2.3396,-2.3841,-2.3927,-2.4861,-2.52,-2.5369,-2.6302,-2.6644,-2.6644,-2.7067,-2.7476,-2.7787,-2.7293,-2.7352,-2.7609,-2.7306,-2.6993,-2.6806,-2.7114,-2.6924,-2.6807,-2.7201,-2.739,-2.7603,-2.8013,-2.8341,-2.8298,-2.7195,-2.7276,-2.7137,-2.6063,-2.6002,-2.6233,-2.6727,-2.6779,-2.6779,-2.6779,-2.7269,-2.7625,-2.779,-2.8168,-2.8655,-2.9381,-3.0382,-3.1357,-3.2187,-3.3002,-3.3607,-3.3899,-3.4,-3.4151,-3.43,-3.4399,-3.4874,-3.5627,-3.6348,-3.7052,-3.7756,-3.8329,-3.856,-0.5395,-0.4914,-0.4433,-0.4184,-0.3804,-0.3469,-0.3396,-0.3134,-0.2852,-0.271,-0.2497,-0.236,-0.2206,-0.2494,-0.2873,-0.3418,-0.4257,-0.5099,-0.6074,-0.6868,-0.7749,-0.8632,-0.9157,-0.9763,-1.0549,-1.1757,-1.2619,-1.3045,-1.3215,-1.3385,-1.3385,-1.3639,-1.3815,-1.3899,-1.3868,-1.3933,-1.4358,-1.4433,-1.4753,-1.5249,-1.6039,-1.6476,-1.6746,-1.7696,-1.8272,-1.8651,-1.9633,-2.0057,-2.0152,-2.1211,-2.1599,-2.1693,-2.2621,-2.2965,-2.3049,-2.3958,-2.4285,-2.4452,-2.608,-2.6644,-2.6715,-2.7208,-2.7393,-2.734,-2.7309,-2.7071,-2.6833,-2.6883,-2.6599,-2.6474,-2.6785,-2.6866,-2.7011,-2.7335,-2.7669,-2.8013,-2.8327,-2.8587,-2.8425,-2.7525,-2.7513,-2.7297,-2.6214,-2.634,-2.6727,-2.7144,-2.7196,-2.7248,-2.7321,-2.759,-2.784,-2.8152,-2.8299,-2.8771,-2.9697,-3.06,-3.1476,-3.2355,-3.3259,-3.3848,-3.405,-3.4151,-3.43,-3.4448,-3.4497,-3.4857,-3.5594,-3.584,-3.6315,-3.7003,-3.7687,-3.7976,-0.4167,-0.3954,-0.3804,-0.3724,-0.356,-0.3375,-0.3273,-0.3095,-0.2818,-0.2506,-0.2234,-0.1951,-0.1639,-0.1757,-0.1963,-0.2339,-0.3072,-0.3903,-0.4821,-0.5628,-0.6514,-0.7401,-0.7929,-0.854,-0.9331,-1.0193,-1.1144,-1.2015,-1.2272,-1.2357,-1.2357,-1.2619,-1.2875,-1.313,-1.2939,-1.3041,-1.3546,-1.3601,-1.4086,-1.5006,-1.5619,-1.6195,-1.6738,-1.7309,-1.7747,-1.8169,-1.8961,-1.9472,-1.9658,-2.0708,-2.1099,-2.1265,-2.2185,-2.2523,-2.2605,-2.3496,-2.3828,-2.4015,-2.5769,-2.6181,-2.6219,-2.6944,-2.7065,-2.6788,-2.6818,-2.6659,-2.6372,-2.6404,-2.6309,-2.6314,-2.6726,-2.7011,-2.7268,-2.7523,-2.7934,-2.8341,-2.8522,-2.8844,-2.874,-2.7764,-2.7689,-2.7527,-2.65,-2.6712,-2.7144,-2.7437,-2.7488,-2.759,-2.7675,-2.789,-2.8088,-2.8348,-2.8493,-2.8887,-2.9643,-3.0654,-3.1529,-3.2189,-3.3317,-3.405,-3.4151,-3.4349,-3.4497,-3.4546,-3.4594,-3.4873,-3.535,-3.5613,-3.5975,-3.6436,-3.737,-3.7793,-0.2865,-0.2946,-0.3076,-0.3293,-0.3428,-0.3348,-0.2985,-0.2913,-0.2696,-0.2188,-0.171,-0.1371,-0.1249,-0.088,-0.0824,-0.1292,-0.1821,-0.2446,-0.339,-0.4293,-0.5186,-0.6163,-0.6697,-0.7312,-0.8277,-0.8368,-0.9065,-1.0717,-1.1063,-1.1241,-1.1241,-1.1413,-1.1671,-1.1929,-1.1931,-1.2129,-1.263,-1.2827,-1.3539,-1.4896,-1.4977,-1.5551,-1.6624,-1.6624,-1.7033,-1.7716,-1.8317,-1.8811,-1.935,-2.0384,-2.0959,-2.1199,-2.2116,-2.2452,-2.2534,-2.3433,-2.3753,-2.3897,-2.5256,-2.5452,-2.5228,-2.6322,-2.6527,-2.624,-2.5905,-2.6105,-2.6334,-2.6045,-2.6164,-2.6496,-2.6943,-2.7268,-2.759,-2.7789,-2.8249,-2.8587,-2.8651,-2.9008,-2.901,-2.79,-2.7822,-2.7712,-2.6944,-2.7144,-2.7452,-2.7575,-2.774,-2.784,-2.784,-2.8152,-2.8411,-2.8396,-2.87,-2.8967,-2.9075,-3.0545,-3.1534,-3.1774,-3.3258,-3.4151,-3.43,-3.4546,-3.4691,-3.4691,-3.4851,-3.4899,-3.4899,-3.5595,-3.5943,-3.5976,-3.7263,-3.7903,-0.16,-0.196,-0.2322,-0.2717,-0.2886,-0.2986,-0.2973,-0.2767,-0.233,-0.175,-0.1246,-0.0668,0.0,0.0156,0.0161,0.0084,-0.0429,-0.1137,-0.1873,-0.2685,-0.3491,-0.4383,-0.5095,-0.5808,-0.6337,-0.7048,-0.7665,-0.8101,-0.9144,-0.9845,-1.0033,-1.012,-1.0381,-1.0977,-1.0601,-1.0806,-1.1532,-1.2296,-1.2921,-1.3691,-1.4324,-1.4887,-1.5448,-1.6108,-1.6726,-1.7302,-1.789,-1.8429,-1.8932,-1.9496,-1.9934,-2.0334,-2.1046,-2.137,-2.1625,-2.2457,-2.2764,-2.2981,-2.4304,-2.487,-2.525,-2.6151,-2.6066,-2.5769,-2.6166,-2.6129,-2.607,-2.6201,-2.6427,-2.6714,-2.7268,-2.7469,-2.7656,-2.8249,-2.8522,-2.8716,-2.9099,-2.8976,-2.8601,-2.8034,-2.7483,-2.7171,-2.7255,-2.7437,-2.7575,-2.774,-2.8039,-2.825,-2.825,-2.8348,-2.8493,-2.8748,-2.8936,-2.9121,-2.9259,-3.0766,-3.1774,-3.1963,-3.3405,-3.4349,-3.4594,-3.4643,-3.4756,-3.4851,-3.4899,-3.4899,-3.4899,-3.5081,-3.5181,-3.5197,-3.6075,-3.6803,-0.0196,-0.0799,-0.1349,-0.1918,-0.22,-0.2418,-0.2525,-0.2252,-0.1829,-0.1196,-0.0639,0.0,0.0963,0.1215,0.1338,0.1498,0.1018,0.0346,-0.0357,-0.1164,-0.2067,-0.3082,-0.372,-0.4355,-0.4987,-0.5528,-0.6048,-0.6349,-0.7746,-0.8711,-0.8986,-0.899,-0.9336,-1.0033,-0.9549,-0.9727,-1.0634,-1.1413,-1.2158,-1.2908,-1.3452,-1.408,-1.4786,-1.5347,-1.5929,-1.65,0.0,-1.7543,-1.8108,-1.8659,-1.9201,-1.9695,-2.0488,-2.0964,-2.1282,-2.2025,-2.2327,-2.2596,-2.3694,-2.4273,-2.4771,-2.5657,-2.5624,-2.5274,-2.5841,-2.599,-2.5968,-2.6289,-2.6645,-2.693,-2.7403,-2.7603,-2.7868,-2.8457,-2.8716,-2.8908,-2.9415,-2.9111,-2.8587,-2.7997,-2.7407,-2.7144,-2.7437,-2.759,-2.779,-2.8054,-2.825,-2.8444,-2.8621,-2.8621,-2.87,-2.8967,-2.9121,-2.9259,-2.9441,-3.0969,-3.1916,-3.2073,-3.3615,-3.4546,-3.4691,-3.4787,-3.4899,-3.4994,-3.5041,-3.5105,-3.5105,-3.5105,-3.5105,-3.5105,-3.5806,-3.6388,0.1333,0.0456,-0.0266,-0.1002,-0.1471,-0.1741,-0.1747,-0.1614,-0.121,-0.047,0.0137,0.0843,0.1808,0.2297,0.2623,0.282,0.2435,0.1878,0.1159,0.0179,-0.0723,-0.1659,-0.2304,-0.2948,-0.3788,-0.4055,-0.4383,-0.502,-0.6422,-0.7482,-0.7933,-0.7933,-0.8265,-0.9009,-0.8769,-0.8964,-0.9771,-1.0368,-1.1226,-1.2305,-1.2533,-1.3223,-1.4292,-1.4532,-1.5019,-1.5682,-1.6081,0.0,-1.722,-1.7935,-1.8623,-1.9288,-2.0101,-2.0631,-2.111,-2.1697,-2.2072,-2.2371,-2.311,-2.3548,-2.3868,-2.5028,-2.5142,-2.4921,-2.5477,-2.5828,-2.6037,-2.6358,-2.6782,-2.7146,-2.7469,-2.7868,-2.8276,-2.8587,-2.8839,-2.9101,-2.9428,-2.9124,-2.851,-2.7824,-2.7579,-2.7488,-2.7625,-2.779,-2.8005,-2.8348,-2.8444,-2.8573,-2.8873,-2.892,-2.8967,-2.9121,-2.9259,-2.9441,-2.9681,-3.1154,-3.212,-3.2229,-3.3806,-3.4739,-3.4739,-3.4994,-3.5152,-3.5152,-3.5245,-3.5291,-3.5291,-3.5291,-3.5291,-3.5308,-3.5961,-3.6312,0.259,0.1553,0.0692,-0.0129,-0.0714,-0.1044,-0.1003,-0.0739,-0.0336,0.0403,0.1146,0.1921,0.2882,0.3356,0.3628,0.3971,0.361,0.3158,0.285,0.1973,0.1084,0.0369,-0.0547,-0.127,-0.1847,-0.2639,-0.3238,-0.3315,-0.4115,-0.5181,-0.6605,-0.6694,-0.7111,-0.7867,-0.8383,-0.8809,-0.9155,-0.9765,-1.0391,-1.1109,-1.1776,-1.2457,-1.3126,-1.3827,-1.4508,-1.5227,-1.5843,0.0,-1.6968,-1.7424,-1.7995,-1.8592,-1.9123,-1.9595,-2.0192,-2.0741,-2.11,-2.1336,-2.2092,-2.2522,-2.2878,-2.447,-2.5064,-2.5324,-2.5688,-2.6094,-2.6358,-2.6794,-2.7146,-2.7469,-2.7868,-2.8276,-2.8587,-2.8908,-2.8823,-2.8755,-2.8965,-2.8426,-2.7839,-2.7647,-2.7599,-2.7625,-2.7905,-2.8152,-2.8299,-2.8411,-2.8653,-2.8873,-2.9029,-2.9075,-2.9121,-2.9259,-2.9544,-2.9722,-2.9766,-3.1336,-3.2351,-3.2426,-3.3978,-3.4899,-3.5041,-3.5198,-3.5245,-3.5245,-3.5291,-3.5291,-3.5291,-3.5291,-3.5291,-3.5291,-3.5425,-3.5827,0.3975,0.2822,0.1791,0.1003,0.0382,0.0,-0.0131,0.0133,0.0605,0.1208,0.1946,0.273,0.3672,0.4145,0.4566,0.4882,0.458,0.4244,0.386,0.3115,0.2258,0.1567,0.0825,0.0091,-0.0647,-0.11,-0.1632,-0.2064,-0.2509,-0.358,-0.545,-0.6011,-0.649,-0.6947,-0.7597,-0.8145,-0.8556,-0.916,-0.976,-1.0513,-1.1111,-1.1702,-1.2437,-1.3124,-1.3732,-1.4328,-1.4993,0.0,-1.61,-1.682,-1.7423,-1.7953,-1.8616,-1.9214,-1.9795,-2.0359,-2.0726,-2.109,-2.1849,-2.2332,-2.2754,-2.3802,-2.4491,-2.4972,-2.5343,-2.594,-2.6496,-2.6998,-2.7335,-2.7656,-2.8197,-2.8241,-2.8252,-2.874,-2.8739,-2.854,-2.8312,-2.8199,-2.8001,-2.7643,-2.7725,-2.789,-2.8152,-2.8299,-2.8616,-2.9247,-2.9469,-2.9785,-3.0354,-3.0177,-2.9886,-2.9592,-2.9705,-2.9853,-3.0,-3.1516,-3.2488,-3.259,-3.4117,-3.5041,-3.5198,-3.5337,-3.5383,-3.5383,-3.5429,-3.5458,-3.5458,-3.5458,-3.5458,-3.5458,-3.5458,-3.566,0.5164,0.4005,0.2861,0.2071,0.149,0.1014,0.0834,0.1114,0.1534,0.2144,0.2751,0.3483,0.4459,0.4939,0.5291,0.561,0.5451,0.5152,0.4669,0.4064,0.334,0.2579,0.2118,0.1473,0.0555,0.0368,-0.0091,-0.0898,-0.1429,-0.2492,-0.4353,-0.5415,-0.5981,-0.6071,-0.6771,-0.7427,-0.7876,-0.8475,-0.9231,-0.9992,-1.0438,-1.1037,-1.1855,-1.2452,-1.2973,-1.3411,-1.406,0.0,0.0,-1.5953,-1.6661,-1.7275,-1.7947,-1.8701,-1.9362,-1.9849,-2.0362,-2.0791,-2.1459,-2.2015,-2.2486,-2.3018,-2.3778,-2.4498,-2.4927,-2.5535,-2.6278,-2.6827,-2.7104,-2.7419,-2.8015,-2.7931,-2.7721,-2.8236,-2.834,-2.8274,-2.7704,-2.7986,-2.8188,-2.778,-2.789,-2.8152,-2.8396,-2.8493,-2.8917,-3.0022,-3.0228,-3.0625,-3.155,-3.1338,-3.0956,-3.0417,-3.012,-3.0044,-3.0231,-3.1677,-3.2635,-3.2785,-3.4272,-3.5245,-3.5337,-3.5492,-3.5566,-3.5566,-3.5639,-3.5711,-3.5711,-3.5711,-3.5711,-3.5711,-3.5711,-3.5711,0.5998,0.4807,0.3762,0.3006,0.2246,0.1745,0.1968,0.2128,0.2411,0.3203,0.3623,0.423,0.5315,0.5584,0.5875,0.6238,0.6267,0.599,0.5446,0.5034,0.4598,0.3869,0.3362,0.2717,0.2033,0.1547,0.1079,0.0538,-0.0705,-0.209,-0.357,-0.4513,-0.5099,-0.5289,-0.5919,-0.6644,-0.7261,-0.7872,-0.856,-0.9397,-0.9992,-1.0588,-1.1186,-1.1781,-1.2378,-1.2952,-1.3439,-1.394,0.0,-1.4798,-1.5411,-1.6296,-1.6661,-1.7437,-1.8456,-1.8795,-1.9266,-1.9809,-2.0336,-2.0921,-2.1435,-2.1879,-2.3067,-2.4362,-2.4701,-2.5114,-2.5461,-2.5855,-2.6156,-2.6529,-2.685,-2.7127,-2.7353,-2.7414,-2.7633,-2.769,-2.7298,-2.7461,-2.775,-2.792,-2.8152,-2.8396,-2.8589,-2.8858,-2.9328,-3.0069,-3.0433,-3.0908,-3.1819,-3.1915,-3.1974,-3.2212,-3.109,-3.0359,-3.0485,-3.1938,-3.2934,-3.3054,-3.4578,-3.5446,-3.5492,-3.5656,-3.5773,-3.5773,-3.5905,-3.5975,-3.5975,-3.5975,-3.5975,-3.5975,-3.5975,-3.5975,0.6754,0.5585,0.4503,0.3865,0.3273,0.2798,0.2923,0.3089,0.3377,0.388,0.4417,0.5005,0.562,0.6023,0.6399,0.668,0.6616,0.6469,0.6276,0.5776,0.5292,0.489,0.423,0.3687,0.3086,0.2613,0.1872,0.0968,-0.0086,-0.1016,-0.1922,-0.3336,-0.4298,-0.4622,-0.5277,-0.5999,-0.6556,-0.7253,-0.7949,-0.8784,-0.925,-0.9849,-1.0504,-1.1072,-1.1565,-1.2059,-1.2698,-1.3188,0.0,-1.4181,-1.481,-1.5411,-1.6011,-1.6636,-1.7301,-1.7809,-1.8257,-1.8712,-1.9328,-2.0076,-2.0811,-2.1437,-2.2445,-2.3567,-2.4154,-2.4849,-2.5484,-2.5861,-2.6233,-2.6688,-2.6991,-2.719,-2.7272,-2.7032,-2.7195,-2.7386,-2.7431,-2.764,-2.7905,-2.8201,-2.8396,-2.8573,-2.8858,-2.8982,-2.9547,-3.0959,-3.1324,-3.1916,-3.321,-3.3205,-3.3113,-3.3251,-3.2387,-3.1835,-3.1921,-3.3,-3.3734,-3.3883,-3.4947,-3.5611,-3.5701,-3.5817,-3.5932,-3.5932,-3.5975,-3.6019,-3.6019,-3.6019,-3.6019,-3.6019,-3.6019,-3.6019,0.7293,0.6201,0.5221,0.4699,0.4171,0.376,0.3727,0.3857,0.4125,0.4593,0.5095,0.557,0.6046,0.6471,0.6753,0.6996,0.6903,0.6867,0.6702,0.635,0.5902,0.5547,0.501,0.4476,0.3853,0.3209,0.2459,0.1366,0.0588,-0.0165,-0.0807,-0.2251,-0.3372,-0.3852,-0.4656,-0.5318,-0.6009,-0.6667,-0.7407,-0.8161,-0.8548,-0.9098,-0.9818,-1.0341,-1.088,-1.1361,-1.202,-1.2513,0.0,-1.3526,-1.4199,-1.4801,-1.546,-1.6027,-1.6571,-1.7143,-1.7615,-1.8059,-1.8681,-1.9437,-2.0266,-2.0926,-2.1849,-2.2786,-2.3462,-2.4359,-2.5166,-2.5519,-2.6075,-2.6576,-2.681,-2.7004,-2.7115,-2.6842,-2.7078,-2.7372,-2.7575,-2.789,-2.8152,-2.8363,-2.8589,-2.8811,-2.9045,-2.9213,-2.9795,-3.1322,-3.188,-3.2606,-3.3973,-3.4162,-3.4167,-3.4213,-3.3822,-3.3428,-3.3054,-3.3795,-3.4347,-3.4496,-3.526,-3.5756,-3.5861,-3.5993,-3.6079,-3.6079,-3.6105,-3.6148,-3.6148,-3.6191,-3.6208,-3.6208,-3.6208,-3.6208,0.7467,0.671,0.6033,0.5373,0.4847,0.4519,0.4592,0.4495,0.4631,0.544,0.5572,0.5874,0.678,0.6994,0.7053,0.7153,0.7228,0.7116,0.6785,0.6787,0.6526,0.5808,0.5719,0.5275,0.4389,0.3432,0.2562,0.204,0.1221,0.0,-0.0551,-0.1412,-0.2273,-0.3054,-0.3992,-0.4771,-0.5622,-0.6252,-0.6923,-0.7516,-0.7897,-0.8438,-0.9006,-0.9555,-1.0182,-1.0936,-1.1322,-1.1913,0.0,-1.271,-1.345,-1.4461,-1.4782,-1.5551,-1.6561,-1.6905,-1.742,-1.8071,-1.8545,-1.9105,-1.9707,-2.0381,-2.1272,-2.2211,-2.2815,-2.3553,-2.4184,-2.4691,-2.5355,-2.5921,-2.5907,-2.6354,-2.6794,-2.6779,-2.7233,-2.7625,-2.7625,-2.8039,-2.8411,-2.8411,-2.8763,-2.9091,-2.9075,-2.9499,-3.0053,-3.0781,-3.1756,-3.2722,-3.366,-3.4435,-3.4977,-3.5245,-3.5441,-3.4969,-3.3422,-3.4057,-3.4532,-3.4695,-3.5522,-3.5975,-3.6019,-3.6122,-3.6225,-3.6225,-3.6377,-3.6502,-3.6502,-3.6643,-3.6702,-3.6702,-3.6702,-3.6702,0.7708,0.7012,0.6329,0.595,0.5502,0.514,0.5311,0.527,0.5338,0.5884,0.6227,0.6512,0.695,0.7167,0.7343,0.7399,0.7465,0.7447,0.7116,0.7042,0.6877,0.6523,0.5917,0.5254,0.4293,0.3733,0.3054,0.2441,0.1764,0.1022,0.023,-0.0536,-0.153,-0.26,-0.3438,-0.4091,-0.4543,-0.5313,-0.6092,-0.6744,-0.7267,-0.7867,-0.8548,-0.9064,-0.9586,-1.0183,-1.067,0.0,0.0,-1.2166,-1.2739,-1.3515,-1.4074,-1.4687,-1.5369,-1.5906,-1.6516,-1.7101,-1.7701,-1.8587,-1.9553,-2.0133,-2.102,-2.1901,-2.236,-2.3358,-2.4536,-2.5328,-2.5729,-2.6002,-2.6394,-2.6674,-2.6884,-2.7284,-2.7473,-2.7675,-2.8088,-2.8299,-2.8493,-2.8811,-2.8998,-2.9213,-2.9499,-2.9705,-3.0097,-3.1022,-3.1966,-3.2871,-3.3707,-3.4697,-3.5396,-3.5503,-3.5711,-3.5613,-3.4935,-3.5263,-3.553,-3.5574,-3.5968,-3.6216,-3.6216,-3.6419,-3.652,-3.652,-3.6602,-3.6643,-3.6643,-3.6702,-3.6702,-3.6702,-3.6702,-3.6702,0.7836,0.7182,0.6578,0.6314,0.5993,0.5754,0.5883,0.5841,0.5977,0.6417,0.6694,0.6891,0.7135,0.7331,0.7504,0.7577,0.7592,0.7548,0.7442,0.7249,0.6946,0.6634,0.5941,0.517,0.4407,0.3963,0.3387,0.2695,0.203,0.1379,0.0598,-0.0149,-0.0966,-0.1912,-0.2891,-0.3624,-0.4077,-0.4819,-0.5506,-0.6075,-0.6668,-0.7185,-0.7784,-0.837,-0.8907,-0.9391,0.0,0.0,0.0,-1.1496,-1.2182,-1.2904,-1.3551,-1.42,-1.4909,-1.5517,-1.6177,-1.6759,-1.7346,-1.8212,-1.9171,-1.9738,-2.0775,-2.1903,-2.2538,-2.3566,-2.4749,-2.5659,-2.6056,-2.634,-2.6765,-2.6974,-2.7233,-2.7675,-2.7825,-2.7989,-2.8396,-2.8589,-2.8763,-2.9029,-2.9259,-2.947,-2.9766,-2.9941,-3.0277,-3.0882,-3.1835,-3.2723,-3.3545,-3.4549,-3.5345,-3.5722,-3.5975,-3.6062,-3.5871,-3.6002,-3.6088,-3.6088,-3.6318,-3.6444,-3.6444,-3.6602,-3.6702,-3.6702,-3.6766,-3.6806,-3.6806,-3.6886,-3.6926,-3.6926,-3.6926,-3.6926,0.0,0.7381,0.6854,0.6589,0.6386,0.6293,0.626,0.6229,0.0,0.6927,0.6994,0.7123,0.7375,0.7484,0.7541,0.7732,0.75,0.7337,0.7576,0.7299,0.69,0.634,0.5881,0.5268,0.4644,0.421,0.3572,0.2808,0.2188,0.1492,0.0582,-0.0145,-0.0646,-0.1049,-0.2289,-0.3258,-0.3982,-0.4582,-0.5149,-0.5572,-0.61,-0.6544,-0.6924,-0.7637,-0.8223,0.0,0.0,0.0,0.0,-1.0823,-1.1636,-1.2589,-1.3208,-1.4032,-1.5015,-1.5614,-1.6279,-1.6918,-1.7483,-1.8123,-1.8737,-1.9288,-2.0528,-2.2054,-2.3035,-2.3912,-2.4718,-2.5655,-2.6322,-2.6774,-2.6997,-2.7306,-2.7725,-2.7959,-2.8235,-2.8444,-2.8573,-2.8905,-2.9121,-2.9167,-2.9499,-2.9793,-2.9837,-3.0199,-3.0526,-3.051,-3.1366,-3.2337,-3.3203,-3.399,-3.4822,-3.5865,-3.613,-3.6291,-3.6343,-3.6343,-3.6343,-3.6343,-3.6602,-3.6742,-3.6742,-3.6742,-3.6742,-3.6742,-3.6926,-3.7027,-3.7027,-3.722,-3.7297,-3.7297,-3.7297,-3.7297,0.8528,0.0,0.7525,0.7316,0.7176,0.6974,0.0,0.682,0.6809,0.6873,0.6919,0.697,0.7065,0.7019,0.7076,0.7247,0.7337,0.734,0.7328,0.7125,0.6794,0.6331,0.5972,0.5577,0.4874,0.4242,0.3751,0.3251,0.2601,0.1891,0.1204,0.0637,0.0,-0.0611,-0.1503,-0.2262,-0.3014,-0.3738,-0.44,-0.5014,-0.5711,-0.6278,-0.6718,-0.7356,-0.7917,0.0,0.0,0.0,-1.002,-1.053,-1.1202,-1.1955,-1.2582,-1.3504,-1.4551,-1.5153,-1.604,-1.7016,-1.762,-1.834,-1.9044,-1.9915,-2.0699,-2.1551,-2.2547,-2.3455,-2.4353,-2.536,-2.5908,-2.6396,-2.7238,-2.766,-2.7974,-2.8235,-2.8477,-2.87,-2.8936,-2.9121,-2.9335,-2.9589,-2.9705,-2.9897,-3.0284,-3.0426,-3.0609,-3.0855,-3.1638,-3.2341,-3.2591,-3.3499,-3.4455,-3.5287,-3.5578,-3.5966,-3.6638,-3.6626,-3.6602,-3.6602,-3.6788,-3.6948,-3.6948,-3.7066,-3.7161,-3.7161,-3.72,-3.722,-3.722,-3.7259,-3.7334,-3.7392,-3.7392,-3.7429,0.9036,0.8375,0.7801,0.7664,0.7446,0.7254,0.7271,0.7146,0.7053,0.708,0.704,0.6992,0.6923,0.6928,0.7032,0.7204,0.7285,0.7253,0.7086,0.6929,0.6708,0.6152,0.6003,0.5624,0.4802,0.4299,0.3894,0.3439,0.2813,0.2194,0.1654,0.1019,0.0469,-0.0132,-0.0847,-0.1703,-0.2684,-0.3379,-0.4012,-0.4602,-0.525,-0.5805,-0.6273,-0.6946,-0.7495,0.0,0.0,0.0,-0.9438,-0.9976,-1.0716,-1.1516,-1.2286,-1.3195,-1.4213,-1.5114,-1.6028,-1.7002,-1.7816,-1.8709,-1.9695,-2.0406,-2.0988,-2.1526,-2.2242,-2.2915,-2.3658,-2.4883,-2.5491,-2.5972,-2.6669,-2.7,-2.7409,-2.8078,-2.8342,-2.8589,-2.9241,-2.9486,-2.9589,-2.987,-3.0044,-3.0199,-3.0468,-3.0692,-3.0895,-3.1055,-3.1591,-3.2122,-3.2581,-3.3188,-3.3934,-3.4792,-3.5331,-3.5832,-3.6387,-3.6755,-3.6965,-3.6908,-3.7027,-3.7143,-3.7143,-3.7259,-3.7392,-3.7466,-3.7466,-3.7503,-3.7576,-3.7576,-3.7594,-3.7631,-3.7631,-3.7667,0.9322,0.8675,0.7969,0.7892,0.7677,0.7432,0.752,0.7339,0.7159,0.7153,0.7103,0.7026,0.6868,0.692,0.709,0.7256,0.7249,0.7097,0.6929,0.6888,0.6595,0.5938,0.5873,0.5523,0.4623,0.4353,0.404,0.3515,0.2988,0.2464,0.2008,0.13,0.0768,0.0385,-0.0313,-0.1264,-0.2452,-0.3103,-0.3702,-0.4207,-0.4784,-0.5325,-0.5783,-0.6433,-0.6968,-0.7341,0.0,0.0,-0.8857,-0.951,-1.0345,-1.1255,-1.2105,-1.3002,-1.3977,-1.5098,-1.6051,-1.6967,-1.8089,-1.9226,-2.0271,-2.0815,-2.128,-2.1712,-2.2137,-2.2495,-2.3076,-2.4272,-2.5047,-2.5573,-2.5894,-2.6183,-2.6652,-2.7706,-2.7981,-2.8303,-2.9331,-2.9636,-2.9767,-3.0027,-3.0342,-3.0551,-3.0609,-3.0935,-3.123,-3.1269,-3.1483,-3.1932,-3.2683,-3.2899,-3.336,-3.4277,-3.5037,-3.5641,-3.6017,-3.6748,-3.7155,-3.7223,-3.7279,-3.7372,-3.7372,-3.7447,-3.7577,-3.7721,-3.7739,-3.781,-3.7899,-3.7899,-3.7934,-3.7934,-3.7843,-3.7789,0.9322,0.9049,0.8699,0.8387,0.8161,0.7947,0.7753,0.7452,0.7149,0.7015,0.6791,0.6641,0.6412,0.6534,0.6603,0.6757,0.6915,0.6929,0.6929,0.6705,0.6364,0.5916,0.5709,0.5327,0.4836,0.4434,0.4094,0.3851,0.3351,0.2801,0.2272,0.1829,0.1303,0.0684,0.0062,-0.0558,-0.131,-0.2239,-0.2979,-0.3658,-0.4311,-0.484,-0.5246,-0.6049,-0.6572,-0.704,0.0,-0.83,-0.8857,-0.951,-1.0265,-1.1005,-1.1707,-1.2721,-1.3816,-1.4445,-1.5622,-1.7203,-1.8734,-1.9668,-2.0283,-2.0809,-2.1361,-2.1841,-2.237,-2.2873,-2.3305,-2.3674,-2.4417,-2.5257,-2.6045,-2.6541,-2.6938,-2.7135,-2.745,-2.7994,-2.8763,-2.9179,-2.9593,-3.0285,-3.0617,-3.0821,-3.1055,-3.1196,-3.1389,-3.1688,-3.1763,-3.1908,-3.2265,-3.2406,-3.2809,-3.3653,-3.397,-3.4695,-3.6221,-3.6471,-3.6899,-3.7739,-3.7631,-3.7631,-3.7793,-3.7828,-3.7828,-3.7864,-3.7864,-3.7864,-3.7899,-3.7951,-3.8018,-3.8068,-3.7482,-3.7239,0.9397,0.9246,0.9094,0.8632,0.8327,0.8106,0.7953,0.7569,0.718,0.6942,0.6714,0.6486,0.6177,0.6361,0.6647,0.68,0.6814,0.6776,0.6695,0.6563,0.6334,0.586,0.5654,0.5448,0.4945,0.461,0.4283,0.4023,0.3528,0.3007,0.2643,0.2262,0.1802,0.1263,0.071,0.0117,-0.0527,-0.1348,-0.2188,-0.312,-0.3829,-0.44,-0.4907,-0.5686,-0.6363,-0.6933,0.0,-0.8156,-0.8857,-0.9614,-1.0285,-1.0972,-1.1728,-1.2529,-1.3484,-1.4715,-1.6314,-1.8052,-1.8867,-1.9712,-2.0523,-2.1033,-2.152,-2.1983,-2.2495,-2.2949,-2.3363,-2.3711,-2.4195,-2.4713,-2.5234,-2.5665,-2.6066,-2.6677,-2.6961,-2.7356,-2.833,-2.8672,-2.9046,-2.9982,-3.0291,-3.0622,-3.1261,-3.1483,-3.1617,-3.1856,-3.2018,-3.2179,-3.2267,-3.2491,-3.2783,-3.3186,-3.3713,-3.4365,-3.5196,-3.609,-3.6984,-3.7863,-3.7846,-3.7845,-3.8002,-3.8088,-3.8122,-3.8171,-3.8171,-3.7972,-3.7504,-3.7551,-3.7366,-3.6962,-3.6648,-3.6516,0.9397,0.9322,0.917,0.8703,0.8327,0.8102,0.8102,0.7565,0.7099,0.6942,0.6637,0.6328,0.5941,0.6308,0.6615,0.6851,0.6746,0.6607,0.6488,0.6413,0.6203,0.5748,0.5664,0.5472,0.5057,0.4697,0.4445,0.4257,0.3748,0.3308,0.3047,0.2602,0.2211,0.1802,0.1249,0.0729,0.0112,-0.0617,-0.1475,-0.2611,-0.3334,-0.3962,-0.4629,-0.5336,-0.6105,-0.682,-0.7456,-0.8103,-0.8798,-0.9607,-1.0336,-1.0972,-1.1769,-1.255,-1.345,-1.5126,-1.6879,-1.8446,-1.8883,-1.9733,-2.0759,-2.1264,-2.1746,-2.2217,-2.2709,-2.3127,-2.3494,-2.394,-2.4234,-2.4482,-2.4645,-2.4926,-2.5345,-2.6186,-2.6432,-2.6781,-2.7828,-2.813,-2.8498,-2.9446,-2.9956,-3.0466,-3.1199,-3.1642,-3.1929,-3.1984,-3.2267,-3.2457,-3.2525,-3.2692,-3.287,-3.2948,-3.3566,-3.411,-3.4366,-3.5778,-3.6844,-3.7442,-3.7871,-3.8119,-3.8168,-3.8271,-3.8263,-3.8141,-3.8141,-3.7739,-3.6955,-3.6985,-3.6656,-3.6072,-3.5919,-3.5846,0.9397,0.9322,0.917,0.8556,0.8255,0.8102,0.8102,0.7484,0.6942,0.6942,0.6402,0.5938,0.5941,0.6067,0.6303,0.6692,0.6586,0.6485,0.6474,0.6234,0.5976,0.5725,0.5493,0.5259,0.5038,0.4737,0.458,0.4562,0.4088,0.3661,0.348,0.2976,0.2473,0.1965,0.1515,0.0954,0.0393,-0.0168,-0.101,-0.2077,-0.2798,-0.3519,-0.4236,-0.5003,-0.5719,-0.649,-0.7348,-0.8043,-0.8679,-0.9503,-1.0233,-1.0972,-1.1628,-1.2735,-1.4078,-1.5423,-1.6597,-1.7739,-1.8659,-1.9782,-2.0858,-2.141,-2.2044,-2.2646,-2.3098,-2.348,-2.3839,-2.4177,-2.4523,-2.4782,-2.4926,-2.5256,-2.5594,-2.5643,-2.5959,-2.6449,-2.7197,-2.7623,-2.8058,-2.88,-2.9894,-3.0678,-3.0765,-3.155,-3.2232,-3.2354,-3.2457,-3.259,-3.282,-3.2884,-3.2948,-3.3055,-3.3268,-3.3701,-3.4594,-3.5521,-3.6109,-3.6206,-3.758,-3.8382,-3.8382,-3.8382,-3.8068,-3.7381,-3.7381,-3.7009,-3.6263,-3.6332,-3.6352,-3.6278,-3.5634,-3.5348,0.9397,0.9175,0.9018,0.8479,0.8255,0.8025,0.7791,0.7326,0.6865,0.6714,0.6251,0.5967,0.606,0.5972,0.5994,0.662,0.6676,0.6535,0.6594,0.6479,0.6257,0.599,0.5863,0.5716,0.5387,0.5203,0.4998,0.4689,0.4336,0.4013,0.3597,0.3383,0.3026,0.2465,0.2085,0.1574,0.0978,0.0266,-0.0525,-0.1314,-0.2355,-0.3181,-0.3846,-0.4673,-0.55,-0.6322,-0.7025,-0.783,-0.8679,-0.9406,-1.0138,-1.1015,-1.2246,-1.3266,-1.415,-1.5084,-1.6278,-1.7538,-1.8352,-1.94,-2.0588,-2.1445,-2.2137,-2.2692,-2.3142,-2.3581,-2.4009,-2.4385,-2.4806,-2.5139,-2.5162,-2.5371,-2.5654,-2.5914,-2.6096,-2.6341,-2.6838,-2.7045,-2.7437,-2.8391,-2.899,-2.9538,-3.0174,-3.0991,-3.1633,-3.185,-3.2388,-3.2787,-3.2948,-3.3122,-3.3244,-3.3286,-3.3433,-3.3905,-3.4822,-3.5227,-3.5697,-3.6315,-3.6769,-3.7069,-3.7081,-3.7177,-3.7095,-3.6812,-3.6793,-3.6407,-3.5644,-3.567,-3.542,-3.4929,-3.4703,-3.4624,0.9165,0.9018,0.8789,0.8331,0.8025,0.7795,0.7407,0.7096,0.6788,0.6563,0.6096,0.5736,0.5994,0.5855,0.5977,0.6706,0.6747,0.6753,0.6794,0.668,0.6527,0.6299,0.618,0.6024,0.5784,0.5549,0.5214,0.4937,0.4643,0.4289,0.3919,0.371,0.3359,0.2811,0.2397,0.1883,0.1257,0.0561,-0.0101,-0.0757,-0.1853,-0.2761,-0.3514,-0.4317,-0.5148,-0.6061,-0.6701,-0.7541,-0.8461,-0.9197,-1.019,-1.1267,-1.2677,-1.3552,-1.4186,-1.488,-1.6039,-1.7334,-1.819,-1.923,-2.0449,-2.1553,-2.231,-2.2873,-2.3363,-2.3797,-2.4234,-2.4645,-2.5045,-2.5355,-2.547,-2.5637,-2.5877,-2.6132,-2.6274,-2.6434,-2.6674,-2.6825,-2.7175,-2.7952,-2.8392,-2.8833,-2.9562,-3.0395,-3.114,-3.1578,-3.2201,-3.2755,-3.3086,-3.3304,-3.3452,-3.352,-3.3671,-3.4027,-3.4632,-3.4741,-3.5061,-3.5732,-3.5652,-3.5846,-3.6362,-3.6491,-3.6407,-3.6184,-3.6184,-3.5821,-3.5032,-3.502,-3.473,-3.4197,-3.4269,-3.4293,0.8856,0.8699,0.8551,0.7953,0.7642,0.7407,0.7019,0.6865,0.6788,0.6335,0.5789,0.5398,0.5559,0.5789,0.6093,0.6784,0.6874,0.6994,0.7146,0.6832,0.6599,0.6599,0.629,0.614,0.6073,0.5644,0.5327,0.5327,0.4945,0.4632,0.4515,0.394,0.3445,0.3023,0.246,0.1863,0.121,0.0755,0.0201,-0.0403,-0.126,-0.2267,-0.3321,-0.387,-0.4657,-0.5652,-0.6463,-0.7212,-0.7972,-0.8988,-1.0336,-1.1819,-1.2832,-1.3552,-1.4118,-1.4983,-1.5934,-1.6956,-1.8164,-1.9383,-2.0576,-2.1788,-2.2632,-2.3216,-2.3797,-2.4234,-2.458,-2.4886,-2.5201,-2.5454,-2.5824,-2.6043,-2.6203,-2.6203,-2.6452,-2.6725,-2.6791,-2.7004,-2.7244,-2.7465,-2.8229,-2.8908,-2.8981,-2.9828,-3.0761,-3.1564,-3.1936,-3.2419,-3.3302,-3.3452,-3.3577,-3.378,-3.3868,-3.3921,-3.3998,-3.4074,-3.4124,-3.4197,-3.4269,-3.5008,-3.6525,-3.6599,-3.6244,-3.5516,-3.5498,-3.5136,-3.4386,-3.4386,-3.4386,-3.4386,-3.4473,-3.4495,0.8556,0.8318,0.8016,0.7638,0.7411,0.718,0.6791,0.6563,0.6335,0.5712,0.5556,0.5559,0.5559,0.5948,0.6374,0.6787,0.71,0.7273,0.7377,0.7376,0.7257,0.6979,0.6845,0.6666,0.6388,0.6142,0.591,0.5652,0.5321,0.4969,0.4581,0.4214,0.3776,0.3275,0.2813,0.2277,0.1697,0.1179,0.0603,0.0,-0.065,-0.1625,-0.277,-0.3518,-0.4289,-0.5085,-0.5878,-0.6806,-0.7825,-0.9416,-1.0753,-1.1769,-1.2677,-1.3447,-1.4118,-1.4983,-1.5766,-1.6601,-1.8299,-1.9381,-2.0306,-2.1939,-2.2828,-2.3363,-2.3855,-2.4276,-2.4686,-2.5084,-2.547,-2.5807,-2.6059,-2.6312,-2.6538,-2.6538,-2.6657,-2.6825,-2.7053,-2.7276,-2.7509,-2.763,-2.8029,-2.8351,-2.8436,-2.9191,-3.0119,-3.108,-3.1751,-3.2545,-3.3552,-3.3753,-3.3815,-3.3921,-3.4049,-3.4124,-3.4148,-3.4245,-3.4316,-3.434,-3.4386,-3.461,-3.5038,-3.5038,-3.495,-3.4736,-3.4759,-3.4693,-3.4473,-3.458,-3.4623,-3.4623,-3.4666,-3.4708,0.794,0.7633,0.7399,0.7092,0.6865,0.6563,0.6173,0.6022,0.587,0.5398,0.5357,0.5478,0.5628,0.5967,0.6496,0.7053,0.7407,0.7708,0.7884,0.7903,0.7752,0.7554,0.7313,0.7106,0.6902,0.6629,0.6355,0.6164,0.5716,0.5304,0.4875,0.4485,0.4022,0.3492,0.3031,0.2553,0.1998,0.1542,0.0985,0.0313,-0.0313,-0.1102,-0.2069,-0.3024,-0.3866,-0.4606,-0.579,-0.6884,-0.7944,-0.9492,-1.0689,-1.1545,-1.2609,-1.3399,-1.4118,-1.5062,-1.5748,-1.6455,-1.8124,-1.9221,-2.015,-2.1855,-2.2834,-2.3523,-2.4051,-2.4549,-2.4966,-2.5339,-2.5733,-2.6079,-2.631,-2.6555,-2.6758,-2.6758,-2.6858,-2.7053,-2.7307,-2.7509,-2.7689,-2.7864,-2.8025,-2.8182,-2.8318,-2.8793,-2.9476,-3.0432,-3.1583,-3.2748,-3.375,-3.3947,-3.4023,-3.4074,-3.4197,-3.4139,-3.3822,-3.3938,-3.3855,-3.3518,-3.3864,-3.4076,-3.4033,-3.4349,-3.4539,-3.4561,-3.4602,-3.4623,-3.4623,-3.4689,-3.473,-3.473,-3.483,-3.4888,0.6996,0.6773,0.663,0.624,0.6012,0.578,0.5384,0.5461,0.5538,0.5303,0.5199,0.5259,0.5628,0.611,0.6655,0.7429,0.7826,0.8165,0.8539,0.8356,0.8186,0.8142,0.7762,0.7497,0.7475,0.7049,0.675,0.673,0.6125,0.5638,0.5332,0.4767,0.4206,0.3675,0.3272,0.2765,0.2144,0.1791,0.1254,0.0537,-0.0089,-0.0716,-0.1389,-0.241,-0.3411,-0.438,-0.6039,-0.7241,-0.8158,-0.9285,-1.0244,-1.1143,-1.2455,-1.3338,-1.41,-1.5119,-1.5836,-1.6449,-1.7835,-1.8987,-2.0099,-2.1557,-2.2728,-2.3691,-2.4395,-2.4926,-2.5355,-2.5642,-2.5954,-2.6274,-2.6537,-2.6708,-2.6858,-2.6891,-2.7053,-2.7307,-2.7557,-2.7689,-2.7836,-2.8154,-2.8209,-2.8273,-2.8484,-2.8587,-2.8935,-2.981,-3.1411,-3.2856,-3.3776,-3.3957,-3.4035,-3.411,-3.4172,-3.3904,-3.3153,-3.3224,-3.2949,-3.218,-3.2919,-3.3392,-3.3412,-3.4239,-3.4728,-3.4809,-3.4809,-3.4809,-3.4809,-3.4831,-3.4831,-3.4832,-3.4945,-3.502,0.6146,0.5851,0.5628,0.555,0.5476,0.5369,0.5191,0.5321,0.54,0.5168,0.5291,0.5491,0.5854,0.6542,0.7178,0.7592,0.821,0.8594,0.8615,0.877,0.8733,0.8328,0.8187,0.804,0.7823,0.749,0.7222,0.7034,0.6509,0.5971,0.5491,0.5059,0.4525,0.4029,0.3674,0.3167,0.2595,0.2152,0.1614,0.0,0.0268,-0.0358,-0.0895,-0.2146,-0.3493,-0.4865,-0.5941,-0.6918,-0.7847,-0.8812,-0.9741,-1.0749,-1.1984,-1.2925,-1.3737,-1.5037,-1.5913,-1.664,-1.7938,-1.8847,-1.9809,-2.1569,-2.2602,-2.3325,-2.4296,-2.4926,-2.5371,-2.577,-2.6082,-2.6435,-2.6691,-2.6923,-2.7181,-2.7386,-2.7478,-2.7539,-2.7642,-2.7893,-2.8126,-2.82,-2.8371,-2.8536,-2.8562,-2.8737,-2.9137,-3.0063,-3.1223,-3.2265,-3.311,-3.278,-3.2717,-3.3351,-3.2916,-3.2512,-3.2343,-3.2445,-3.2468,-3.2279,-3.2505,-3.2673,-3.271,-3.4036,-3.4792,-3.4792,-3.4889,-3.4964,-3.4964,-3.5001,-3.5038,-3.5035,-3.507,-3.5107,0.5035,0.4801,0.4709,0.4686,0.4854,0.4977,0.4855,0.501,0.5173,0.5177,0.5325,0.5631,0.605,0.6611,0.7203,0.7816,0.835,0.876,0.892,0.9126,0.917,0.8875,0.8728,0.8533,0.8328,0.7933,0.7598,0.7467,0.6773,0.6144,0.5677,0.5238,0.4777,0.4284,0.3889,0.3374,0.2861,0.2387,0.1825,0.1173,0.062,-0.0223,-0.1251,-0.2413,-0.3565,-0.4757,-0.566,-0.6555,-0.7412,-0.8386,-0.9331,-1.0294,-1.1452,-1.2587,-1.3619,-1.4713,-1.5714,-1.6645,-1.7695,-1.8645,-1.961,-2.1017,-2.1984,-2.2839,-2.4014,-2.4713,-2.522,-2.5947,-2.6349,-2.6641,-2.6923,-2.7181,-2.7448,-2.76,-2.7659,-2.7689,-2.7893,-2.8081,-2.8237,-2.8371,-2.851,-2.8637,-2.8761,-2.8929,-2.9365,-3.029,-3.088,-3.1545,-3.2408,-3.2235,-3.2206,-3.2639,-3.2345,-3.1974,-3.1619,-3.1694,-3.1597,-3.118,-3.1608,-3.1887,-3.1974,-3.3156,-3.3957,-3.4319,-3.4811,-3.5056,-3.5054,-3.5108,-3.516,-3.5209,-3.5207,-3.5239,0.378,0.368,0.38,0.3878,0.4206,0.4486,0.445,0.4705,0.5009,0.5267,0.544,0.5712,0.6248,0.6711,0.7221,0.8081,0.8514,0.8891,0.9305,0.9491,0.9542,0.9487,0.9259,0.904,0.8894,0.8344,0.796,0.7778,0.7007,0.6327,0.5879,0.5463,0.5,0.4582,0.4085,0.3577,0.3058,0.2565,0.203,0.137,0.0824,-0.0265,-0.1767,-0.2669,-0.3568,-0.4451,-0.5313,-0.6136,-0.6934,-0.804,-0.8966,-0.98,-1.0961,-1.2164,-1.3401,-1.4375,-1.5453,-1.6553,-1.7435,-1.8438,-1.9475,-2.0389,-2.1326,-2.2344,-2.3628,-2.4304,-2.4855,-2.593,-2.6438,-2.6753,-2.7147,-2.7448,-2.763,-2.776,-2.7789,-2.7864,-2.8154,-2.8237,-2.8327,-2.8562,-2.8637,-2.8737,-2.8975,-2.9134,-2.9487,-3.0259,-3.0413,-3.0754,-3.1699,-3.1742,-3.1745,-3.1879,-3.1844,-3.1525,-3.0863,-3.0932,-3.0715,-2.9994,-3.0684,-3.1146,-3.1211,-3.2057,-3.2863,-3.362,-3.4497,-3.5009,-3.5138,-3.519,-3.5258,-3.5324,-3.533,-3.536,0.24,0.2485,0.28,0.3114,0.3495,0.3845,0.4259,0.4649,0.5046,0.525,0.5517,0.5965,0.6604,0.7225,0.7779,0.8427,0.9045,0.9522,0.9702,1.0017,1.0095,0.9761,0.974,0.9511,0.9105,0.8777,0.8331,0.7681,0.7257,0.6746,0.6157,0.5852,0.5402,0.4798,0.4477,0.3935,0.3193,0.2721,0.2211,0.1621,0.0539,-0.0509,-0.1482,-0.2242,-0.3211,-0.436,-0.5048,-0.5867,-0.6774,-0.7623,-0.8519,-0.9412,-1.0606,-1.1624,-1.2645,-1.4287,-1.5401,-1.629,-1.7424,-1.8293,-1.9161,-2.0317,-2.1133,-2.1894,-2.3,-2.3612,-2.4149,-2.5313,-2.5858,-2.6327,-2.723,-2.7569,-2.776,-2.8053,-2.8126,-2.8154,-2.8182,-2.838,-2.8562,-2.8587,-2.8785,-2.8975,-2.9152,-2.9246,-2.9349,-2.9541,-2.9659,-3.0056,-3.092,-3.0453,-3.0302,-3.1072,-3.0578,-3.0156,-3.0061,-3.0178,-3.0217,-3.0157,-3.0285,-3.0371,-3.0439,-3.1282,-3.2158,-3.299,-3.3825,-3.4576,-3.5266,-3.535,-3.5398,-3.5479,-3.5463,-3.5502,0.1184,0.144,0.1926,0.2295,0.2813,0.3381,0.3935,0.4574,0.508,0.5517,0.6,0.6546,0.6974,0.7511,0.8098,0.884,0.9327,0.9778,1.0227,1.052,1.0569,1.0411,1.0213,0.9891,0.9456,0.8912,0.8388,0.7846,0.7409,0.6959,0.652,0.6179,0.573,0.5045,0.4595,0.397,0.3224,0.2698,0.2095,0.1335,0.0401,-0.0451,-0.126,-0.2052,-0.3008,-0.4132,-0.4957,-0.5782,-0.6647,-0.7538,-0.8357,-0.9177,-1.0191,-1.1283,-1.2441,-1.3595,-1.4705,-1.5815,-1.7006,-1.7903,-1.8724,-1.9972,-2.072,-2.1379,-2.2504,-2.3112,-2.3646,-2.4746,-2.5291,-2.5779,-2.6749,-2.7155,-2.7457,-2.8047,-2.8291,-2.838,-2.8424,-2.851,-2.8637,-2.8785,-2.8975,-2.9134,-2.9246,-2.9312,-2.9394,-2.955,-2.9626,-2.9814,-3.0245,-3.0017,-2.9956,-3.0349,-3.0132,-2.9972,-3.0019,-3.0098,-3.0157,-3.0213,-3.0234,-3.0305,-3.0343,-3.072,-3.1583,-3.2928,-3.3698,-3.4529,-3.5416,-3.5449,-3.5489,-3.556,-3.5553,-3.5589,0.0069,0.0424,0.0938,0.1369,0.2091,0.287,0.3583,0.4283,0.4986,0.5639,0.6419,0.7013,0.725,0.7807,0.8441,0.9268,0.9616,1.0035,1.0769,1.1023,1.1091,1.0948,1.0679,1.0283,0.9676,0.9048,0.8494,0.8063,0.7631,0.7209,0.6859,0.652,0.599,0.5238,0.4669,0.4007,0.3236,0.2593,0.1888,0.1099,0.0383,-0.0314,-0.1015,-0.1825,-0.2766,-0.3763,-0.476,-0.5696,-0.6513,-0.7447,-0.8308,-0.907,-0.9952,-1.1056,-1.218,-1.3033,-1.4088,-1.528,-1.6512,-1.7517,-1.8429,-1.955,-2.0353,-2.1086,-2.2084,-2.2637,-2.3135,-2.4176,-2.4706,-2.5195,-2.6076,-2.664,-2.7165,-2.779,-2.8236,-2.8562,-2.8637,-2.8662,-2.8761,-2.8975,-2.9134,-2.9246,-2.9293,-2.9394,-2.9531,-2.9683,-2.9701,-2.9756,-2.9825,-2.9876,-2.9926,-2.9956,-3.0003,-3.0064,-3.0123,-3.018,-3.0221,-3.0247,-3.0292,-3.0359,-3.0414,-3.0428,-3.1251,-3.2982,-3.3569,-3.4404,-3.5528,-3.5521,-3.5558,-3.5623,-3.5646,-3.5687,-0.1078,-0.0687,-0.014,0.0491,0.1194,0.2035,0.3076,0.3823,0.4598,0.5502,0.6447,0.72,0.754,0.8209,0.8956,0.948,1.0043,1.0557,1.1167,1.1469,1.1545,1.1133,1.1072,1.0623,0.9527,0.9253,0.8875,0.8222,0.7968,0.767,0.7209,0.6859,0.6231,0.5337,0.4818,0.4158,0.3295,0.239,0.1655,0.1087,0.0465,-0.0147,-0.0737,-0.1535,-0.2349,-0.3195,-0.4491,-0.5518,-0.6374,-0.7301,-0.8226,-0.9096,-0.9961,-1.0822,-1.1715,-1.3004,-1.395,-1.4716,-1.6066,-1.7348,-1.8505,-1.9137,-2.0176,-2.1278,-2.1711,-2.214,-2.263,-2.3577,-2.4076,-2.4532,-2.5359,-2.6269,-2.7048,-2.7212,-2.7951,-2.8637,-2.8761,-2.89,-2.9017,-2.9085,-2.9185,-2.9293,-2.9293,-2.9512,-2.9701,-2.9701,-2.9737,-2.9825,-2.9891,-2.9907,-2.9937,-3.0079,-3.0157,-3.0185,-3.0188,-3.0254,-3.0316,-3.0398,-3.0394,-3.0419,-3.0491,-3.0491,-3.1313,-3.3055,-3.3132,-3.3954,-3.5601,-3.5585,-3.5637,-3.5707,-3.5757,-3.5794,-0.215,-0.1761,-0.116,-0.0478,0.0341,0.1222,0.2395,0.3387,0.4427,0.5411,0.651,0.7328,0.7782,0.8424,0.9034,0.9473,0.9923,1.0398,1.0933,1.112,1.1214,1.1068,1.0776,1.0373,0.9778,0.9316,0.8873,0.8414,0.8209,0.7919,0.7545,0.7112,0.6469,0.5583,0.5071,0.419,0.2918,0.2245,0.1644,0.1145,0.0549,-0.0035,-0.0584,-0.1398,-0.2258,-0.3137,-0.4186,-0.5219,-0.6301,-0.7308,-0.8211,-0.907,-0.9991,-1.0878,-1.1712,-1.2734,-1.3553,-1.4352,-1.5638,-1.6626,-1.7522,-1.8485,-1.9608,-2.0705,-2.1085,-2.1787,-2.2576,-2.3075,-2.3397,-2.3816,-2.4693,-2.5676,-2.6734,-2.7899,-2.8445,-2.8779,-2.89,-2.9017,-2.9089,-2.9225,-2.927,-2.9334,-2.9531,-2.9645,-2.9719,-2.9825,-2.9841,-2.9907,-3.0022,-3.0068,-3.0113,-3.0157,-3.0221,-3.0286,-3.033,-3.0359,-3.0386,-3.0469,-3.05,-3.053,-3.0568,-3.1108,-3.1958,-3.3139,-3.3699,-3.4554,-3.5669,-3.5708,-3.5737,-3.5756,-3.5791,-3.5823,-0.3155,-0.282,-0.2217,-0.1411,-0.0604,0.0333,0.1683,0.2741,0.3861,0.5082,0.6178,0.7058,0.7672,0.8255,0.8827,0.9476,0.9956,1.0363,1.0821,1.1008,1.1095,1.0954,1.0648,1.0298,0.9879,0.9406,0.9047,0.8683,0.0,0.0,0.7829,0.7363,0.6639,0.5539,0.4802,0.3902,0.2749,0.2181,0.168,0.1212,0.0605,0.0034,-0.0461,-0.1262,-0.2128,-0.303,-0.3967,-0.5101,-0.6264,-0.7224,-0.8177,-0.911,-1.0021,-1.0905,-1.1726,-1.2567,-1.3365,-1.4151,-1.5184,-1.6118,-1.7015,-1.7954,-1.9084,-2.0143,-2.0515,-2.1375,-2.228,-2.2536,-2.2909,-2.3389,-2.4064,-2.5165,-2.6495,-2.7985,-2.8609,-2.8905,-2.904,-2.913,-2.92,-2.9272,-2.9373,-2.9492,-2.9664,-2.9738,-2.9808,-2.9891,-2.9937,-3.0003,-3.0132,-3.0204,-3.0226,-3.0253,-3.0311,-3.0352,-3.0425,-3.0439,-3.0481,-3.053,-3.0597,-3.0632,-3.0637,-3.1464,-3.2341,-3.3215,-3.4093,-3.494,-3.5771,-3.5782,-3.5799,-3.583,-3.5826,-3.5879,0.0,0.0,0.0,-0.2415,-0.1678,-0.0733,0.0841,0.1884,0.2921,0.4526,0.5471,0.6233,0.7134,0.7708,0.8416,0.9509,1.0103,1.0588,1.0934,1.1183,1.1224,1.0833,1.0784,1.0507,0.9799,0.9576,0.9359,0.9016,0.8683,0.8357,0.8021,0.7599,0.6659,0.5147,0.4044,0.327,0.2815,0.2214,0.1713,0.1279,0.0605,0.0101,-0.0337,-0.1134,-0.1937,-0.2739,-0.3911,-0.509,-0.6252,-0.714,-0.8103,-0.9096,-1.003,-1.0905,-1.1726,-1.2603,-1.3399,-1.4117,-1.4783,-1.5875,-1.7088,-1.7618,-1.8594,-1.9631,-1.9951,-2.0813,-2.1739,-2.1949,-2.2635,-2.3336,-2.3489,-2.4864,-2.6426,-2.7383,-2.832,-2.904,-2.9156,-2.9262,-2.9304,-2.9312,-2.9512,-2.9701,-2.972,-2.9806,-2.9888,-2.9905,-3.0034,-3.0123,-3.0185,-3.0253,-3.0337,-3.0398,-3.0394,-3.0419,-3.0491,-3.0569,-3.0597,-3.0602,-3.0673,-3.0715,-3.073,-3.1579,-3.2441,-3.3316,-3.4205,-3.5054,-3.5911,-3.5833,-3.5833,-3.5911,-3.5903,-3.5943,-0.5153,0.0,0.0,0.0,0.0,0.0,-0.0755,0.0556,0.1992,0.3419,0.4613,0.571,0.6644,0.7327,0.7938,0.8532,0.9182,0.9771,1.023,1.0402,1.0435,1.0429,1.031,1.0153,0.992,0.9576,0.9288,0.0,0.8846,0.848,0.8167,0.7029,0.5945,0.4996,0.401,0.3237,0.2749,0.2181,0.168,0.1212,0.0605,0.0101,-0.0336,-0.1024,-0.1767,-0.2563,-0.369,-0.4818,-0.5932,-0.7128,-0.8218,-0.9257,-1.0196,-1.1094,-1.1995,-1.2859,-1.3689,-1.447,-1.5134,-1.5845,-1.658,-1.7051,-1.7976,-1.8943,-1.9263,-2.0515,-2.1812,-2.2019,-2.2705,-2.3549,-2.4306,-2.5348,-2.6426,-2.7383,-2.832,-2.9062,-2.9218,-2.9349,-2.9471,-2.9511,-2.9626,-2.9738,-2.9823,-2.9891,-2.9956,-3.0098,-3.0157,-3.0199,-3.0254,-3.033,-3.041,-3.0466,-3.0519,-3.055,-3.0576,-3.064,-3.0673,-3.0671,-3.0697,-3.0989,-3.161,-3.2517,-3.3409,-3.4218,-3.5144,-3.5734,-3.5963,-3.5908,-3.5883,-3.5903,-3.5948,-3.5977,-0.6338,-0.6137,-0.587,-0.5279,0.0,0.0,-0.2228,-0.0788,0.077,0.23,0.3517,0.4599,0.5741,0.6436,0.7065,0.767,0.83,0.8958,0.9695,0.9892,1.001,1.0166,1.0059,0.998,0.9872,0.9576,0.9328,0.9136,0.8805,0.8398,0.7878,0.6635,0.5633,0.4991,0.401,0.3237,0.2712,0.2181,0.1644,0.1145,0.0571,0.0067,-0.0403,-0.1075,-0.1798,-0.2582,-0.373,-0.4839,-0.5945,-0.7209,-0.8308,-0.9297,-1.0341,-1.1244,-1.2115,-1.3067,-1.3888,-1.4658,-1.5344,-1.5924,-1.6474,-1.6952,-1.7641,-1.832,-1.8665,-1.9998,-2.1418,-2.164,-2.2553,-2.3651,-2.4253,-2.5091,-2.6004,-2.6918,-2.7915,-2.8747,-2.9191,-2.9451,-2.9589,-2.9626,-2.9719,-2.9808,-2.9891,-2.9972,-3.0064,-3.0171,-3.0259,-3.0292,-3.0336,-3.0425,-3.0499,-3.053,-3.0607,-3.064,-3.0634,-3.0683,-3.0711,-3.0742,-3.1084,-3.1509,-3.2016,-3.3268,-3.415,-3.4627,-3.5533,-3.5997,-3.5994,-3.5966,-3.5942,-3.5939,-3.5974,-3.5999,-0.7647,-0.7572,-0.7307,-0.6789,-0.5997,0.0,-0.3689,-0.2208,-0.0694,0.0949,0.2101,0.3197,0.4489,0.5226,0.593,0.6881,0.7468,0.8191,0.9279,0.9616,0.9783,0.9941,0.9941,0.9862,0.9674,0.9536,0.9328,0.8975,0.8643,0.8111,0.7412,0.635,0.5553,0.506,0.401,0.3204,0.2679,0.2145,0.1611,0.1076,0.0538,0.0,-0.0538,-0.1206,-0.1967,-0.2802,-0.3917,-0.5033,-0.6144,-0.7339,-0.839,-0.9368,-1.0485,-1.1394,-1.2187,-1.3251,-1.4052,-1.4752,-1.5477,-1.6105,-1.6617,-1.7134,-1.7549,-1.7917,-1.8312,-1.9545,-2.0886,-2.127,-2.2493,-2.37,-2.3721,-2.4451,-2.5403,-2.6182,-2.7251,-2.8304,-2.9015,-2.9475,-2.972,-2.9719,-2.9842,-2.9924,-2.9921,-3.0079,-3.0218,-3.0232,-3.0318,-3.041,-3.0421,-3.0519,-3.0607,-3.0616,-3.0657,-3.0703,-3.0704,-3.071,-3.0778,-3.094,-3.1675,-3.2194,-3.2377,-3.3875,-3.4753,-3.4835,-3.5603,-3.5999,-3.5996,-3.5994,-3.5991,-3.5995,-3.5996,-3.5996,-0.925,-0.918,-0.8977,-0.8597,-0.7653,0.0,-0.5517,-0.3988,-0.231,-0.0893,0.0472,0.1748,0.2995,0.3929,0.4813,0.5679,0.6637,0.7673,0.8781,0.9159,0.9377,0.9567,0.9607,0.9527,0.9408,0.9217,0.9007,0.8765,0.8316,0.7739,0.7112,0.6201,0.5415,0.4731,0.3777,0.3006,0.2474,0.1942,0.1408,0.0942,0.0336,-0.0134,-0.0538,-0.1241,-0.2033,-0.2936,-0.4057,-0.522,-0.6428,-0.7691,-0.8731,-0.9619,-1.0591,-1.1605,-1.2591,-1.3488,-1.4342,-1.509,-1.5725,-1.6324,-1.6876,-1.7248,-1.7635,-1.8107,-1.8992,-2.0022,-2.118,-2.2696,-2.3418,-2.3721,-2.3771,-2.4475,-2.5275,-2.5546,-2.6884,-2.8176,-2.8426,-2.9157,-2.9808,-2.9926,-2.9956,-3.0003,-3.0128,-3.0166,-3.0234,-3.033,-3.0386,-3.0444,-3.0559,-3.0588,-3.0613,-3.0661,-3.0685,-3.0716,-3.0784,-3.0779,-3.1086,-3.18,-3.2019,-3.2725,-3.4137,-3.4527,-3.5028,-3.5732,-3.5914,-3.5995,-3.5996,-3.5995,-3.5995,-3.5996,-3.6009,-3.6001,-1.0703,-1.0759,-1.069,-1.0312,-0.9426,0.0,0.0,-0.5793,-0.4172,-0.2722,-0.1362,0.0,0.1348,0.2434,0.3406,0.4326,0.538,0.6388,0.7308,0.8395,0.9134,0.9427,0.935,0.924,0.9156,0.8881,0.8529,0.8144,0.7746,0.7328,0.6774,0.6095,0.5352,0.4585,0.3761,0.2988,0.2245,0.1809,0.1308,0.0706,0.0235,-0.0269,-0.0808,-0.1516,-0.2294,-0.3154,-0.4395,-0.5578,-0.6665,-0.7941,-0.9093,-1.0079,-1.0971,-1.1886,-1.2859,-1.3809,-1.4627,-1.5344,-1.5996,-1.6538,-1.7076,-1.7455,-1.7816,-1.8297,-1.9293,-2.0562,-2.1943,-2.3271,-2.37,-2.375,-2.3795,-2.4247,-2.4827,-2.5332,-2.656,-2.7755,-2.8277,-2.9152,-2.9891,-3.0019,-3.0094,-3.0171,-3.0226,-3.0279,-3.0343,-3.0425,-3.0477,-3.053,-3.0586,-3.0629,-3.0668,-3.0691,-3.0728,-3.0769,-3.0799,-3.1196,-3.1636,-3.2065,-3.2921,-3.379,-3.4649,-3.5125,-3.5541,-3.5996,-3.5994,-3.6009,-3.6005,-3.6005,-3.6005,-3.6005,-3.6007,-3.5997,-1.2135,-1.232,-1.2358,-1.192,-1.1093,-1.0122,0.0,0.0,0.0,-0.4638,-0.3245,-0.1843,-0.0449,0.0797,0.1908,0.2879,0.3934,0.489,0.5682,0.7201,0.0,0.902,0.8919,0.88,0.88,0.8411,0.796,0.749,0.7194,0.6872,0.6441,0.5897,0.5262,0.4495,0.3795,0.3025,0.2184,0.1729,0.1177,0.0521,0.0069,-0.0486,-0.1216,-0.1913,-0.2692,-0.3578,-0.4857,-0.5963,-0.6992,-0.8262,-0.95,-1.0608,-1.1372,-1.2211,-1.3123,-1.4103,-1.4907,-1.558,-1.6219,-1.6763,-1.7224,-1.7681,-1.8224,-1.8906,-1.9744,-2.1245,-2.279,-2.3523,-2.375,-2.3816,-2.3858,-2.4054,-2.4393,-2.5134,-2.6098,-2.7099,-2.8045,-2.9025,-2.9779,-3.0071,-3.024,-3.0324,-3.0324,-3.0367,-3.0436,-3.0509,-3.0559,-3.0606,-3.061,-3.0664,-3.0698,-3.0728,-3.0774,-3.0793,-3.0793,-3.1468,-3.2009,-3.2338,-3.3664,-3.4607,-3.494,-3.5625,-3.5994,-3.6007,-3.5996,-3.6004,-3.5994,-3.599,-3.599,-3.5994,-3.6001,-3.6001,-1.3666,-1.3846,-1.3817,-1.3232,-1.2436,-1.1479,-1.0436,0.0,-0.7712,-0.6651,0.0,-0.3575,-0.2486,0.0,0.0,0.1286,0.2525,0.3627,0.4573,0.5303,0.6318,0.7713,0.8091,0.8171,0.8037,0.7582,0.7326,0.7237,0.6829,0.6441,0.6062,0.5531,0.4984,0.4432,0.3606,0.2933,0.2463,0.1654,0.1041,0.058,-0.0232,-0.0926,-0.1464,-0.2284,-0.3203,-0.4253,-0.5305,-0.6431,-0.7665,-0.8772,-0.9894,-1.1008,-1.1681,-1.2507,-1.3441,-1.442,-1.518,-1.5823,-1.6394,-1.6917,-1.7432,-1.7772,-1.9165,-2.0728,-2.096,-2.221,-2.3595,-2.3735,-2.3795,-2.3837,-2.4094,-2.417,-2.4265,-2.4541,-2.5296,-2.6219,-2.7226,-2.8214,-2.9198,-3.01,-3.0349,-3.0398,-3.0398,-3.0447,-3.051,-3.0588,-3.0606,-3.0618,-3.0683,-3.0691,-3.0725,-3.0774,-3.0806,-3.0804,-3.0804,-3.095,-3.1679,-3.3164,-3.3437,-3.4238,-3.5798,-3.5945,-3.5994,-3.6001,-3.5997,-3.5994,-3.6005,-3.5938,-3.5938,-3.6005,-3.6005,-3.6005,-1.4399,-1.4573,-1.4649,-1.3987,-1.324,-1.252,-1.1754,-1.0637,-0.9445,-0.8344,0.0,0.0,0.0,0.0,0.0,0.0,0.0966,0.2042,0.2888,0.359,0.4833,0.6826,0.0,0.0,0.6846,0.0,0.0,0.0,0.6186,0.5892,0.5501,0.5152,0.4707,0.414,0.349,0.2811,0.2114,0.1486,0.09,0.0236,-0.047,-0.1136,-0.1763,-0.2731,-0.3644,-0.4536,-0.5773,-0.6894,-0.7972,-0.9173,-1.0273,-1.1335,-1.2248,-1.311,-1.3842,-1.4707,-1.5463,-1.6117,-1.6659,-1.7167,-1.7647,-1.8146,-1.9266,-2.0535,-2.1139,-2.2136,-2.3172,-2.3707,-2.3937,-2.4074,-2.417,-2.4284,-2.4412,-2.4515,-2.5265,-2.6236,-2.7252,-2.8218,-2.9199,-3.0177,-3.0414,-3.0469,-3.0509,-3.054,-3.0588,-3.0649,-3.0653,-3.069,-3.0742,-3.0764,-3.0765,-3.081,-3.0801,-3.0816,-3.0853,-3.1308,-3.2109,-3.3312,-3.4342,-3.5235,-3.5974,-3.6001,-3.599,-3.6009,-3.6009,-3.5981,-3.5943,-3.5899,-3.5914,-3.5942,-3.5928,-3.5947,-1.4929,-1.5093,-1.5165,-1.458,-1.4021,-1.3437,-1.2855,-1.198,-1.1007,-0.9959,-0.8731,0.0,0.0,0.0,-0.3074,-0.1815,0.0,0.0374,0.118,0.1887,0.3182,0.5566,0.0,0.0,0.0,0.0,0.0,0.5548,0.5481,0.531,0.4888,0.4701,0.4351,0.3795,0.3324,0.2647,0.1793,0.1301,0.0651,-0.0122,-0.0732,-0.1423,-0.2161,-0.3185,-0.4115,-0.4915,-0.6295,-0.7391,-0.8308,-0.957,-1.0685,-1.1693,-1.2822,-1.3696,-1.4374,-1.5077,-1.5766,-1.6394,-1.6952,-1.7486,-1.7997,-1.8469,-1.9268,-2.0205,-2.0896,-2.1839,-2.2823,-2.3464,-2.393,-2.4247,-2.4266,-2.4412,-2.4551,-2.4631,-2.5223,-2.6052,-2.7056,-2.8001,-2.8943,-2.9883,-3.0316,-3.055,-3.0615,-3.0643,-3.064,-3.0683,-3.073,-3.0736,-3.0794,-3.0808,-3.0806,-3.0807,-3.0819,-3.085,-3.0898,-3.1425,-3.222,-3.3334,-3.4804,-3.5752,-3.5994,-3.6001,-3.5997,-3.5977,-3.5977,-3.5943,-3.5897,-3.5897,-3.5885,-3.5872,-3.5892,-3.5775,0.0,0.0,0.0,-1.5148,0.0,0.0,0.0,0.0,-1.2307,-1.1516,-1.0303,-0.9072,-0.7829,-0.6176,-0.4675,-0.3522,-0.2422,0.0,0.0,0.0047,0.1168,0.3614,0.4409,0.0,0.0,0.4786,0.4848,0.4844,0.4739,0.4565,0.4349,0.4198,0.3897,0.3439,0.2946,0.241,0.1787,0.107,0.0357,-0.0401,-0.107,-0.1828,-0.2719,-0.3642,-0.4604,-0.5524,-0.6742,-0.7792,-0.8756,-1.0069,-1.1111,-1.2093,-1.3234,-1.4219,-1.5029,-1.5593,-1.6117,-1.6659,-1.7272,-1.7915,-1.8505,-1.8641,-1.9379,-2.021,-2.0318,-2.1516,-2.2923,-2.2997,-2.364,-2.4339,-2.4465,-2.4532,-2.4631,-2.476,-2.4875,-2.5208,-2.6225,-2.7175,-2.8121,-2.9062,-2.9979,-3.0621,-3.0703,-3.071,-3.069,-3.069,-3.0767,-3.0799,-3.0799,-3.079,-3.0807,-3.0807,-3.0853,-3.0898,-3.0898,-3.0868,-3.1568,-3.3298,-3.423,-3.5127,-3.5966,-3.6005,-3.5973,-3.5889,-3.5889,-3.5897,-3.5905,-3.5905,-3.5872,-3.5811,-3.5872,-3.5457,0.0,0.0,-1.5508,-1.5054,0.0,0.0,0.0,0.0,0.0,0.0,-1.1599,-1.0491,-0.923,-0.783,-0.6331,-0.4874,-0.3866,-0.2949,0.0,-0.135,-0.0627,0.0253,0.184,0.2875,0.0,0.0,0.3466,0.3553,0.3562,0.3532,0.3452,0.3346,0.3134,0.281,0.2407,0.1862,0.1212,0.0635,-0.0045,-0.0851,-0.152,-0.2235,-0.3084,-0.4005,-0.4961,-0.591,-0.7043,-0.817,-0.9199,-1.037,-1.1472,-1.2507,-1.3591,-1.4554,-1.5374,-1.5866,-1.6405,-1.6952,-1.7698,-1.827,-1.8659,-1.8789,-1.9111,-1.9594,-2.0242,-2.084,-2.1566,-2.2738,-2.334,-2.3775,-2.44,-2.4645,-2.4749,-2.4837,-2.4947,-2.531,-2.6263,-2.6802,-2.7499,-2.8973,-2.9555,-2.9996,-3.0601,-3.0742,-3.0773,-3.0773,-3.0789,-3.0808,-3.079,-3.0798,-3.0813,-3.0855,-3.0898,-3.0878,-3.0847,-3.1337,-3.1913,-3.2494,-3.336,-3.3975,-3.4267,-3.4233,-3.4469,-3.5022,-3.5042,-3.5295,-3.5842,-3.5842,-3.5799,-3.5726,-3.5211,-3.4828,-1.5033,-1.5177,0.0,-1.4869,-1.4743,0.0,-1.4261,0.0,-1.3499,0.0,0.0,-1.1486,-1.0261,-0.9136,-0.7882,-0.6389,-0.542,-0.4529,0.0,-0.2895,-0.2496,-0.2389,-0.0364,0.1018,0.1166,0.1557,0.1874,0.211,0.227,0.2395,0.0,0.0,0.2243,0.1965,0.1672,0.1213,0.0534,0.014,-0.0503,-0.1371,-0.1936,-0.2635,-0.348,-0.4355,-0.5308,-0.6295,-0.7419,-0.8529,-0.9588,-1.0733,-1.1839,-1.2891,-1.3933,-1.4864,-1.5695,-1.6215,-1.6809,-1.7492,-1.809,-1.8508,-1.8807,-1.8931,-1.9052,-1.9277,-1.9888,-2.0315,-2.0836,-2.1972,-2.2582,-2.312,-2.4005,-2.4331,-2.4501,-2.4885,-2.5063,-2.534,-2.5966,-2.6438,-2.7069,-2.8218,-2.8974,-2.9621,-3.0189,-3.057,-3.0798,-3.0804,-3.0793,-3.081,-3.0791,-3.0819,-3.085,-3.0898,-3.0878,-3.0849,-3.0801,-3.1317,-3.1781,-3.2088,-3.2596,-3.3034,-3.3345,-3.3323,-3.3557,-3.4133,-3.4133,-3.4384,-3.4881,-3.4881,-3.4853,-3.4797,-3.3964,-3.3574]}]]